[[[{"header":{"parameterUnit":"kt","parameterCategory":2,"dx":1,"dy":1,"la1":29.285339999999998,"la2":30.599998999999997,"lo1":-89.70041500000002,"lo2":-87.6738589999976,"nx":112,"ny":82,"refTime":"2022-10-03T00:00:00:Z","depth":0,"parameterNumber":1,"parameterNumberName":"U-component_of_WINDS"},"data":[5.1471,5.2317,5.2328,4.7799,4.7951,4.7875,4.2823,4.343,4.4534,0.0,0.0,0.0,0.0,0.0,0.0,0.0,0.0,0.0,0.0,0.0,0.0,0.0,0.0,0.0,0.0,0.0,0.0,0.0,0.0,0.0,0.0,5.8189,6.1546,6.6845,6.8984,6.9942,6.9942,6.9942,6.9942,6.9942,6.9942,6.9942,6.9942,6.9942,6.9942,6.9942,6.9942,6.9942,6.9942,6.9705,6.9743,6.9971,6.9705,6.9677,6.9942,6.9942,6.9819,6.9629,6.9867,6.9819,6.9591,6.9591,6.9591,6.9439,6.8566,6.83,6.8262,6.7996,6.7921,6.7996,6.83,6.7503,6.6668,6.6668,6.6275,6.6022,6.682,6.7883,6.9173,7.1025,7.2135,7.3122,7.4033,7.464,7.5053,7.5053,7.5053,7.5053,7.5053,7.5053,7.5053,7.5053,7.5053,7.5053,7.5053,7.5053,7.5053,7.5053,7.5053,7.5053,7.5053,7.5053,7.5281,7.5741,7.6045,7.6501,7.707,7.7943,7.8057,7.7564,7.8095,7.8401,4.9887,5.0798,5.096,4.621,4.6014,4.5938,0.0,0.0,0.0,0.0,0.0,0.0,0.0,0.0,0.0,0.0,0.0,0.0,0.0,0.0,0.0,0.0,0.0,0.0,0.0,0.0,0.0,0.0,4.1427,0.0,5.5625,5.8452,6.2089,6.73,6.9135,6.9942,6.9942,6.9942,6.9942,6.9942,6.9942,6.9942,6.9942,6.9942,6.9942,6.9942,6.9942,6.9942,6.9942,6.9942,6.9942,6.9942,6.9942,6.9942,6.9942,6.9942,6.9942,6.9905,6.9705,6.9591,6.9667,6.9933,6.9942,6.9867,6.9363,6.9211,6.9097,6.849,6.8338,6.8262,6.7958,6.7275,6.6693,6.6693,6.6275,6.6174,6.7579,6.8566,6.9553,7.1063,7.2173,7.3084,7.3546,7.4413,7.5053,7.5053,7.5053,7.5053,7.5053,7.5053,7.5053,7.5053,7.5053,7.5053,7.5053,7.5053,7.5053,7.5053,7.5053,7.5053,7.5053,7.5053,7.5319,7.5779,7.5779,7.6083,7.6691,7.7488,7.7602,7.7108,7.8551,7.9196,0.0,4.8642,4.773,4.3626,0.0,0.0,0.0,0.0,4.1645,0.0,0.0,0.0,0.0,0.0,0.0,0.0,0.0,0.0,0.0,0.0,0.0,0.0,0.0,0.0,0.0,3.6997,3.6058,0.0,3.8008,4.1138,5.3207,5.5969,6.033,6.7236,6.9135,6.9942,6.9942,6.9942,6.9942,6.9942,6.9942,6.9942,6.9942,6.9942,6.9942,6.9942,6.9942,6.9942,6.9942,6.9942,6.9942,6.9942,6.9942,6.9942,6.9942,6.9942,6.9942,6.9829,6.9097,6.8832,6.8984,6.9677,6.9942,6.9942,6.9942,6.9942,6.9942,6.9942,6.9942,6.9753,6.8984,6.811,6.7503,6.7427,6.6212,6.5756,6.8262,6.8148,6.8262,7.0835,7.1367,7.1899,7.3426,7.4375,7.5015,7.5053,7.5053,7.5053,7.5053,7.5053,7.5053,7.5053,7.5053,7.5053,7.5053,7.5053,7.5053,7.5053,7.5053,7.5053,7.5053,7.5053,7.5053,7.5053,7.5053,7.5053,7.5091,7.5855,7.6273,7.6349,7.8855,8.0107,4.5862,0.0,0.0,0.0,0.0,0.0,0.0,0.0,0.0,0.0,0.0,0.0,0.0,0.0,0.0,0.0,0.0,4.3094,0.0,0.0,0.0,0.0,0.0,0.0,0.0,3.7523,3.8257,4.2139,3.9501,4.2635,5.3946,5.6227,6.033,6.7236,6.9135,6.9942,6.9942,6.9942,6.9942,6.9942,6.9942,6.9942,6.9942,6.9942,6.9942,6.9942,6.9942,6.9942,6.9942,6.9942,6.9942,6.9942,6.9942,6.9942,6.9942,6.9942,6.9942,6.9905,6.9677,6.9705,6.9705,6.9867,6.9942,6.9942,6.9942,6.9942,6.9942,6.9942,6.9942,6.9601,6.8186,6.811,6.811,6.6857,6.7161,6.7958,6.8642,6.9059,6.9515,7.0236,7.1337,7.2325,7.2742,7.3501,7.4261,7.4977,7.5053,7.5053,7.5053,7.5053,7.5053,7.5053,7.5053,7.5053,7.5053,7.5053,7.5053,7.5053,7.5053,7.5053,7.5053,7.5053,7.5053,7.5053,7.5053,7.5286,7.5855,7.6766,7.7488,7.8095,7.9424,8.0107,0.0,0.0,0.0,0.0,0.0,0.0,4.1572,0.0,4.0927,0.0,0.0,0.0,0.0,0.0,0.0,0.0,4.2648,0.0,0.0,0.0,4.0067,0.0,0.0,0.0,3.8306,3.815,3.9422,4.2825,4.0461,4.3482,5.4266,5.6261,6.0318,6.7245,6.9081,6.9942,6.9942,6.9942,6.9942,6.9942,6.9942,6.9942,6.9942,6.9942,6.9942,6.9942,6.9942,6.9942,6.9942,6.9942,6.9942,6.9942,6.9942,6.9942,6.9942,6.9942,6.9942,6.9942,6.9942,6.9781,6.9553,6.9895,6.9942,6.9942,6.9942,6.9942,6.9942,6.9942,6.9942,6.9639,6.8376,6.8414,6.8528,6.7605,6.7769,6.8414,6.9135,6.9401,6.9705,7.0426,7.1337,7.2211,7.2894,7.3691,7.4413,7.4977,7.5053,7.5053,7.5053,7.5053,7.5053,7.5053,7.5053,7.5053,7.5053,7.5053,7.5053,7.5053,7.5053,7.5053,7.5053,7.5053,7.5053,7.5053,7.5395,7.5741,7.6197,7.745,7.8475,7.931,7.9804,8.0107,0.0,0.0,0.0,0.0,4.3398,0.0,0.0,0.0,4.1723,4.2519,0.0,0.0,0.0,0.0,0.0,0.0,0.0,0.0,3.9421,4.0106,4.0805,4.0342,4.2096,4.2381,3.9994,3.9312,4.0357,4.3448,4.1344,4.4259,5.4233,5.6227,6.0227,6.7235,6.8998,6.9876,6.9942,6.9942,6.9942,6.9942,6.9942,6.9942,6.9942,6.9942,6.9942,6.9942,6.9942,6.9942,6.9942,6.9942,6.9942,6.9942,6.9942,6.9942,6.9942,6.9942,6.9905,6.9829,6.9829,6.9325,6.8756,6.9477,6.9781,6.9829,6.9829,6.9867,6.9942,6.9942,6.9942,6.9819,6.9022,6.887,6.8908,6.8832,6.8338,6.83,6.9819,6.9667,6.9667,7.1215,7.1557,7.2059,7.3615,7.4489,7.5053,7.5053,7.5053,7.5053,7.5053,7.5053,7.5053,7.5053,7.5053,7.5053,7.5053,7.5053,7.5053,7.5053,7.5053,7.5053,7.5053,7.5053,7.5053,7.5053,7.5779,7.6235,7.6349,7.7981,7.9196,8.0107,8.0107,8.0107,0.0,0.0,0.0,0.0,0.0,4.0775,0.0,0.0,0.0,0.0,0.0,0.0,0.0,4.9309,4.8398,4.8824,5.0439,0.0,0.0,4.8347,0.0,4.5653,4.6166,4.5786,4.3003,4.2669,4.3058,4.4267,4.3825,4.679,5.4419,5.5677,5.9651,6.7235,6.8491,6.9328,6.9942,6.9942,6.9942,6.9942,6.9942,6.9942,6.9942,6.9942,6.9942,6.9942,6.9942,6.9942,6.9942,6.9942,6.9942,6.9942,6.9942,6.9942,6.9942,6.9942,6.9591,6.9022,6.9022,6.8452,6.7731,6.7883,6.8452,6.9022,6.9022,6.9477,6.9942,6.9942,6.9942,6.9819,6.9022,6.9287,6.9629,6.8946,6.9705,7.0721,7.1025,7.1413,7.1869,7.2211,7.2818,7.3577,7.4564,7.4939,7.5053,7.5053,7.5053,7.5053,7.5053,7.5053,7.5053,7.5053,7.5053,7.5053,7.5053,7.5053,7.5053,7.5053,7.5053,7.5053,7.5053,7.5053,7.5053,7.5053,7.5779,7.6577,7.7298,7.8285,7.9196,8.0107,8.0107,8.0107,0.0,0.0,0.0,3.9708,0.0,0.0,0.0,4.2522,4.4458,4.9098,4.8976,4.9014,5.1926,5.1471,5.0798,5.1216,5.2235,5.2616,5.1688,5.239,5.2108,4.948,4.8864,4.8001,4.6318,4.486,4.4863,4.6924,4.8705,5.1944,5.7069,5.8093,6.1304,6.7282,6.8349,6.9173,7.0009,6.9942,6.9942,6.9942,6.9942,6.9942,6.9942,6.9942,6.9942,6.9942,6.9942,6.9942,6.9942,6.9942,6.9942,6.9905,6.9553,6.9401,6.9363,6.8908,6.8452,6.8186,6.8642,6.8186,6.7579,6.8452,6.8756,6.887,6.9287,6.9705,6.9942,6.9942,6.9942,6.9867,6.9515,6.9705,7.0009,7.0047,7.0759,7.1481,7.1861,7.2211,7.2628,7.3046,7.3767,7.4489,7.4977,7.5053,7.5053,7.5053,7.5053,7.5053,7.5053,7.5053,7.5053,7.5053,7.5053,7.5053,7.5053,7.5053,7.5053,7.5053,7.5053,7.5053,7.5053,7.5053,7.5053,7.5053,7.6235,7.7298,7.8171,7.9006,7.9614,8.0107,8.0107,8.0107,0.0,0.0,0.0,0.0,0.0,0.0,4.0244,4.2294,4.4989,0.0,4.9697,5.094,5.3671,5.3569,5.3038,5.3228,5.3154,5.3768,5.5865,5.5477,5.4364,5.2755,5.1832,5.0938,4.9789,4.7748,4.7678,5.0394,5.3226,5.629,5.9676,6.05,6.277,6.711,6.8102,6.8942,6.9781,6.9867,6.9942,6.9942,6.9942,6.9942,6.9942,6.9942,6.9942,6.9942,6.9942,6.9942,6.9942,6.9942,6.9942,6.9971,6.9287,6.8946,6.8718,6.8148,6.7731,6.7579,6.849,6.8186,6.7693,6.9059,6.9211,6.8908,6.9591,6.9829,6.9942,6.9942,6.9942,6.9942,6.9942,6.9942,7.0198,7.0882,7.1299,7.1785,7.2362,7.2742,7.316,7.3843,7.4527,7.5053,7.5053,7.5053,7.5053,7.5053,7.5053,7.5053,7.5053,7.5053,7.5053,7.5053,7.5053,7.5053,7.5053,7.5053,7.5053,7.5053,7.5053,7.5053,7.5053,7.5053,7.5053,7.5053,7.6501,7.7792,7.8704,7.9614,8.0107,8.0107,8.0107,8.0107,0.0,0.0,0.0,0.0,0.0,0.0,4.8672,4.9953,5.1129,5.8108,5.9626,5.9777,6.0157,5.9606,5.9302,6.0062,5.768,5.6647,5.9152,5.9994,5.9232,5.6058,5.6844,5.641,5.3278,5.3368,5.383,5.4218,5.4607,5.6293,5.9672,5.997,6.1971,6.6315,6.7195,6.8053,6.8946,6.9667,6.9942,6.9942,6.9942,6.9942,6.9942,6.9942,6.9942,6.9942,6.9942,6.9942,6.9942,6.9942,6.9942,7.0009,6.9867,6.9439,6.887,6.9515,6.8756,6.7579,6.849,6.8186,6.7503,6.7655,6.8224,6.8832,6.8908,6.9439,6.9942,6.9942,6.9942,6.9942,6.9942,6.9942,6.998,7.0123,7.1299,7.24,7.2476,7.3653,7.4825,7.483,7.4977,7.5053,7.5053,7.5053,7.5053,7.5053,7.5053,7.5053,7.5053,7.5053,7.5053,7.5053,7.5053,7.5053,7.5053,7.5053,7.5053,7.5053,7.5053,7.5053,7.5053,7.5053,7.5053,7.5053,7.5893,7.7146,7.8704,7.9614,8.0107,8.0107,8.0107,8.0107,0.0,0.0,0.0,0.0,0.0,0.0,4.6774,4.9081,5.1698,5.7822,5.8657,5.8923,6.0839,6.0593,6.0138,6.0517,5.937,5.8819,5.9929,6.0745,6.0905,6.0026,5.9214,5.8319,5.7306,5.5764,5.5637,5.7592,5.778,5.9236,6.2625,6.2815,6.3877,6.6201,6.6605,6.7387,6.8794,6.9135,6.9553,6.9942,6.9942,6.9942,6.9942,6.9942,6.9942,6.9942,6.9942,6.9942,6.9942,6.9942,6.9942,6.9905,6.9477,6.9097,6.8794,6.8604,6.8072,6.7579,6.849,6.8566,6.83,6.8794,6.9211,6.9515,6.9515,6.9743,6.9942,6.9942,6.9942,7.0471,7.2389,7.291,7.3029,7.3478,7.3047,7.2628,7.3122,7.4147,7.6285,8.0441,8.1264,8.0578,7.8476,7.8058,7.74,7.5336,7.5053,7.5053,7.5053,7.5053,7.5053,7.5053,7.5053,7.5053,7.5053,7.6949,7.8058,7.8058,7.8058,7.9031,8.1196,7.9199,7.8296,7.8921,7.9682,7.9634,7.8704,7.9614,8.0107,8.0107,8.0107,8.0373,3.565,0.0,0.0,0.0,0.0,0.0,4.7806,5.0342,5.2988,5.7594,5.8049,5.8222,6.0517,6.0441,6.0062,6.0062,6.0062,6.0062,6.0062,6.0555,6.122,6.208,6.0768,6.0082,6.0868,5.9111,5.8923,6.1097,6.1502,6.2618,6.4799,6.4898,6.5277,6.5911,6.6112,6.6997,6.8414,6.868,6.9211,6.9942,6.9942,6.9942,6.9942,6.9942,6.9942,6.9942,6.9942,6.9942,6.9942,6.9942,6.9942,6.9905,6.9363,6.8984,6.8756,6.8338,6.8034,6.7958,6.8832,6.9135,6.9211,6.9819,6.9942,6.9942,6.9942,6.9942,6.9942,6.9942,7.0631,7.1971,7.4424,7.5732,7.6643,7.7492,7.5743,7.4444,7.6251,7.7326,7.9475,8.475,8.5755,8.4841,8.2247,8.177,8.088,7.8337,7.7159,7.6879,7.7889,7.6247,7.5369,7.6387,7.558,7.5407,7.6387,7.8823,8.0675,8.1702,8.177,8.2953,8.5621,8.3477,8.2062,8.1607,8.2749,8.178,7.8704,7.9614,8.0107,8.0107,8.0107,8.0449,0.0,0.0,0.0,4.2732,4.3581,4.6198,5.6075,5.7138,5.697,6.0384,6.1067,6.0897,6.0213,6.0062,6.0062,6.0062,6.0062,6.0062,6.0062,6.0062,6.0403,6.1162,6.1977,6.2772,6.354,6.5035,6.5618,6.4836,6.5641,6.5802,6.4959,6.4898,6.4936,6.4936,6.5794,6.6693,6.7503,6.8376,6.9211,6.9942,6.9942,6.9942,6.9942,6.9942,6.9942,6.9942,6.9942,6.9942,6.9942,6.9942,6.9942,6.9942,6.9942,6.9477,6.8908,6.9667,6.9439,6.887,6.9705,6.9905,6.9905,7.0009,6.9942,6.9942,6.9942,6.9942,6.9942,6.9942,7.2363,7.4899,7.5027,7.7473,8.0248,8.1269,7.9385,7.859,8.3114,8.4793,8.5487,8.5688,8.5755,8.5688,8.5621,8.5554,8.5554,8.542,8.2383,8.1428,8.4951,7.9377,7.6317,7.9751,7.705,7.6387,7.982,8.0193,8.1838,8.531,8.5554,8.5621,8.5755,8.6626,8.5375,8.1718,8.3503,8.2596,7.8704,7.9614,8.0107,8.0107,8.0107,8.0107,3.6781,3.9729,4.3354,4.5601,4.833,5.1492,5.5354,5.7556,5.9075,6.0213,6.0441,6.0365,6.01,6.0062,6.0062,6.0062,6.0062,6.0062,6.0062,6.0062,6.0593,6.1931,6.2904,6.3682,6.444,6.6063,6.6722,6.5885,6.6087,6.6124,6.5802,6.5219,6.4898,6.4898,6.5225,6.5794,6.6693,6.7465,6.8338,6.9211,6.9677,6.9942,6.9942,6.9942,6.9942,6.9942,6.9942,6.9942,6.9942,6.9942,6.9942,6.9942,6.9942,6.9857,6.9629,6.9867,6.9791,6.9667,6.9867,6.9942,6.9942,6.9942,6.9942,6.9942,6.9942,7.1512,7.2845,7.0631,7.4037,7.842,7.842,8.0858,8.3411,8.3728,8.2403,8.1474,8.3012,8.6413,8.9931,9.2397,9.2782,9.2076,8.9605,8.9213,8.8427,8.6088,8.464,8.3469,8.2247,8.0027,7.8058,7.6949,7.5722,7.6458,8.0027,8.2477,8.5444,8.9017,8.9213,9.0302,9.2718,9.1573,8.935,8.6105,8.734,8.5276,7.9614,7.988,8.0107,8.0107,8.0107,8.0335,3.9017,4.1975,4.5328,4.8833,5.2252,5.505,5.6493,5.8505,6.0062,6.0062,6.0062,6.0062,6.0062,6.0289,6.0403,6.01,6.0574,6.0841,6.0554,6.0781,6.1507,6.2816,6.3462,6.4063,6.4831,6.6205,6.6792,6.6288,6.6298,6.6276,6.6291,6.5448,6.4898,6.4898,6.4898,6.5163,6.5756,6.6895,6.7921,6.8794,6.9629,6.9942,6.9942,6.9942,6.9942,6.9942,6.9942,6.9942,6.9942,6.9942,6.9942,6.9942,6.9942,6.9942,6.9942,6.9942,6.9942,6.9942,6.9942,6.9942,6.9942,6.9942,6.9942,6.9942,6.9942,7.1447,7.278,7.0565,7.4834,8.0112,8.0112,8.3381,8.6735,8.6735,8.6593,8.661,8.7037,9.0179,9.3612,9.6019,9.6395,9.5656,9.3357,9.2927,9.2158,8.9846,8.8472,8.724,8.6178,8.3832,8.1838,8.088,7.9613,8.0303,8.3789,8.6201,8.9082,9.2671,9.2927,9.4121,9.6869,9.5857,9.3204,8.8856,8.9812,8.6918,8.0107,8.0107,8.0107,8.0107,8.0107,8.0487,4.1059,4.329,4.5862,5.2442,5.524,5.7062,5.9492,6.0062,6.0062,6.0062,6.0062,6.0062,6.01,6.0745,6.1011,6.0289,6.1528,6.22,6.1336,6.1964,6.2824,6.3687,6.3788,6.416,6.4888,6.5835,6.6326,6.6302,6.6295,6.6253,6.6277,6.5405,6.4898,6.4898,6.4898,6.4898,6.4898,6.6516,6.7807,6.8756,6.9591,6.9942,6.9942,6.9942,6.9942,6.9942,6.9942,6.9942,6.9942,6.9942,6.9942,6.9942,6.9942,6.9942,6.9942,6.9942,6.9942,6.9942,6.9942,6.9942,6.9942,6.9942,6.9942,6.9942,6.9942,7.0075,7.0273,7.0273,7.5091,8.0361,8.0361,8.5127,9.005,9.0099,9.1612,9.3369,9.4602,9.5663,9.6395,9.6395,9.6395,9.6395,9.6395,9.6395,9.6395,9.6395,9.3485,9.2415,9.5719,9.0172,8.7174,9.0386,8.7702,8.7107,9.0645,9.0969,9.2543,9.6207,9.6444,9.6932,9.7957,9.9128,9.6653,8.9909,9.0796,8.7647,8.0107,8.0107,8.0107,8.0107,8.0107,8.0487,4.3606,4.8191,5.229,5.6417,5.8277,5.9264,5.991,6.0062,6.0062,6.0062,6.0062,6.0251,6.0859,6.1125,6.139,6.1904,6.1732,6.1499,6.1288,6.1448,6.2126,6.3586,6.4306,6.4978,6.5848,6.6663,6.6895,6.6313,6.6297,6.6286,6.6276,6.5372,6.4898,6.4898,6.4898,6.4898,6.4898,6.5315,6.6326,6.7807,6.9287,6.9942,6.9942,6.9942,6.9942,6.9942,6.9942,6.9942,6.9942,6.9942,6.9942,6.9942,6.9942,6.9942,6.9942,6.9942,6.9942,6.9942,6.9942,6.9942,6.9942,6.9942,6.9942,6.9942,6.9942,7.1774,7.3713,7.3713,7.8503,8.3686,8.3686,8.6795,9.0187,9.0967,9.1552,9.2479,9.4455,9.5663,9.6395,9.6395,9.6395,9.6395,9.6395,9.6395,9.6395,9.6395,9.5593,9.4359,9.2607,9.0756,8.8951,8.724,8.6244,8.7107,9.0645,9.0969,9.2543,9.6207,9.7176,9.7713,9.7942,9.986,9.7408,8.9909,9.0796,8.7647,8.0107,8.0107,8.0107,8.0107,8.0107,8.0791,4.3767,4.9034,5.4101,5.7784,5.9378,6.0062,6.0062,6.0062,6.0062,6.0062,6.0327,6.0631,6.0707,6.1314,6.1729,6.155,6.1667,6.1688,6.1265,6.154,6.242,6.4067,6.4622,6.5447,6.6701,6.6554,6.6438,6.6767,6.5784,6.5505,6.6276,6.541,6.4898,6.4898,6.4898,6.4898,6.4898,6.4898,6.5794,6.7465,6.9173,6.9942,6.9942,6.9942,6.9942,6.9942,6.9942,6.9942,6.9942,6.9942,6.9942,6.9942,6.9942,6.9942,6.9942,6.9942,6.9942,6.9942,6.9942,6.9942,6.9942,6.9942,6.9942,6.9942,6.9942,7.2363,7.5027,7.5027,7.9819,8.4946,8.4946,8.7438,9.0148,9.0723,9.1552,9.2821,9.5029,9.5956,9.6395,9.6395,9.6395,9.6395,9.6395,9.6395,9.6395,9.6395,9.6395,9.5656,9.3612,9.3357,9.2607,9.0672,9.0413,9.1255,9.323,9.3357,9.4423,9.6952,9.7664,9.8381,9.9421,10.0641,9.788,9.0632,9.1084,8.7647,8.0107,8.0107,8.0107,8.0107,8.0107,8.0715,4.4479,4.8971,5.3948,5.7779,5.9378,6.0062,6.0062,6.0062,6.0062,6.0062,6.0631,6.0915,6.0498,6.1504,6.2011,6.0785,6.1591,6.2158,6.1316,6.1941,6.2971,6.4449,6.458,6.5265,6.6794,6.5535,6.5225,6.6714,6.4974,6.4519,6.5895,6.5415,6.5012,6.4898,6.4898,6.4898,6.4898,6.4898,6.5794,6.7465,6.8946,6.9781,6.9942,6.9942,6.9942,6.9942,6.9942,6.9942,6.9942,6.9942,6.9942,6.9942,6.9942,6.9942,6.9942,6.9942,6.9942,6.9942,6.9942,6.9942,6.9942,6.9942,7.0273,7.0631,7.0631,7.304,7.5796,7.6202,8.0504,8.5066,8.5489,8.7794,9.0099,9.0343,9.1807,9.3662,9.5761,9.6298,9.6395,9.6395,9.6395,9.6395,9.6395,9.6395,9.6395,9.6395,9.6395,9.6395,9.6395,9.6395,9.6395,9.6395,9.6395,9.6395,9.6395,9.6395,9.6883,9.7957,9.8152,9.9128,10.1227,10.1422,9.8507,9.2269,9.2127,8.8372,8.0823,8.0823,8.0674,8.0259,8.0259,8.0677,5.3168,5.4872,5.6178,5.8175,5.9378,6.0062,6.0062,6.0062,6.0062,6.0062,6.0176,6.0688,6.1948,6.1759,6.1825,6.2925,6.2142,6.1431,6.1219,6.1332,6.1869,6.2853,6.3001,6.3339,6.4334,6.3517,6.3084,6.3374,6.4238,6.4542,6.42,6.5339,6.5681,6.4936,6.4898,6.4898,6.4898,6.4898,6.5794,6.7465,6.7731,6.8642,6.9942,6.9942,6.9942,6.9942,6.9942,6.9942,6.9942,6.9942,6.9942,6.9942,6.9942,6.9942,6.9942,6.9942,6.9942,6.9942,6.9942,6.9942,6.9942,6.9942,7.1905,7.4166,7.4166,7.6562,7.98,8.2524,8.4051,8.5549,8.8375,8.9591,9.0441,9.2198,9.2881,9.3467,9.4846,9.5761,9.6395,9.6395,9.6395,9.6395,9.6395,9.6395,9.6395,9.6395,9.6395,9.6395,9.6395,9.6395,9.6395,9.6395,9.6395,9.6395,9.6395,9.6395,9.6883,9.7957,9.8884,9.9958,10.1227,10.2154,10.0532,9.6286,9.6217,9.2411,8.48,8.48,8.3458,8.1057,8.1057,8.1854,5.3451,5.4402,5.5455,5.6688,5.8162,5.9454,5.9948,6.0062,6.0176,6.0593,6.0669,6.0915,6.1726,6.1898,6.2074,6.2384,6.1714,6.1106,6.0688,6.063,6.1123,6.2398,6.2601,6.3058,6.4253,6.3662,6.3555,6.4428,6.4769,6.5125,6.5643,6.6085,6.6123,6.5643,6.5187,6.4898,6.4898,6.5415,6.625,6.7465,6.7921,6.8794,6.9942,6.9942,6.9942,6.9942,6.9942,6.9942,6.9942,6.9942,6.9942,6.9942,6.9942,6.9942,6.9942,6.9942,6.9942,6.9942,6.9942,6.9942,6.9942,6.9942,7.1091,7.2389,7.2389,7.5988,8.0423,8.1971,8.4885,8.7961,8.9591,9.0001,9.0392,9.1894,9.3174,9.4296,9.5419,9.6053,9.6395,9.6395,9.6395,9.6395,9.6395,9.6395,9.6395,9.6395,9.6395,9.6395,9.6395,9.6395,9.6395,9.6395,9.6395,9.6395,9.6395,9.6932,9.7713,9.8787,9.9909,10.0983,10.199,10.2527,10.1109,9.7255,9.7186,9.34,8.5716,8.6165,8.4607,8.1323,8.3889,8.5749,5.4119,5.4583,5.5533,5.6287,5.7201,5.8315,5.9948,6.0176,6.0213,6.0859,6.0859,6.0859,6.143,6.1849,6.1977,6.1835,6.1481,6.1005,6.0376,6.0175,6.0573,6.1884,6.2184,6.2855,6.4316,6.3991,6.4352,6.5895,6.5681,6.5984,6.7123,6.6997,6.6655,6.6313,6.5756,6.5277,6.4898,6.5794,6.6693,6.7465,6.8186,6.9022,6.9942,6.9942,6.9942,6.9942,6.9942,6.9942,6.9942,6.9942,6.9942,6.9942,6.9942,6.9942,6.9942,6.9942,6.9942,6.9942,6.9942,6.9942,6.9942,6.9942,7.0433,7.1223,7.1905,7.633,8.1292,8.2032,8.5956,9.0001,9.0001,9.0197,9.0577,9.165,9.3418,9.5139,9.6151,9.6395,9.6395,9.6395,9.6395,9.6395,9.6395,9.6395,9.6395,9.6395,9.6395,9.6395,9.6395,9.6395,9.6395,9.6395,9.6395,9.6493,9.6737,9.7518,9.8591,9.9958,10.0837,10.1764,10.2771,10.282,10.1447,9.8401,9.8401,9.5148,8.8521,8.828,8.6893,8.4465,8.7499,8.9753,6.1841,6.0643,5.9734,5.9786,5.7577,5.6341,6.0251,6.0593,6.0062,6.0138,5.9492,5.9643,6.2046,6.1261,6.0989,6.3147,6.224,6.1225,6.1138,6.053,6.0118,6.027,6.0936,6.172,6.2668,6.3386,6.4124,6.4936,6.6402,6.6971,6.6427,6.7769,6.7845,6.6351,6.6895,6.6516,6.4936,6.5794,6.6693,6.7465,6.7541,6.8452,6.9942,6.9942,6.9942,6.9942,6.9942,6.9942,6.9942,6.9942,6.9942,6.9942,6.9942,6.9942,6.9942,6.9942,6.9942,6.9942,6.9942,6.9942,6.9942,6.9942,7.2036,7.5156,7.8231,8.1662,8.5127,8.8198,8.9532,9.0001,9.0001,9.0674,9.165,9.2735,9.3906,9.5139,9.6151,9.6395,9.6395,9.6395,9.6395,9.6395,9.6395,9.6395,9.6395,9.6395,9.6395,9.6395,9.6395,9.6395,9.6395,9.6395,9.6395,9.6786,9.7762,9.7957,9.8884,10.1032,10.1227,10.1764,10.2771,10.282,10.2686,10.2302,10.2302,10.0745,9.7591,9.3935,9.2963,9.4423,9.119,9.2189,5.9449,5.7625,5.6396,5.6357,5.6044,5.6316,5.8818,5.9517,5.9765,6.0002,5.9758,5.9814,6.0917,6.1374,6.1712,6.2137,6.2495,6.2591,6.2098,6.1755,6.1566,6.16,6.1854,6.2161,6.2571,6.3706,6.4845,6.5681,6.7313,6.8338,6.849,6.868,6.849,6.7807,6.7579,6.7123,6.6478,6.7351,6.7921,6.8262,6.8756,6.9298,7.0075,7.2101,7.304,7.304,7.304,7.304,7.2845,7.0828,6.9942,6.9942,6.9942,6.9942,6.9942,6.9942,6.9942,6.9942,6.9942,6.9942,6.9942,6.9942,7.0894,7.2584,7.5988,7.9362,8.2708,8.6016,8.8434,9.0001,9.0001,9.0772,9.1991,9.3711,9.498,9.5907,9.6298,9.6395,9.6395,9.6395,9.6395,9.6395,9.6395,9.6395,9.6395,9.6395,9.6395,9.6395,9.6395,9.6395,9.6395,9.6395,9.6981,9.7518,9.7893,9.9226,10.0349,10.1227,10.191,10.2381,10.282,10.282,10.282,10.282,10.3472,10.2145,9.8712,9.8347,9.7341,9.5877,9.7267,9.8992,5.9169,5.6703,5.4949,5.5462,5.546,5.576,5.7058,5.8426,5.9829,6.1271,6.0828,6.0115,6.0079,6.1068,6.1828,6.1656,6.2854,6.3578,6.3049,6.2731,6.2613,6.2605,6.2988,6.3401,6.3614,6.5111,6.644,6.7275,6.849,6.9401,6.9905,6.9477,6.9059,6.8794,6.8414,6.7958,6.7465,6.8338,6.8794,6.8794,6.9401,7.0976,7.3527,7.5599,7.6562,7.6562,7.6562,7.6562,7.6371,7.3972,7.2389,7.1381,7.0405,6.9942,6.9942,6.9942,6.9942,6.9942,6.9942,6.9942,6.9942,6.9942,6.9942,7.0762,7.522,7.8168,8.0982,8.5247,8.8139,9.0099,9.0392,9.1758,9.3455,9.5321,9.659,9.7274,9.6932,9.6883,9.6786,9.6444,9.6395,9.6395,9.6395,9.6395,9.6395,9.6395,9.6395,9.6395,9.6395,9.6395,9.6542,9.6834,9.7567,9.825,9.8933,10.0397,10.1422,10.1715,10.2381,10.282,10.282,10.282,10.282,10.282,10.3863,10.327,10.0903,10.1433,10.1033,9.9844,10.2116,10.3804,6.3833,6.0351,5.754,5.9179,5.6599,5.4009,5.5145,5.7411,6.0436,6.443,6.2622,6.0251,6.0074,6.0062,6.0593,6.2322,6.3213,6.3791,6.3724,6.3118,6.2562,6.2621,6.3957,6.5263,6.6199,6.7769,6.9097,6.9867,6.9942,7.0009,6.9942,7.0009,6.9629,6.8832,6.9591,6.9173,6.7465,6.8338,6.8794,6.8794,6.8794,7.3289,8.1506,8.0485,8.0049,8.0049,8.0049,8.0049,8.0049,7.9987,7.7979,7.4682,7.125,6.9942,6.9942,6.9942,6.9942,6.9942,6.9942,6.9942,6.9942,6.9942,6.9942,7.1223,7.7979,8.0049,8.1477,8.8079,8.9943,9.0245,9.126,9.3955,9.6639,9.7713,9.8836,9.9324,9.8201,9.7942,9.7664,9.659,9.6395,9.6395,9.6395,9.6395,9.6395,9.6395,9.6395,9.6395,9.6395,9.6395,9.6786,9.7859,9.7942,9.8884,10.1081,10.1276,10.1715,10.2722,10.282,10.282,10.282,10.282,10.282,10.282,10.3863,10.4936,10.6059,10.3138,10.4246,10.9018,10.509,10.5355,6.176,6.0271,5.9085,5.9863,5.818,5.7759,6.3302,6.4545,6.4705,6.5505,6.3665,6.1448,6.016,6.0996,6.179,6.1656,6.3289,6.4594,6.4539,6.4335,6.4428,6.5044,6.5524,6.6174,6.6971,6.811,6.8908,6.9173,6.9705,6.9942,6.9942,6.9942,6.9829,6.9629,7.2075,7.3215,7.2616,7.5219,7.6882,7.7638,7.7638,7.9019,8.1697,8.3692,8.4185,8.3381,8.3381,8.3381,8.3259,8.0982,7.9487,7.8357,7.7283,7.6944,7.6944,7.6944,7.6944,7.6521,7.4231,7.3429,7.3574,7.4304,7.4504,7.5958,8.344,8.5673,8.6544,9.0958,9.2149,9.2588,9.4394,9.62,9.7762,9.8884,9.9421,9.9632,9.9226,9.9128,9.9031,9.8738,9.864,9.8396,9.7615,9.8152,9.8152,9.6639,9.703,9.7225,9.6493,9.6395,9.6542,9.6883,9.825,9.9714,10.1178,10.1959,10.2429,10.282,10.282,10.282,10.282,10.282,10.1851,9.9777,10.3587,10.4765,10.3067,10.563,10.7634,10.9209,10.79,10.7972,6.3455,6.2656,6.19,6.367,6.2137,6.1738,6.7799,6.7611,6.6477,6.7823,6.5866,6.3838,6.3621,0.0,6.2816,6.145,6.3099,6.4617,6.486,6.4898,6.5158,6.5702,6.631,6.6895,6.7389,6.8528,6.9249,6.9249,6.9743,7.0537,7.184,7.1905,7.2454,7.3778,7.586,7.6902,7.6902,7.9049,8.208,8.5984,8.5984,8.6213,8.6703,8.8369,8.852,8.7468,8.7468,8.7232,8.6675,8.4643,8.3302,8.2568,8.2104,8.1168,8.0112,8.0112,8.0112,7.98,7.7663,7.7217,7.7658,7.8267,7.8751,8.0232,8.64,8.8261,8.8946,9.2227,9.3418,9.4345,9.6981,9.8445,9.9519,10.0641,10.0885,10.0788,10.0397,10.03,10.0153,9.9828,9.973,9.947,9.8738,9.9226,9.908,9.7274,9.7567,9.7615,9.6542,9.6395,9.6542,9.6981,9.8591,10.03,10.1764,10.2429,10.282,10.282,10.282,10.282,10.282,10.282,10.1405,9.8456,10.1958,10.3116,10.1621,10.5197,10.7757,10.928,10.928,10.928,6.7473,6.6558,6.544,6.9123,6.7593,6.6018,6.9284,6.7537,6.6398,7.0587,6.8489,6.6634,6.881,6.6695,6.3941,6.1989,6.2939,6.4214,6.4921,6.5111,6.5125,6.5163,6.6668,6.7655,6.7655,6.9097,7.0075,7.0339,7.0339,7.184,7.522,7.5412,7.6881,7.9987,8.0298,8.0423,8.0423,8.0715,8.5025,9.3125,9.3223,9.3808,9.4846,9.3711,9.2686,9.165,9.165,9.1113,9.0245,9.0245,8.9012,8.7008,8.5972,8.3624,8.0884,8.084,8.0796,8.0796,8.0635,8.1186,8.1994,8.2188,8.2866,8.4339,8.7819,8.8868,8.9491,9.2468,9.4199,9.5921,9.8949,10.0544,10.1666,10.2576,10.282,10.2527,10.1618,10.1422,10.1129,10.0105,9.9974,9.9909,9.9812,9.9925,9.947,9.8137,9.8055,9.7713,9.6542,9.6395,9.6834,9.7845,9.9031,10.0495,10.2527,10.2771,10.282,10.282,10.282,10.282,10.282,10.282,10.1453,9.8548,9.973,10.0676,10.1351,10.2902,10.5427,10.8805,10.9138,10.928,6.2821,6.3979,6.5219,6.6372,6.9021,7.1626,7.2396,7.0407,6.8423,6.8715,6.7393,6.5785,6.4358,6.5624,0.0,6.5694,6.5746,6.5882,6.5952,6.6478,6.7123,6.7807,6.8794,6.9401,6.9401,6.9715,7.1026,7.3649,7.3843,7.5348,7.8735,7.8923,7.9299,8.0049,8.2524,8.3808,8.3808,8.7174,9.0307,9.3125,9.4004,9.4602,9.4846,9.4602,9.3808,9.2783,9.2783,9.2637,9.2393,9.2393,9.2118,9.1597,9.1295,9.0246,8.8759,8.8009,8.7723,8.7461,8.5747,8.5254,8.5603,8.7344,8.8047,8.9051,9.3214,9.4505,9.463,9.5428,9.703,9.8738,9.9535,10.1081,10.2527,10.2771,10.282,10.2771,10.2478,10.2429,10.2381,10.2203,10.2154,10.1862,10.1032,10.1569,10.1113,9.8381,9.8738,9.8591,9.6639,9.6395,9.6834,9.7845,9.9031,10.0202,10.152,10.2332,10.282,10.282,10.282,10.282,10.282,10.282,10.1789,9.961,10.2944,10.2523,9.8289,10.4705,10.6775,10.4726,10.7829,10.928,6.1121,6.3369,6.4707,6.2725,6.4803,6.7376,6.7376,6.6793,6.6285,6.6306,6.5709,6.5808,6.775,6.7304,6.7127,6.8701,0.0,6.5438,6.6272,6.6332,6.6782,6.8034,6.8566,6.9684,7.2088,7.2297,7.3713,7.7093,7.7346,7.8797,8.2155,8.234,8.3014,8.4582,8.6316,8.7259,8.7259,9.0571,9.2528,9.3125,9.4784,9.5628,9.5628,9.5628,9.4993,9.3906,9.3906,9.3613,9.3125,9.3125,9.3418,9.3857,9.332,9.3125,9.293,9.1856,9.1173,9.0536,8.9346,8.9562,9.0559,9.1713,9.2488,9.3326,9.5699,9.6395,9.6395,9.6395,9.8006,9.9877,10.03,10.1666,10.282,10.282,10.282,10.282,10.282,10.282,10.282,10.282,10.282,10.2478,10.1471,10.1764,10.1227,9.8381,9.8543,9.8299,9.6639,9.6395,9.703,9.8591,9.9324,10.03,10.191,10.2478,10.282,10.282,10.282,10.282,10.282,10.3259,10.2412,9.9933,10.2668,10.2702,9.9991,10.4362,10.6295,10.6006,10.8186,10.928,6.0267,6.2648,6.3192,5.9229,5.928,6.0217,6.0057,6.0966,6.2139,6.307,6.3373,6.5383,7.1898,6.9405,6.7338,0.0,0.0,6.53,0.0,0.0,6.6472,6.9042,6.9072,7.0639,7.5353,7.5796,7.722,8.0609,8.0858,8.2278,8.5549,8.5729,8.7081,8.9884,9.0001,9.0001,9.0001,9.21,9.3125,9.3174,9.537,9.6395,9.6395,9.6395,9.5907,9.509,9.509,9.4492,9.3613,9.3613,9.4199,9.5041,9.4004,9.4101,9.4748,9.3711,9.2674,9.1796,9.1796,9.3174,9.4895,9.5041,9.5663,9.6395,9.6395,9.6395,9.6444,9.659,9.8103,9.9909,10.1032,10.2106,10.282,10.282,10.282,10.282,10.282,10.282,10.282,10.282,10.282,10.2527,10.1666,10.1374,10.0641,9.8787,9.8137,9.7664,9.6786,9.6639,9.742,9.9535,9.9812,10.0739,10.2625,10.282,10.282,10.282,10.282,10.282,10.282,10.3716,10.314,10.0902,10.1834,10.2642,10.3218,10.3804,10.5572,10.8329,10.8947,10.928,5.6845,5.8122,5.8908,5.814,5.9135,5.9992,5.917,5.8759,5.8433,5.7748,5.9491,6.195,6.4606,6.786,6.9935,0.0,0.0,0.0,7.1244,6.9564,7.0742,7.7365,7.6195,7.6033,7.9029,7.9299,8.0672,8.3929,8.4173,8.5669,8.9072,8.919,8.9474,8.9943,9.0001,9.0001,9.0001,9.21,9.3125,9.3174,9.537,9.6395,9.6395,9.6395,9.6298,9.6151,9.6151,9.6053,9.5907,9.5907,9.6005,9.6151,9.5956,9.5468,9.4846,9.47,9.3857,9.2881,9.2881,9.3711,9.4993,9.5858,9.6249,9.6395,9.6395,9.6395,9.659,9.7518,9.8689,9.9909,10.1032,10.2106,10.282,10.282,10.282,10.282,10.282,10.282,10.282,10.282,10.282,10.2771,10.2576,10.191,10.1178,10.0837,9.9177,9.7957,9.7762,9.7762,9.825,9.9568,10.0495,10.152,10.2722,10.282,10.282,10.282,10.282,10.282,10.282,10.2966,10.3738,10.5133,10.5326,10.4676,10.3218,10.6631,10.6847,10.4216,10.7685,10.928,5.5138,5.706,5.8374,5.6568,5.6697,5.6925,5.5898,5.6107,5.6272,5.5237,5.7226,6.0283,6.3813,6.7152,6.9897,7.1483,7.3051,0.0,0.0,0.0,7.3856,7.9434,7.8586,7.9135,8.3057,8.3023,8.4097,8.7438,8.7676,8.8375,8.9884,9.0001,9.0001,9.0001,9.0001,9.0294,9.0821,9.1748,9.2881,9.4052,9.5139,9.5858,9.6395,9.6395,9.6395,9.6395,9.6395,9.6395,9.6395,9.6395,9.6395,9.6395,9.6395,9.6102,9.5663,9.5663,9.498,9.4101,9.4687,9.4882,9.5041,9.6053,9.6395,9.6395,9.6395,9.6395,9.6737,9.8445,9.9275,10.0056,10.1715,10.2429,10.282,10.282,10.282,10.282,10.282,10.282,10.282,10.282,10.282,10.2625,10.2106,10.1618,10.0885,9.9665,9.864,9.7811,9.7225,9.7664,9.8445,9.9632,10.0641,10.1715,10.2722,10.282,10.282,10.282,10.282,10.282,10.282,10.282,10.3912,10.6079,10.7251,10.736,10.6487,10.8329,10.8306,10.6559,10.8377,10.928,5.7007,0.0,6.0726,5.8238,5.73,5.6568,0.0,5.5275,5.528,5.4217,5.6007,5.9196,6.3829,6.6352,6.8767,7.1958,7.3684,7.3905,7.202,0.0,0.0,8.1086,8.0568,8.1716,8.6694,8.6544,8.72,8.9826,9.0001,9.0001,9.0001,9.0001,9.0001,9.0001,9.0245,9.0723,9.1552,9.204,9.3174,9.4846,9.5139,9.5676,9.6395,9.6395,9.6395,9.6395,9.6395,9.6395,9.6395,9.6395,9.6395,9.6395,9.6395,9.6395,9.6395,9.6395,9.5907,9.5383,9.6102,9.5858,9.5383,9.6151,9.6395,9.6395,9.6395,9.6395,9.6883,9.9144,9.973,10.0202,10.2234,10.282,10.282,10.282,10.282,10.282,10.282,10.282,10.282,10.282,10.282,10.2576,10.1813,10.1422,10.0788,9.9308,9.843,9.7811,9.7225,9.7908,9.8738,9.9616,10.0885,10.2008,10.2771,10.282,10.282,10.282,10.282,10.282,10.282,10.282,10.3765,10.5688,10.7523,10.8646,10.889,10.9134,10.928,10.928,10.928,10.928,0.0,6.6725,6.6823,6.6579,6.5061,6.31,6.1,5.8205,0.0,5.4793,5.598,5.8362,6.2115,6.4931,6.7053,6.7806,6.8029,6.8389,0.0,7.1994,0.0,0.0,8.4322,8.4835,8.9308,8.9698,8.9767,8.9943,9.0001,9.0001,9.0001,9.0001,9.0001,9.0001,9.0918,9.1504,9.1552,9.3564,9.47,9.4895,9.5872,9.6346,9.6395,9.6395,9.6395,9.6395,9.6395,9.6395,9.6395,9.6395,9.6395,9.6395,9.6395,9.6395,9.6395,9.6395,9.6346,9.6298,9.6395,9.6346,9.6298,9.6395,9.6395,9.6395,9.6395,9.6395,9.6883,9.9144,9.973,10.0202,10.2234,10.282,10.282,10.282,10.282,10.282,10.282,10.282,10.282,10.282,10.282,10.2771,10.2722,10.1959,10.1569,10.2332,9.9893,9.8347,9.9324,9.9519,9.9616,9.973,10.152,10.2722,10.282,10.282,10.282,10.282,10.282,10.282,10.282,10.282,10.3307,10.4497,10.5737,10.6861,10.7767,10.8792,10.928,10.928,10.928,10.928,6.7945,6.9408,6.999,6.7945,6.6335,6.4719,6.2523,6.057,5.8716,5.7007,5.7709,5.9231,6.1273,6.4047,6.658,6.8168,6.9479,7.0583,0.0,0.0,0.0,8.2236,0.0,0.0,8.9836,9.0001,9.0001,9.0001,9.0001,9.0001,9.0001,9.0001,9.0001,9.0001,9.1016,9.1845,9.2479,9.3369,9.4443,9.5872,9.5517,9.5761,9.6395,9.6395,9.6395,9.6395,9.6395,9.6395,0.0,9.6395,9.6395,9.6395,9.6395,9.6395,9.6395,9.6395,9.6395,9.6395,9.6395,9.6395,9.6395,9.6395,9.6395,9.6395,9.6395,9.6395,9.6883,9.9144,10.0153,10.1032,10.2429,10.282,10.282,10.282,10.282,10.282,10.282,10.282,10.282,10.282,10.282,10.282,10.282,10.2478,10.2834,10.4609,10.3156,10.1847,10.1783,10.2212,10.1778,9.9924,10.1618,10.282,10.282,10.282,10.282,10.282,10.282,10.282,10.282,10.282,10.3667,10.5444,10.5933,10.7007,10.8646,10.9085,10.928,10.928,10.928,10.928,7.1945,7.2967,7.3358,7.1457,6.9701,6.7745,6.5213,0.0,6.1489,5.935,5.9497,6.0326,6.1351,6.3574,6.5908,6.7725,6.9517,7.1404,0.0,0.0,0.0,8.1992,8.6236,8.9123,0.0,8.9806,9.0001,9.0001,9.0001,9.0001,9.0001,9.0001,9.0343,9.0977,9.165,9.2588,9.3662,9.4004,9.4931,9.6395,9.5663,9.5774,9.6395,9.6395,9.6395,9.6395,9.6395,9.6395,9.6395,9.6395,9.6395,9.6395,9.6395,9.6395,9.6395,9.6395,9.6395,9.6395,9.6395,9.6395,9.6395,9.6395,9.6395,9.6395,9.6395,9.6395,9.6786,9.864,10.0202,10.152,10.2527,10.282,10.282,10.282,10.282,10.282,10.282,10.282,10.282,10.282,10.282,10.282,10.282,10.282,10.3674,10.6243,10.5253,10.4383,10.4895,10.4548,10.3382,10.1318,10.2162,10.3704,10.5794,10.599,10.5533,10.4466,10.4334,10.392,10.2887,10.282,10.3912,10.6079,10.6128,10.7202,10.928,10.928,10.928,10.928,10.928,10.9427,7.7554,7.7995,7.7458,7.8532,7.6335,7.3114,0.0,0.0,6.3784,6.1498,6.1098,6.1351,6.2384,6.3548,6.4712,6.5744,6.6774,6.975,7.6238,7.7165,0.0,0.0,0.0,8.7114,8.8342,8.9416,9.0001,9.0001,9.0001,9.0001,9.005,9.005,9.0977,9.3076,9.3125,9.3662,9.4846,9.5858,9.6395,9.6395,9.6395,9.6395,9.6395,9.6395,9.6395,9.6395,9.6395,9.6395,9.6395,9.6395,9.6395,9.6395,9.6395,9.6395,9.6395,9.6395,9.6395,9.6395,9.6395,9.6395,9.6395,9.6395,9.6395,9.6395,9.6395,9.6395,9.6639,9.7713,9.9568,10.152,10.2527,10.282,10.282,10.282,10.282,10.282,10.282,10.282,10.282,10.282,10.282,10.282,10.282,10.2887,10.3987,10.7213,10.5766,10.5454,10.8851,10.6373,10.4268,10.4268,10.3451,10.5598,11.2197,11.2752,11.1276,10.7983,10.7727,10.628,10.302,10.2887,10.3863,10.6079,10.6128,10.7202,10.928,10.928,10.928,10.928,10.928,10.9746,7.8139,7.9017,7.9456,7.9749,7.8529,7.6237,0.0,0.0,6.7833,6.4126,6.3394,6.3491,6.3743,6.4126,6.4956,6.6677,6.8526,7.0964,7.4383,7.7407,0.0,0.0,0.0,8.7406,8.9367,8.9855,9.0001,9.0001,9.0001,9.0284,9.1065,9.1748,9.2491,9.3125,9.3906,9.4553,9.4846,9.5858,9.6395,9.6395,9.6395,9.6395,9.6395,9.6395,9.6395,9.6395,9.6395,9.6395,9.6395,9.6395,9.6395,9.6395,9.6395,9.6395,9.6395,9.6395,9.6395,9.6395,9.6395,9.6395,9.6395,9.6395,9.6395,9.6395,9.6395,9.6395,9.6786,9.864,9.9665,10.0593,10.2332,10.282,10.282,10.282,10.282,10.282,10.282,10.282,10.282,10.282,10.282,10.282,10.282,10.4746,10.7073,10.9536,11.0475,11.1277,11.2493,11.1681,11.0428,10.9248,10.9498,11.0579,11.2568,11.2752,11.2321,11.1276,11.1214,10.9762,10.641,10.628,10.6206,10.6148,10.6128,10.7202,10.928,10.928,10.928,10.928,10.928,10.9356,7.8919,7.9797,8.0529,8.1358,8.0826,7.8873,7.4627,0.0,7.0133,6.5835,6.4663,6.4468,6.4908,6.5305,6.6574,6.9551,7.1845,7.448,7.7897,0.0,0.0,0.0,8.7659,0.0,0.0,0.0,9.127,9.127,9.127,9.171,9.2832,9.3027,9.3515,9.4394,9.4748,9.509,9.553,9.6102,9.6395,9.6395,9.6395,9.6395,9.6395,9.6395,9.6395,9.6395,9.6395,9.7096,9.8224,9.6909,9.7158,9.8162,9.6909,9.6395,9.6395,9.6395,9.6395,9.6395,9.6395,9.6395,9.6395,9.6395,9.6395,9.6395,9.6395,9.6395,9.6883,9.9144,9.973,10.0202,10.2234,10.282,10.282,10.282,10.282,10.282,10.282,10.282,10.282,10.282,10.3509,10.4083,10.4083,10.637,10.9018,11.1587,11.2603,11.376,11.5674,11.4661,11.3511,11.2974,11.5187,11.6674,11.6674,11.6674,11.6083,11.4769,11.4648,11.3189,10.9836,10.971,10.9629,10.9374,10.9831,11.0948,11.2657,11.3182,11.3385,11.3385,11.3385,11.3385,7.9749,8.0432,8.1114,8.3168,8.3076,8.1269,7.6776,0.0,0.0,6.6867,6.5109,6.4761,6.5598,6.6867,0.0,0.0,7.5994,7.9459,8.4437,0.0,0.0,0.0,0.0,0.0,9.1699,9.2528,9.3125,9.3125,9.3125,9.3662,9.4944,9.3955,9.4345,9.6346,9.553,9.5481,9.6395,9.6395,9.6395,9.6395,9.6395,9.6395,9.6395,9.6395,9.6395,9.6395,9.6395,9.8224,10.0877,9.7668,9.8236,10.0757,9.7606,9.6395,9.6395,9.6395,9.6395,9.6395,9.6395,9.6395,9.6395,9.6395,9.6833,9.722,9.6958,9.6945,9.7359,9.9208,9.9828,10.03,10.2283,10.282,10.282,10.282,10.282,10.282,10.282,10.3038,10.3172,10.274,10.471,10.6211,10.5793,10.7727,11.0226,11.3129,11.2917,11.3923,11.8221,11.6123,11.4714,11.6006,12.0055,12.2672,12.2672,12.2672,12.1313,11.8263,11.8088,11.6618,11.3365,11.3182,11.3536,11.4283,11.5481,11.6662,11.7821,11.8969,11.9625,11.9732,11.9732,11.9732,7.9944,8.1505,8.3168,8.4486,8.5267,8.4144,7.819,7.6433,0.0,0.0,6.5695,6.5353,6.481,0.0,7.0622,0.0,7.8045,8.2929,8.4877,0.0,0.0,0.0,0.0,0.0,9.2735,9.2979,0.0,9.3125,9.3125,9.4004,9.5956,9.5858,9.5907,9.6395,9.62,9.6151,9.6395,9.6395,9.6395,9.6395,9.6395,9.6395,9.6395,9.6395,9.6395,9.6395,9.6395,9.8224,10.0877,9.7668,9.8236,10.0757,9.7606,9.6395,9.6395,9.6395,9.6395,9.6395,9.6395,9.6395,9.6395,9.6395,9.9717,10.3269,10.0817,10.064,10.1038,10.0047,10.03,10.1227,10.2478,10.282,10.282,10.282,10.282,10.282,10.282,10.4812,10.5638,10.2292,10.6025,10.864,10.5155,10.9077,11.2618,11.2411,11.4303,11.6506,11.8493,11.8118,11.8196,11.9521,12.1466,12.2672,12.2672,12.2672,12.2333,12.1654,12.1597,12.0113,11.6737,11.6559,11.5854,11.4345,11.4551,11.573,11.7821,11.8035,11.8808,11.9732,11.9732,11.9732,8.3571,8.5208,8.6684,8.7576,8.825,8.7321,8.2169,0.0,0.0,0.0,6.9307,6.8331,6.6232,0.0,0.0,7.4334,8.0045,8.4877,8.6487,0.0,0.0,0.0,9.126,9.1943,0.0,9.3613,9.415,9.4687,9.4687,9.5175,9.6346,9.6395,9.6395,9.6395,9.6395,9.6395,9.6395,9.6395,9.6395,9.6395,9.6395,9.6395,9.6395,9.6395,9.6395,9.6395,9.6395,9.9035,10.3092,9.996,10.1307,10.5145,10.2136,10.0928,10.0928,10.0928,10.051,10.0041,10.0663,10.0459,9.9836,9.9206,10.1236,10.3546,10.1938,10.268,10.3705,10.1507,10.3398,10.5554,10.3409,10.3987,10.5206,10.5206,10.5206,10.5614,10.725,10.8876,10.853,10.3098,10.7487,11.098,10.7096,11.0808,11.4072,11.3445,11.4797,11.6333,11.7671,11.7846,11.8544,12.0521,12.1278,12.1973,12.2613,12.2672,12.2672,12.2672,12.2672,12.1824,12.0056,11.9999,11.9474,11.8333,11.8832,12.0061,12.1898,12.2518,12.3529,12.4765,12.4765,12.4765,8.6772,8.8446,8.9834,9.0681,9.0808,8.989,8.6337,8.384,0.0,0.0,7.37,7.204,6.9359,7.2089,7.5457,7.7653,8.2485,8.6634,8.8439,8.9611,9.0294,0.0,9.1016,9.1943,9.3027,9.415,0.0,0.0,9.6298,9.6395,9.6395,9.6395,9.6395,9.6395,9.6395,9.6395,9.6395,9.6395,9.6395,9.6395,9.6395,9.6395,9.6395,9.6395,9.6395,9.6458,9.6971,10.0506,10.5545,10.2915,10.5203,10.9898,10.6922,10.5719,10.5719,10.5719,10.491,10.3941,10.5017,10.4588,10.352,10.3444,10.3449,10.3339,10.2841,10.446,10.5991,10.3465,10.6833,11.009,10.5371,10.6438,10.8558,10.8558,10.8558,10.9383,11.2136,11.2752,11.1089,10.5348,10.9543,11.3062,11.0004,11.2634,11.517,11.4937,11.4879,11.5345,11.6624,11.6973,11.7962,12.0172,12.0754,12.1452,12.2555,12.2672,12.2672,12.2672,12.2672,12.2672,12.2672,12.2672,12.2672,12.2672,12.3604,12.4768,12.599,12.7094,12.8432,12.9886,12.9886,13.0003,8.4065,8.7064,8.9906,9.1002,9.105,9.0172,8.7705,8.5188,8.2392,7.8824,0.0,7.5066,7.4627,7.6482,7.8824,8.1025,0.0,8.9464,8.9757,9.0674,9.1357,9.1357,9.1504,9.1943,9.3027,9.415,9.4944,9.509,9.5858,9.6395,9.6395,9.6395,9.6395,9.6395,9.6395,9.6395,9.6395,9.6395,9.6395,9.6395,9.6395,9.6395,9.6395,9.6395,9.6395,9.6583,9.929,10.2441,10.5661,10.5256,10.715,10.9898,10.6922,10.5719,10.5719,10.5719,10.491,10.378,10.3994,10.3187,10.2948,10.8131,10.9742,10.9277,10.6697,10.7619,10.8786,10.5768,10.7816,11.067,10.9914,11.0896,11.202,11.202,11.202,11.2197,11.2629,11.2752,11.2184,11.0433,11.2964,11.4648,11.2184,11.4405,11.6159,11.5054,11.4879,11.5345,11.6624,11.7846,11.866,11.8955,12.1045,12.2497,12.2672,12.2672,12.2672,12.2672,12.2672,12.2672,12.2672,12.2672,12.2672,12.2672,12.2846,12.3486,12.4651,12.4826,12.6164,12.8548,12.8548,12.913,8.459,8.8056,9.116,9.2223,9.2863,9.2951,9.1884,8.9571,8.6731,8.3468,8.1332,0.0,7.6971,7.8729,0.0,0.0,0.0,0.0,8.8138,8.9601,9.0674,0.0,9.0674,0.0,9.2138,9.3223,9.4162,0.0,9.5286,9.5579,9.5579,9.6102,9.6395,9.6395,9.6395,9.6395,9.6395,9.6395,9.6395,9.6395,9.6395,9.7345,9.9035,9.9035,10.0021,10.1718,10.3092,10.543,10.8281,10.8281,11.0065,11.2685,11.1383,11.0891,11.0779,11.0049,10.8981,10.7856,10.7856,10.6566,10.5356,10.8029,10.8888,10.8688,10.7372,10.9137,11.1012,10.7792,11.0953,11.4419,11.0678,11.2021,11.4381,11.4381,11.4935,11.6024,11.791,11.6852,11.5858,11.7353,11.8117,11.732,11.3647,11.5138,11.6333,11.5054,11.4879,11.5345,11.6624,11.7322,11.8253,11.9707,12.087,12.1857,12.2613,12.2672,12.2672,12.2672,12.2672,12.2672,12.2672,12.2672,12.2672,12.2672,12.2672,12.3253,12.4419,12.4419,12.5407,12.7211,12.7967,12.8607,8.4546,8.7945,9.1088,9.2743,9.4126,9.4915,9.458,9.2883,9.0782,8.8655,8.6312,8.3704,0.0,0.0,0.0,8.1944,8.4821,0.0,8.7504,8.9162,0.0,9.005,0.0,9.0284,9.1065,9.2089,0.0,0.0,9.4248,9.4553,9.4846,9.5628,9.6102,9.6395,9.6395,9.6395,9.6395,9.6395,9.6833,9.7606,9.7606,9.9229,10.2262,10.2262,10.3564,10.5776,10.6523,10.8169,11.0285,11.1054,11.2793,11.4879,11.453,11.4414,11.4239,11.296,11.1622,11.0459,11.0168,10.883,10.7259,10.7259,10.7259,10.7318,10.7716,10.9993,11.1978,10.9943,11.3641,11.7161,11.2165,11.3906,11.6978,11.6978,11.794,11.9596,12.2107,12.0629,11.9366,12.1029,12.1298,11.9809,11.5445,11.6169,11.6857,11.5577,11.5112,11.5345,11.6624,11.7434,11.8544,12.0521,12.0987,12.1568,12.2613,12.2672,12.2672,12.2672,12.2672,12.2672,12.2672,12.2672,12.2672,12.2672,12.2672,12.3137,12.3953,12.3953,12.4651,12.5873,12.6862,12.7676,8.2188,8.5313,8.8173,9.1883,9.3628,9.4313,9.3556,9.3204,9.3282,9.4192,9.0632,8.756,0.0,0.0,8.2978,8.5894,8.7512,8.8684,8.9708,9.0772,9.1113,0.0,0.0,0.0,0.0,0.0,0.0,9.1699,9.2686,9.3662,9.4797,9.4895,9.5432,9.6346,9.6395,9.6395,9.6395,9.6395,9.7915,10.0877,10.0877,10.25,10.5488,10.5488,10.5545,10.5891,10.873,11.012,11.0451,11.3439,11.4721,11.4763,11.3489,11.3024,11.285,11.1564,11.0393,10.9171,10.7949,10.7376,10.7259,10.7259,10.7259,10.7541,10.8763,11.0044,11.1331,11.2404,11.4774,11.6862,11.6482,11.8392,12.0475,12.0475,12.1404,12.2445,12.2615,12.2559,12.1484,11.8439,12.04,12.1482,11.798,11.8112,11.8253,11.6915,11.5694,11.5345,11.6624,11.8951,12.058,12.0696,12.1801,12.2613,12.2672,12.2672,12.2672,12.2672,12.2672,12.2672,12.2672,12.2672,12.2672,12.2672,12.2672,12.2672,12.2788,12.2788,12.3313,12.4535,12.4593,12.5931,7.7917,8.1875,8.5741,9.0604,9.3489,9.5278,9.5795,9.429,9.3056,9.436,9.2136,9.0303,9.1515,8.8908,8.7052,8.8157,8.7761,8.7463,8.7797,8.9406,9.0382,9.005,9.0001,9.0001,0.0,0.0,0.0,9.0528,9.1504,9.2284,9.2735,9.3369,9.3906,9.4296,9.4296,9.4638,9.5432,9.7373,9.9311,10.1067,10.2248,10.4856,10.8563,10.6963,10.8229,11.1655,11.1828,11.2479,11.3332,11.44,11.4879,11.4763,11.3431,11.2908,11.2675,11.0633,10.9636,10.9054,10.7725,10.7259,10.7259,10.7259,10.7259,10.7376,10.7841,10.9353,11.1098,11.1564,11.3541,11.5577,11.5577,11.6857,11.8195,11.8195,11.9184,12.0172,12.0172,12.0172,11.9784,11.8614,11.9339,11.9784,11.8558,11.7893,11.709,11.5752,11.5868,11.6915,11.9009,12.0114,12.1045,12.1915,12.2381,12.2672,12.2672,12.2672,12.2672,12.2672,12.2672,12.2672,12.2672,12.2672,12.2672,12.2672,12.2672,12.2672,12.2672,12.2672,12.2904,12.3312,12.407,12.4884,7.2952,7.7278,8.1935,8.6907,9.0856,9.3708,9.4465,9.4064,9.3672,9.4373,9.3029,9.2045,9.3105,9.1177,8.9174,8.8748,8.83,8.7748,8.6844,8.8635,9.0001,9.0001,9.0001,0.0,0.0,0.0,0.0,9.0001,9.0626,9.1162,9.1552,9.2187,9.2783,9.3125,9.4101,9.4987,9.5792,9.8801,10.0632,10.1361,10.3622,10.6191,10.8998,10.8335,11.0038,11.3541,11.2669,11.2785,11.36,11.36,11.36,11.3425,11.2204,11.168,11.1447,10.9403,10.8589,10.8472,10.755,10.7259,10.7259,10.7259,10.7259,10.7376,10.7832,10.9353,11.1098,11.1506,11.3192,11.4879,11.4879,11.5868,11.6852,11.6852,11.7846,11.8722,11.8722,11.8722,11.8722,11.8722,11.8722,11.8896,11.9358,11.8718,11.7671,11.6392,11.7264,11.8718,12.0463,12.1103,12.1685,12.2555,12.2672,12.2672,12.2672,12.2672,12.2672,12.2672,12.2672,12.2672,12.2672,12.2672,12.2672,12.2672,12.2672,12.2672,12.2672,12.2672,12.2672,12.2672,12.343,12.4011,6.7719,0.0,7.6841,8.0614,8.5611,8.9503,8.9166,9.2091,9.4837,9.4476,9.3406,9.2872,9.3599,9.1559,8.9255,8.7932,8.9413,8.9813,8.7188,8.8635,9.0001,9.0001,9.0001,9.006,0.0,9.0186,9.0235,9.0235,9.0235,9.0676,9.1752,9.1801,9.2241,9.322,9.61,9.757,9.7621,10.055,10.1954,10.2063,10.5139,10.6644,10.6694,10.9639,11.0982,11.0982,11.0924,11.0924,11.0982,11.0982,11.0982,11.0866,10.9694,10.9229,10.9112,10.7832,10.7308,10.7407,10.7407,10.7456,10.7504,10.7504,10.7456,10.764,10.8921,11.0094,11.1215,11.2443,11.378,11.4821,11.4821,11.5752,11.6741,11.6741,11.7729,11.8606,11.8606,11.8606,11.8606,11.8606,11.8718,11.9125,12.0405,12.0638,12.0231,11.9009,11.994,12.0754,12.0696,12.1857,12.2672,12.2672,12.2672,12.2672,12.2672,12.2672,12.2672,12.2672,12.2672,12.2672,12.2613,12.2613,12.2613,12.2555,12.2555,12.2555,12.2555,12.2613,12.2613,12.2613,12.2672,12.3255,7.0971,0.0,0.0,7.8221,8.1659,8.4519,8.5496,8.6246,8.7912,9.1847,9.3742,9.4552,9.4304,9.3724,9.2979,9.2134,9.0517,8.9441,8.9653,8.9854,9.0001,9.0001,9.0001,9.1289,9.4483,9.5603,9.6236,9.6236,9.6236,9.6286,9.66,9.6652,9.6757,9.7071,9.7847,9.8656,9.9557,10.2469,10.4416,10.5248,10.8283,10.9339,10.8583,11.022,11.0982,11.0924,11.0102,11.0218,11.0982,11.0982,11.0982,11.0866,10.9694,10.9229,10.9112,10.7832,10.8359,10.9814,10.9814,11.0967,11.2384,11.2384,11.1244,10.992,11.0231,11.0063,10.9811,11.016,11.1796,11.3489,11.3489,11.4472,11.5403,11.5403,11.5694,11.5984,11.5984,11.5984,11.5984,11.5984,11.6682,11.7439,11.7788,11.866,11.9184,11.8835,12.0696,12.1799,12.0812,12.1857,12.2672,12.2672,12.2672,12.2672,12.2672,12.2672,12.2672,12.2672,12.2672,12.2264,12.1278,12.1219,12.0812,11.9882,11.9823,11.9823,11.9823,12.0754,12.1219,12.1278,12.2206,12.2846,6.5226,0.0,0.0,0.0,7.3758,7.6148,8.066,8.0993,8.1852,8.7334,9.003,9.1879,9.3351,9.3687,9.359,0.0,9.1663,9.0773,9.0998,9.116,9.1389,9.1957,9.2059,9.303,9.5636,9.6594,9.7236,9.7666,9.7719,9.7987,9.8524,9.8578,9.8578,9.8578,9.9753,10.0718,10.1429,10.4378,10.622,10.6857,10.8657,10.9063,10.8472,10.9121,10.9412,10.9412,10.8763,10.8822,10.9412,10.9412,10.9412,10.9353,10.8705,10.8472,10.8504,10.8701,10.9625,11.0967,11.1915,11.3176,11.4279,11.4279,11.3398,11.2278,11.2278,11.2198,11.2166,11.2166,11.3555,11.5192,11.5889,11.5759,11.5667,11.63,11.5657,11.4879,11.4879,11.4879,11.4879,11.4879,11.5926,11.6973,11.7555,11.8718,11.9591,11.9591,12.1336,12.2381,12.1624,12.2206,12.2672,12.2672,12.2672,12.2672,12.2672,12.2148,12.1801,12.1801,12.1336,12.0696,11.994,11.9882,11.9533,11.878,11.8722,11.8722,11.8722,11.9533,11.9882,11.994,12.1219,12.151,5.4254,0.0,0.0,6.2517,6.3568,6.5803,0.0,0.0,7.5582,8.0866,8.3397,8.5989,9.0504,9.1658,9.1969,9.1836,9.2601,9.282,9.1718,9.2362,9.3487,9.4957,9.5384,9.5597,9.5597,9.5759,9.6192,9.7272,9.7326,9.7865,9.9,9.927,9.9324,9.9324,10.2065,10.3521,10.3521,10.6007,10.7259,10.7259,10.7259,10.7259,10.7259,10.7259,10.7259,10.7259,10.7259,10.7259,10.7259,10.7259,10.7259,10.7259,10.7259,10.7456,10.7982,11.0317,11.1321,11.187,11.3972,11.4844,11.5059,11.5059,11.4887,11.467,11.467,11.5325,11.6037,11.6037,11.688,11.8139,11.9534,11.8352,11.7171,11.8465,11.7007,11.5293,11.5293,11.5089,11.4879,11.4879,11.6043,11.738,11.8369,11.9882,12.087,12.0754,12.1801,12.2672,12.2672,12.2672,12.2672,12.2672,12.2672,12.2672,12.2672,12.1452,12.0638,12.0521,11.9416,11.8718,11.8602,11.8602,11.8427,11.8137,11.8083,11.7966,11.7729,11.7966,11.8083,11.8141,11.9591,11.9533,0.0,0.0,0.0,0.0,0.0,0.0,0.0,0.0,6.5216,7.0829,7.5028,7.8908,8.2896,8.6398,8.9526,9.195,9.2416,9.2607,9.2914,9.2926,9.3935,9.6714,9.8921,10.0181,10.0181,10.1145,10.1833,10.211,10.2062,10.2225,10.2454,10.3437,10.401,10.401,10.5588,10.6462,10.6462,10.7014,10.7259,10.7259,10.7259,10.7259,10.7259,10.7259,10.7259,10.7259,10.7259,10.7259,10.7259,10.7259,10.7259,10.7259,10.7259,10.8455,11.041,11.2773,11.4844,11.6504,11.6985,11.8362,11.9927,11.9927,11.8645,11.711,11.711,11.5976,11.4652,11.4652,11.5602,11.6676,11.6925,11.8283,11.9631,11.9878,11.8894,11.7865,11.7865,11.6264,11.4879,11.4879,11.6799,11.8137,11.7322,12.0053,12.1917,12.087,12.1801,12.2672,12.2672,12.2672,12.2672,12.2672,12.2672,12.2672,12.2672,12.1452,12.0289,11.9242,11.8896,11.8311,11.7206,11.7148,11.6217,11.4071,11.4071,11.3076,11.1091,11.3134,11.4071,11.4129,11.645,11.6333,0.0,0.0,0.0,0.0,0.0,0.0,0.0,0.0,0.0,0.0,0.0,7.0695,0.0,0.0,8.4698,8.8174,9.028,9.2004,9.371,9.4197,9.4255,9.3884,9.5524,9.7197,9.8521,9.922,10.0383,10.2257,10.2432,10.2769,10.341,10.4002,10.4351,10.4351,10.5039,10.5388,10.5388,10.5388,10.5388,10.5388,10.5388,10.5388,10.5388,10.5388,10.5388,10.5388,10.5388,10.5689,10.6329,10.6329,10.6736,10.7388,10.8242,10.9747,11.1669,11.3224,11.5021,11.6778,11.7169,11.8086,11.9154,11.9943,11.9454,11.8599,11.9313,11.8725,11.7769,11.7769,11.824,11.8903,11.9607,11.9974,12.0203,12.0896,12.028,11.9146,11.7786,11.7095,11.6367,11.5142,11.645,11.7555,11.6969,11.8951,12.0521,11.9823,12.087,12.1917,12.2613,12.2672,12.2148,12.087,12.0696,12.0463,11.982,11.9125,11.8486,11.7846,11.7206,11.6566,11.5868,11.4588,11.3309,11.2029,11.0749,10.9528,10.8298,10.9528,11.011,11.0168,11.0808,11.0749,0.0,0.0,0.0,0.0,0.0,0.0,0.0,0.0,0.0,0.0,0.0,0.0,0.0,0.0,0.0,8.313,8.732,9.0835,9.3198,9.4251,9.3618,9.0476,9.1239,9.2946,9.5358,9.5635,9.7113,10.0815,10.1376,10.2128,10.3425,10.3644,10.3891,10.4296,10.3705,10.3646,10.401,10.3646,10.341,10.341,10.341,0.0,10.341,10.341,10.341,10.341,10.3822,10.4654,10.565,10.6065,10.6843,10.793,10.9303,11.0881,11.2514,11.3585,11.4799,11.6015,11.6624,11.6853,11.705,11.8299,11.8694,11.8957,12.0075,12.0442,0.0,12.0442,12.0442,12.0667,12.185,12.0915,11.993,12.1087,12.0795,11.9717,11.7871,11.7874,11.7665,11.5955,11.6238,11.6741,11.645,11.7497,11.8311,11.8024,11.9358,12.0638,12.1449,12.174,12.1103,11.9009,11.8722,11.8369,11.7264,11.6275,11.6037,11.6794,11.4879,11.3541,11.3076,11.104,10.9528,10.8772,10.6794,10.5922,10.6154,10.6387,10.6503,10.6494,10.2361,10.2031,0.0,0.0,0.0,0.0,0.0,0.0,0.0,0.0,0.0,0.0,0.0,0.0,0.0,0.0,0.0,0.0,8.4591,8.8451,8.917,9.0389,9.1012,9.0593,9.1376,9.2732,9.4616,9.4778,9.6204,9.9516,10.0922,10.2296,10.3856,10.4339,0.0,0.0,0.0,10.4337,10.6282,10.4383,10.341,10.341,10.341,10.341,10.341,10.341,10.341,10.3504,10.5478,10.6447,10.6703,10.8517,10.9401,10.9567,10.9771,11.1176,11.3433,11.5603,11.652,11.6754,11.6779,0.0,0.0,11.705,11.7116,11.7116,11.7247,11.7313,11.7313,11.7313,11.7313,11.7379,11.751,11.8375,11.9236,11.9433,11.9637,12.006,12.1077,11.8827,11.6982,11.7975,11.7481,11.645,11.5286,11.6159,11.6624,11.5519,11.7439,11.866,11.7667,11.8486,11.9125,11.8835,11.8722,0.0,11.8602,11.4298,11.3134,11.6566,11.2488,10.883,10.6561,10.6154,10.4409,10.0873,10.0524,10.0931,10.2141,10.3293,10.3875,10.3515,8.9479,8.7443,0.0,0.0,0.0,0.0,0.0,0.0,0.0,0.0,0.0,0.0,0.0,0.0,0.0,0.0,0.0,0.0,7.7874,8.2727,8.2134,8.471,8.6864,8.7565,8.7166,8.8439,9.2364,9.1997,9.3372,9.7932,9.9633,10.0663,10.1361,10.3262,10.474,10.568,10.5234,10.5454,10.635,10.5454,10.4979,10.4979,10.4979,10.4979,10.4979,10.4979,10.4298,10.3206,10.5411,10.6113,10.575,10.788,10.9199,10.9802,0.0,0.0,0.0,0.0,11.488,11.5472,11.4617,11.4288,11.4485,11.534,11.5603,11.5735,11.659,11.6853,11.6853,11.6853,11.6853,11.6853,11.6853,11.7313,11.7773,11.7773,11.8566,11.918,11.8235,11.7534,11.6846,11.6193,11.5682,0.0,11.4586,11.5175,11.5752,11.5984,11.6915,11.7729,11.7962,11.8427,11.8141,11.6682,11.6508,11.6164,11.5408,11.3425,0.0,0.0,0.0,11.1331,10.8714,10.8655,0.0,0.0,0.0,9.2776,9.2543,8.9215,0.0,0.0,8.24,8.1471,0.0,0.0,0.0,0.0,0.0,0.0,0.0,0.0,0.0,0.0,0.0,0.0,0.0,0.0,0.0,0.0,0.0,7.5634,7.4685,7.9226,8.2741,8.3259,8.3221,8.4488,8.781,8.7906,8.9793,9.4698,9.7132,9.849,9.8967,10.1577,10.3561,10.4551,10.4761,10.5357,10.6392,10.6248,10.6152,10.6152,10.6152,10.6152,10.6152,10.6152,10.5254,10.3836,10.5596,10.6031,10.5575,10.7377,10.8615,10.9255,10.7676,10.7087,10.735,10.9422,11.1132,11.2148,11.1132,11.0772,11.0973,11.1949,11.2338,11.2583,11.3996,11.4677,11.5077,11.5077,11.534,11.5669,11.5669,11.5669,11.5669,11.5669,11.6853,11.7522,11.6043,11.6265,11.6484,11.5349,11.4043,11.3207,11.3688,11.3779,11.4123,11.5054,11.581,11.6508,11.7094,11.7497,11.6651,11.3883,11.3599,11.3201,11.228,11.1244,11.1897,11.471,11.36,11.2262,11.104,10.8946,10.5922,10.1908,9.3125,8.7599,0.0,0.0,0.0,0.0,0.0,0.0,0.0,0.0,0.0,0.0,0.0,0.0,0.0,0.0,0.0,0.0,0.0,0.0,0.0,0.0,0.0,0.0,0.0,0.0,6.7404,7.4476,7.9148,7.7791,8.0942,8.2322,8.0067,8.2364,8.5362,8.8858,9.3003,9.5957,9.7366,9.9623,10.242,10.5965,10.3283,10.3469,10.708,10.6424,10.6152,10.6152,10.6152,10.6152,10.6152,10.6152,10.6112,10.609,10.682,10.7042,10.7091,10.7953,10.8296,10.8033,10.5213,10.4161,10.4161,10.4227,10.5148,10.6397,10.6365,10.6365,10.6334,10.6217,10.6282,10.6631,10.7991,10.9411,11.0606,11.0606,11.1592,11.268,11.268,11.268,11.268,11.268,11.3762,11.5172,11.6479,11.6018,11.5716,11.702,11.331,11.0484,11.2141,11.1705,11.1098,11.1157,11.3309,0.0,11.3257,11.4239,11.3821,11.067,11.0395,11.0339,11.0339,10.6926,10.7694,11.4489,11.0226,10.8539,11.0866,10.3828,9.9245,9.7805,9.2617,8.8082,8.4206,0.0,0.0,0.0,0.0,0.0,0.0,0.0,0.0,0.0,0.0,0.0,0.0,0.0,0.0,0.0,0.0,0.0,0.0,0.0,0.0,0.0,0.0,0.0,0.0,0.0,7.6906,7.6386,7.835,7.8994,7.7246,7.7908,8.0186,8.4144,8.7684,9.0644,9.3012,9.6508,9.9481,10.1696,10.2698,10.3846,10.5021,10.4852,10.4694,10.4694,10.4694,10.5246,10.6122,10.6122,10.5849,10.5398,10.6099,10.5624,10.4321,10.5127,10.3142,9.9527,9.8572,9.8243,9.8432,10.0238,10.1291,10.1988,10.3797,10.4574,10.4654,10.4483,10.3766,10.3261,10.4722,10.6116,10.723,10.7491,10.9212,11.0807,10.996,11.0408,11.0869,10.9948,11.0045,11.0571,11.1031,11.1644,11.2255,11.3055,11.0197,10.7029,10.4658,10.8508,11.0581,10.6513,11.0342,11.3774,11.4129,11.2778,11.1383,11.034,10.845,10.7264,10.7264,10.7902,10.8931,11.0519,11.0075,10.9004,10.7318,10.3944,10.0687,9.7631,9.5161,8.8123,7.6512,0.0,0.0,0.0,0.0,0.0,0.0,0.0,0.0,0.0,0.0,0.0,0.0,0.0,0.0,0.0,0.0,0.0,0.0,0.0,0.0,0.0,0.0,0.0,0.0,0.0,0.0,7.3452,7.4241,0.0,7.0713,7.111,7.2565,7.4793,7.9385,8.3172,8.5569,8.9983,9.3401,9.5349,9.8494,10.0316,10.0873,10.2386,10.3175,10.3175,10.3767,10.449,10.5345,10.5345,10.5067,10.4612,10.4548,10.34,10.1475,9.9413,9.6073,9.2091,9.1408,9.1114,9.1403,9.3459,9.5421,9.7245,9.9563,10.0536,10.072,10.0515,9.8371,9.6022,9.7394,9.7977,9.8625,10.1126,10.3584,10.5677,10.7121,10.7787,10.791,10.6955,10.7152,10.7515,10.7515,10.7844,10.8024,10.7716,10.6005,10.3315,9.9348,10.2746,10.5128,10.2455,10.6329,11.0227,11.2241,11.1209,10.9399,10.7209,10.5203,10.3775,10.2987,10.5999,10.757,10.6702,10.852,10.8132,10.4816,10.2955,9.9581,9.4303,9.2543,8.4788,0.0,0.0,0.0,0.0,0.0,0.0,0.0,0.0,0.0,0.0,0.0,0.0,0.0,0.0,0.0,0.0,0.0,0.0,0.0,0.0,0.0,0.0,0.0,0.0,0.0,0.0,0.0,6.8543,6.8608,0.0,0.0,0.0,0.0,6.1313,6.8532,7.3784,7.5521,8.0262,8.4383,8.7399,9.0773,9.3209,9.4692,9.8769,10.0808,10.0939,10.2452,10.3175,10.3372,10.3372,10.3438,10.3504,10.1925,10.0447,9.8607,9.1244,8.7261,8.5752,8.3621,8.2841,8.3014,8.4104,8.7336,9.1353,9.3235,9.4039,9.4212,9.3916,8.9849,8.5261,8.6035,8.5171,0.0,0.0,9.4341,9.7234,10.3515,10.4285,10.3569,10.3733,10.4819,10.5839,10.5839,10.4819,10.3241,10.1202,10.0288,9.8763,9.5269,0.0,9.5214,9.8077,10.1094,10.4214,10.7535,10.9005,10.7495,10.1726,10.0886,9.9904,9.7702,10.1154,10.3227,10.2909,10.5386,10.5825,10.341,10.057,9.5524,8.8006,8.504,0.0,0.0,0.0,0.0,0.0,0.0,0.0,0.0,0.0,0.0,0.0,0.0,0.0,0.0,0.0,0.0,0.0,0.0,0.0,0.0,0.0,0.0,0.0,0.0,0.0,0.0,5.4628,6.0807,5.9793,6.061,5.8507,0.0,0.0,0.0,0.0,0.0,0.0,6.6859,7.189,7.6234,7.9709,8.2787,8.5301,8.7102,8.822,8.9366,9.0512,9.0907,9.2222,9.4298,9.4298,9.5481,9.7388,9.5911,9.5122,9.3939,8.3447,7.7685,7.5214,7.2895,7.1348,7.0967,7.4842,7.6445,7.7549,8.3542,8.579,8.5101,8.0597,7.9387,7.8512,7.1965,0.0,0.0,0.0,0.0,8.5642,9.2115,9.5369,9.7556,9.9953,10.0863,10.1236,10.1236,10.1794,9.9624,9.0521,8.8679,8.5861,7.7545,8.2531,0.0,8.5319,9.2184,9.9067,10.3511,10.2997,10.1922,10.1195,9.8281,9.5874,9.444,9.6638,9.8202,9.8297,10.0253,10.156,10.1978,9.5859,9.0175,8.5389,0.0,0.0,0.0,0.0,0.0,0.0,0.0,0.0,0.0,0.0,0.0,0.0,0.0,0.0,0.0,0.0,0.0,0.0,0.0,0.0,0.0,0.0,0.0,0.0,0.0,0.0,0.0,4.7741,5.3676,5.3478,5.2524,5.0042,0.0,0.0,0.0,0.0,0.0,0.0,0.0,0.0,0.0,6.9177,7.2405,7.4952,7.6758,7.9687,8.157,8.2456,8.3986,8.5579,8.7157,8.7157,8.8379,9.0389,8.8971,8.7139,8.4571,7.6627,7.0867,6.6866,0.0,0.0,0.0,0.0,6.6267,6.7555,7.2445,7.4335,7.396,7.0567,0.0,0.0,0.0,0.0,0.0,0.0,0.0,7.6535,8.3638,8.8088,9.1341,9.3862,9.5158,9.5613,9.4991,9.1229,8.5913,7.9091,7.7176,7.4536,6.7585,7.2056,0.0,0.0,0.0,9.1424,9.6889,9.8755,9.941,9.9067,9.6543,9.4065,9.1954,9.4001,9.5102,9.4401,9.7034,9.7937,9.6482,9.064,8.3257,0.0,0.0,0.0,0.0,0.0,0.0,0.0,0.0,0.0,0.0,0.0,0.0,0.0,0.0,0.0,0.0,0.0,0.0,0.0,0.0,0.0,0.0,0.0,0.0,0.0,0.0,0.0,0.0,0.0,4.6257,4.7872,0.0,0.0,0.0,0.0,0.0,0.0,0.0,0.0,0.0,0.0,0.0,0.0,0.0,6.335,6.5543,7.1043,7.4265,7.509,7.8114,7.9801,8.0222,8.0444,8.1435,8.2797,7.9999,0.0,7.3077,6.9303,0.0,0.0,0.0,0.0,0.0,0.0,0.0,0.0,0.0,0.0,0.0,0.0,0.0,0.0,0.0,0.0,0.0,0.0,0.0,0.0,0.0,0.0,8.4055,8.5884,8.7976,8.8711,8.554,7.6717,6.8922,6.7266,6.6066,6.4292,0.0,0.0,0.0,0.0,0.0,0.0,8.9377,9.5028,9.7798,9.6169,9.509,9.3125,9.005,9.1933,9.2739,9.1612,9.3714,9.3286,8.9413,8.4885,0.0,0.0,0.0,0.0,0.0,0.0,0.0,0.0,0.0,0.0,0.0,0.0,0.0,0.0,0.0,0.0,0.0,0.0,0.0,0.0,0.0,0.0,0.0,0.0,0.0,0.0,0.0,0.0,0.0,0.0,0.0,0.0,0.0,0.0,0.0,0.0,0.0,0.0,0.0,0.0,0.0,0.0,0.0,0.0,0.0,0.0,0.0,0.0,0.0,0.0,6.5552,6.7186,6.9742,7.1058,7.3128,7.5113,6.4827,6.2024,6.4251,5.751,0.0,0.0,0.0,0.0,0.0,0.0,0.0,0.0,0.0,0.0,0.0,0.0,0.0,0.0,0.0,0.0,0.0,0.0,0.0,0.0,0.0,0.0,7.2186,7.5042,7.9081,7.8891,6.6504,0.0,0.0,0.0,0.0,0.0,0.0,0.0,0.0,0.0,0.0,0.0,8.4231,8.9699,9.3139,9.3625,9.2783,9.1162,8.8879,8.8261,8.903,9.1354,8.5276,8.2612,0.0,0.0,0.0,0.0,0.0,0.0,0.0,0.0,0.0,0.0,0.0,0.0,0.0,0.0,0.0,0.0,0.0,0.0,0.0,0.0,0.0,0.0,0.0,0.0,0.0,0.0,0.0,0.0,0.0,0.0,0.0,0.0,0.0,0.0,0.0,0.0,0.0,0.0,0.0,0.0,0.0,0.0,0.0,0.0,0.0,0.0,0.0,0.0,0.0,0.0,0.0,0.0,0.0,0.0,0.0,0.0,0.0,0.0,5.7987,5.4159,0.0,0.0,0.0,0.0,0.0,0.0,0.0,0.0,0.0,0.0,0.0,0.0,0.0,0.0,0.0,0.0,0.0,0.0,0.0,0.0,0.0,0.0,0.0,0.0,0.0,0.0,0.0,0.0,0.0,0.0,0.0,0.0,0.0,0.0,0.0,0.0,0.0,0.0,0.0,0.0,7.9503,8.6921,9.1943,9.3027,9.2138,9.0723,8.8586,8.7415,8.6085,8.459,7.9842,0.0,0.0,0.0,0.0,0.0,0.0,0.0,0.0,0.0,0.0,0.0,0.0,0.0,0.0,0.0,0.0,0.0,0.0,0.0,0.0,0.0,0.0,0.0,0.0,0.0,0.0,0.0,0.0,0.0,0.0,0.0,0.0,0.0,0.0,0.0,0.0,0.0,0.0,0.0,0.0,0.0,0.0,0.0,0.0,0.0,0.0,0.0,0.0,0.0,0.0,0.0,0.0,0.0,0.0,0.0,0.0,0.0,0.0,0.0,5.15,4.7465,0.0,0.0,0.0,0.0,0.0,0.0,0.0,0.0,0.0,0.0,0.0,0.0,0.0,0.0,0.0,0.0,0.0,0.0,0.0,0.0,0.0,0.0,0.0,0.0,0.0,0.0,0.0,0.0,0.0,0.0,0.0,0.0,0.0,0.0,0.0,0.0,0.0,0.0,0.0,0.0,7.6044,8.5212,9.1504,9.2393,9.1699,9.0333,8.8244,8.7268,8.4203,7.8308,7.5066,0.0,0.0,0.0,0.0,0.0,0.0,0.0,0.0,0.0,0.0,0.0,0.0,0.0,0.0,0.0,0.0,0.0,0.0,0.0,0.0,0.0,0.0,0.0,0.0,0.0,0.0,0.0,0.0,0.0,0.0,0.0,0.0,0.0,0.0,0.0,0.0,0.0,0.0,0.0,0.0,0.0,0.0,0.0,0.0,0.0,0.0,0.0,0.0,0.0,0.0,0.0,0.0,0.0,0.0,0.0,0.0,0.0,0.0,0.0,0.0,0.0,0.0,0.0,0.0,0.0,0.0,0.0,0.0,0.0,0.0,0.0,0.0,0.0,0.0,0.0,0.0,0.0,0.0,0.0,0.0,0.0,0.0,0.0,0.0,0.0,0.0,0.0,0.0,0.0,0.0,0.0,0.0,0.0,0.0,0.0,0.0,0.0,0.0,0.0,0.0,0.0,7.4919,8.4193,9.0197,9.0294,9.0187,8.9269,8.7016,8.6724,8.4203,7.8308,0.0,0.0,0.0,0.0,0.0,0.0,0.0,0.0,0.0,0.0,0.0,0.0,0.0,0.0,0.0,0.0,0.0,0.0,0.0,0.0,0.0,0.0,0.0,0.0,0.0,0.0,0.0,0.0,0.0,0.0,0.0,0.0,0.0,0.0,0.0,0.0,0.0,0.0,0.0,0.0,0.0,0.0,0.0,0.0,0.0,0.0,0.0,0.0,0.0,0.0,0.0,0.0,0.0,0.0,0.0,0.0,0.0,0.0,0.0,0.0,0.0,0.0,0.0,0.0,0.0,0.0,0.0,0.0,0.0,0.0,0.0,0.0,0.0,0.0,0.0,0.0,0.0,0.0,0.0,0.0,0.0,0.0,0.0,0.0,0.0,0.0,0.0,0.0,0.0,0.0,0.0,0.0,0.0,0.0,0.0,0.0,0.0,0.0,0.0,0.0,0.0,0.0,7.3746,8.3608,9.0001,9.0001,9.0001,8.9123,8.687,8.609,8.1199,7.041,0.0,0.0,0.0,0.0,0.0,0.0,0.0,0.0,0.0,0.0,0.0,0.0,0.0,0.0,0.0,0.0,0.0,0.0,0.0,0.0,0.0,0.0,0.0,0.0,0.0,0.0,0.0,0.0,0.0,0.0,0.0,0.0,0.0,0.0,0.0,0.0,0.0,0.0,0.0,0.0,0.0,0.0,0.0,0.0,0.0,0.0,0.0,0.0,0.0,0.0,0.0,0.0,0.0,0.0,0.0,0.0,0.0,0.0,0.0,0.0,0.0,0.0,0.0,0.0,0.0,0.0,0.0,0.0,0.0,0.0,0.0,0.0,0.0,0.0,0.0,0.0,0.0,0.0,0.0,0.0,0.0,0.0,0.0,0.0,0.0,0.0,0.0,0.0,0.0,0.0,0.0,0.0,0.0,0.0,0.0,0.0,0.0,0.0,0.0,0.0,0.0,0.0,7.3113,8.3315,9.0001,9.0001,9.0001,8.9123,8.687,8.5755,7.9312,6.5689,0.0,0.0,0.0,0.0,0.0,0.0,0.0,0.0,0.0,0.0,0.0,0.0,0.0,0.0,0.0,0.0,0.0,0.0,0.0,0.0,0.0,0.0,0.0,0.0,0.0,0.0,0.0,0.0,0.0,0.0,0.0,0.0,0.0,0.0,0.0,0.0,0.0,0.0,0.0,0.0,0.0,0.0,0.0,0.0,0.0,0.0,0.0,0.0,0.0,0.0,0.0,0.0,0.0,0.0,0.0,0.0,0.0,0.0,0.0,0.0,0.0,0.0,0.0,0.0,0.0,0.0,0.0,0.0,0.0,0.0,0.0,0.0,0.0,0.0,0.0,0.0,0.0,0.0,0.0,0.0,0.0,0.0,0.0,0.0,0.0,0.0,0.0,0.0,0.0,0.0,0.0,0.0,0.0,0.0,0.0,0.0,0.0,0.0,0.0,0.0,0.0,0.0,7.3159,8.3315,9.0001,9.0001,9.0001,8.9123,8.687,8.5755,7.9654,0.0,0.0,0.0,0.0,0.0,0.0,0.0,0.0,0.0,0.0,0.0,0.0,0.0,0.0,0.0,0.0,0.0,0.0,0.0,0.0,0.0,0.0,0.0,0.0,0.0,0.0,0.0,0.0,0.0,0.0,0.0,0.0,0.0,0.0,0.0,0.0,0.0,0.0,0.0,0.0,0.0,0.0,0.0,0.0,0.0,0.0,0.0,0.0,0.0,0.0,0.0,0.0,0.0,0.0,0.0,0.0,0.0,0.0,0.0,0.0,0.0,0.0,0.0,0.0,0.0,0.0,0.0,0.0,0.0,0.0,0.0,0.0,0.0,0.0,0.0,0.0,0.0,0.0,0.0,0.0,0.0,0.0,0.0,0.0,0.0,0.0,0.0,0.0,0.0,0.0,0.0,0.0,0.0,0.0,0.0,0.0,0.0,0.0,0.0,0.0,0.0,0.0,0.0,7.0805,7.9266,8.5957,0.0,9.0001,8.9123,8.687,8.5072,7.8873,6.6671,0.0,0.0,0.0,0.0,0.0,0.0,0.0,0.0,0.0,0.0,0.0,0.0,0.0,0.0,0.0,0.0,0.0,0.0,0.0,0.0,0.0,0.0,0.0,0.0,0.0,0.0,0.0,0.0,0.0,0.0,0.0,0.0,0.0,0.0,0.0,0.0,0.0,0.0,0.0,0.0,0.0,0.0,0.0,0.0,0.0,0.0,0.0,0.0,0.0,0.0,0.0,0.0,0.0,0.0,0.0,0.0,0.0,0.0,0.0,0.0,0.0,0.0,0.0,0.0,0.0,0.0,0.0,0.0,0.0,0.0,0.0,0.0,0.0,0.0,0.0,0.0,0.0,0.0,0.0,0.0,0.0,0.0,0.0,0.0,0.0,0.0,0.0,0.0,0.0,0.0,0.0,0.0,0.0,0.0,0.0,0.0,0.0,0.0,0.0,0.0,0.0,0.0,0.0,7.8387,8.5365,0.0,9.0001,8.8976,8.6285,8.4535,7.8534,6.6671,0.0,0.0,0.0,0.0,0.0,0.0,0.0,0.0,0.0,0.0,0.0,0.0,0.0,0.0,0.0,0.0,0.0,0.0,0.0,0.0,0.0,0.0,0.0,0.0,0.0,0.0,0.0,0.0,0.0,0.0,0.0,0.0,0.0,0.0,0.0,0.0,0.0,0.0,0.0,0.0,0.0,0.0,0.0,0.0,0.0,0.0,0.0,0.0,0.0,0.0,0.0,0.0,0.0,0.0,0.0,0.0,0.0,0.0,0.0,0.0,0.0,0.0,0.0,0.0,0.0,0.0,0.0,0.0,0.0,0.0,0.0,0.0,0.0,0.0,0.0,0.0,0.0,0.0,0.0,0.0,0.0,0.0,0.0,0.0,0.0,0.0,0.0,0.0,0.0,0.0,0.0,0.0,0.0,0.0,0.0,0.0,0.0,0.0,0.0,0.0,0.0,0.0,0.0,7.9752,8.7065,8.966,8.9904,8.8586,8.5413,8.3998,7.8387,6.6622,5.9702,0.0,0.0,0.0,0.0,0.0,0.0,0.0,0.0,0.0,0.0,0.0,0.0,0.0,0.0,0.0,0.0,0.0,0.0,0.0,0.0,0.0,0.0,0.0,0.0,0.0,0.0,0.0,0.0,0.0,0.0,0.0,0.0,0.0,0.0,0.0,0.0,0.0,0.0,0.0,0.0,0.0,0.0,0.0,0.0,0.0,0.0,0.0,0.0,0.0,0.0,0.0,0.0,0.0,0.0,0.0,0.0,0.0,0.0,0.0,0.0,0.0,0.0,0.0,0.0,0.0,0.0,0.0,0.0,0.0,0.0,0.0,0.0,0.0,0.0,0.0,0.0,0.0,0.0,0.0,0.0,0.0,0.0,0.0,0.0,0.0,0.0,0.0,0.0,0.0,0.0,0.0,0.0,0.0,0.0,0.0,0.0,0.0,0.0,0.0,0.0,0.0,0.0,7.653,8.2729,8.8195,8.8781,8.7805,8.5365,8.2626,7.6725,6.6525,5.9057,0.0,0.0,0.0,0.0,0.0,0.0,0.0,0.0,0.0,0.0,0.0,0.0,0.0,0.0,0.0,0.0,0.0,0.0,0.0,0.0,0.0,0.0,0.0,0.0,0.0,0.0,0.0,0.0,0.0,0.0,0.0,0.0,0.0,0.0,0.0,0.0,0.0,0.0,0.0,0.0,0.0,0.0,0.0,0.0,0.0,0.0,0.0,0.0,0.0,0.0,0.0,0.0,0.0,0.0,0.0,0.0,0.0,0.0,0.0,0.0,0.0,0.0,0.0,0.0,0.0,0.0,0.0,0.0,0.0,0.0,0.0,0.0,0.0,0.0,0.0,0.0,0.0,0.0,0.0,0.0,0.0,0.0,0.0,0.0,0.0,0.0,0.0,0.0,0.0,0.0,0.0,0.0,0.0,0.0,0.0,0.0,0.0,0.0,0.0,0.0,0.0,0.0,6.8904,7.6043,8.586,8.6926,8.5495,8.2054,7.9943,7.4383,6.3881,5.6434,0.0,0.0,0.0,0.0,0.0,0.0,0.0,0.0,0.0,0.0,0.0,0.0,0.0,0.0,0.0,0.0,0.0,0.0,0.0,0.0,0.0,0.0,0.0,0.0,0.0,0.0,0.0,0.0,0.0,0.0,0.0,0.0,0.0,0.0,0.0,0.0,0.0,0.0,0.0,0.0,0.0,0.0,0.0,0.0,0.0,0.0,0.0,0.0,0.0,0.0,0.0,0.0,0.0,0.0,0.0,0.0,0.0,0.0,0.0,0.0,0.0,0.0,0.0,0.0,0.0,0.0,0.0,0.0,0.0,0.0,0.0,0.0,0.0,0.0,0.0,0.0,0.0,0.0,0.0,0.0,0.0,0.0,0.0,0.0,0.0,0.0,0.0,0.0,0.0,0.0,0.0,0.0,0.0,0.0,0.0,0.0,0.0,0.0,0.0,0.0,0.0,0.0,0.0,6.9337,8.1863,8.4047,8.2783,7.8052,7.7056,7.1822,6.0454,0.0,0.0,0.0,0.0,0.0,0.0,0.0,0.0,0.0,0.0,0.0,0.0,0.0,0.0,0.0,0.0,0.0,0.0,0.0,0.0,0.0,0.0,0.0,0.0,0.0,0.0,0.0,0.0,0.0,0.0,0.0,0.0,0.0,0.0,0.0,0.0,0.0,0.0,0.0,0.0,0.0,0.0,0.0,0.0,0.0,0.0,0.0,0.0,0.0,0.0,0.0,0.0,0.0,0.0,0.0,0.0,0.0,0.0,0.0,0.0,0.0,0.0,0.0,0.0,0.0,0.0,0.0,0.0,0.0,0.0,0.0,0.0,0.0,0.0,0.0,0.0,0.0,0.0,0.0,0.0,0.0,0.0,0.0,0.0,0.0,0.0,0.0,0.0,0.0,0.0,0.0,0.0,0.0,0.0,0.0,0.0,0.0,0.0,0.0,0.0,0.0,0.0,0.0,0.0,6.7078,7.3599,7.9217,8.111,7.7581,7.5454,6.9759,5.8914,0.0,0.0,0.0,0.0,0.0,0.0,0.0,0.0,0.0,0.0,0.0,0.0,0.0,0.0]}],[{"header":{"parameterUnit":"kt","parameterCategory":2,"dx":1,"dy":1,"la1":29.285339999999998,"la2":30.599998999999997,"lo1":-89.70041500000002,"lo2":-87.6738589999976,"nx":112,"ny":82,"refTime":"2022-10-03T00:00:00:Z","depth":0,"parameterNumber":2,"parameterNumberName":"V-component_of_WINDS"},"data":[8.9262,9.0615,9.0521,8.279,8.3053,8.2921,7.4265,7.5317,7.7135,0.0,0.0,0.0,0.0,0.0,0.0,0.0,0.0,0.0,0.0,0.0,0.0,0.0,0.0,0.0,0.0,0.0,0.0,0.0,0.0,0.0,0.0,11.4202,11.6824,11.6071,11.9483,12.1297,12.1297,12.1297,12.1297,12.1297,12.1297,12.1297,12.1297,12.1297,12.1297,12.1297,12.1297,12.1297,12.1297,12.0732,12.0798,12.1193,12.0732,12.0836,12.1297,12.1297,12.093,12.0601,12.1165,12.093,12.0535,12.0535,12.0535,12.0272,11.876,11.8299,11.8234,11.7773,11.7642,11.7773,11.8299,11.6918,11.5472,11.5472,11.4647,11.4354,11.5735,11.7576,11.9812,12.2864,12.4941,12.6651,12.8229,12.9281,12.9832,12.9832,12.9832,12.9832,12.9832,12.9832,12.9832,12.9832,12.9832,12.9832,12.9832,12.9832,12.9832,12.9832,12.9832,12.9832,12.9832,12.9832,13.0226,13.1188,13.1714,13.2503,13.349,13.5002,13.5199,13.4344,13.5265,13.5965,8.6407,8.7985,8.8154,7.9937,7.9699,7.9568,0.0,0.0,0.0,0.0,0.0,0.0,0.0,0.0,0.0,0.0,0.0,0.0,0.0,0.0,0.0,0.0,0.0,0.0,0.0,0.0,0.0,0.0,9.4012,0.0,11.1413,11.6282,11.8168,11.686,11.9746,12.1297,12.1297,12.1297,12.1297,12.1297,12.1297,12.1297,12.1297,12.1297,12.1297,12.1297,12.1297,12.1297,12.1297,12.1297,12.1297,12.1297,12.1297,12.1297,12.1297,12.1297,12.1297,12.1231,12.0732,12.0535,12.0667,12.1127,12.1297,12.1165,12.0141,11.9878,11.968,11.8628,11.8365,11.8234,11.7708,11.6524,11.537,11.537,11.4647,11.4617,11.705,11.876,12.0469,12.2929,12.5007,12.6585,12.7546,12.8886,12.9832,12.9832,12.9832,12.9832,12.9832,12.9832,12.9832,12.9832,12.9832,12.9832,12.9832,12.9832,12.9832,12.9832,12.9832,12.9832,12.9832,12.9832,13.0292,13.1254,13.1254,13.178,13.2832,13.4213,13.441,13.3555,13.6054,13.7172,0.0,8.4144,8.2567,7.5467,0.0,0.0,0.0,0.0,7.2314,0.0,0.0,0.0,0.0,0.0,0.0,0.0,0.0,0.0,0.0,0.0,0.0,0.0,0.0,0.0,0.0,8.2853,8.3927,0.0,9.6181,9.8103,11.4265,11.9345,12.0182,11.6897,11.9746,12.1297,12.1297,12.1297,12.1297,12.1297,12.1297,12.1297,12.1297,12.1297,12.1297,12.1297,12.1297,12.1297,12.1297,12.1297,12.1297,12.1297,12.1297,12.1297,12.1297,12.1297,12.1297,12.1099,11.968,11.922,11.9483,12.0836,12.1297,12.1297,12.1297,12.1297,12.1297,12.1297,12.1297,12.0968,11.9483,11.7971,11.6918,11.6787,11.4683,11.3894,11.8234,11.8036,11.8234,12.2535,12.3455,12.4376,12.7177,12.8821,12.9766,12.9832,12.9832,12.9832,12.9832,12.9832,12.9832,12.9832,12.9832,12.9832,12.9832,12.9832,12.9832,12.9832,12.9832,12.9832,12.9832,12.9832,12.9832,12.9832,12.9832,12.9832,12.9898,13.1385,13.2109,13.224,13.658,13.8575,7.9436,0.0,0.0,0.0,0.0,0.0,0.0,0.0,0.0,0.0,0.0,0.0,0.0,0.0,0.0,0.0,0.0,7.4547,0.0,0.0,0.0,0.0,0.0,0.0,0.0,9.7592,10.0645,11.2895,10.618,10.6025,11.6183,11.9895,12.0182,11.6897,11.9746,12.1297,12.1297,12.1297,12.1297,12.1297,12.1297,12.1297,12.1297,12.1297,12.1297,12.1297,12.1297,12.1297,12.1297,12.1297,12.1297,12.1297,12.1297,12.1297,12.1297,12.1297,12.1297,12.1231,12.0836,12.0732,12.0732,12.1165,12.1297,12.1297,12.1297,12.1297,12.1297,12.1297,12.1297,12.0705,11.8102,11.7971,11.7971,11.5801,11.6327,11.7708,11.8891,11.9615,12.0404,12.1653,12.356,12.527,12.5993,12.7308,12.8623,12.97,12.9832,12.9832,12.9832,12.9832,12.9832,12.9832,12.9832,12.9832,12.9832,12.9832,12.9832,12.9832,12.9832,12.9832,12.9832,12.9832,12.9832,12.9832,12.9832,13.0399,13.1385,13.2963,13.4213,13.5265,13.7567,13.8575,0.0,0.0,0.0,0.0,0.0,0.0,7.2005,0.0,7.0888,0.0,0.0,0.0,0.0,0.0,0.0,0.0,7.6545,0.0,0.0,0.0,9.27,0.0,0.0,0.0,10.5244,10.4816,10.8312,11.766,11.1166,10.9857,11.7039,11.9291,11.9507,11.7505,11.9953,12.1297,12.1297,12.1297,12.1297,12.1297,12.1297,12.1297,12.1297,12.1297,12.1297,12.1297,12.1297,12.1297,12.1297,12.1297,12.1297,12.1297,12.1297,12.1297,12.1297,12.1297,12.1297,12.1297,12.1297,12.0864,12.0469,12.1061,12.1297,12.1297,12.1297,12.1297,12.1297,12.1297,12.1297,12.077,11.8431,11.8497,11.8694,11.6947,11.7379,11.8497,11.9746,12.0206,12.0732,12.1982,12.356,12.5072,12.6256,12.7637,12.8886,12.97,12.9832,12.9832,12.9832,12.9832,12.9832,12.9832,12.9832,12.9832,12.9832,12.9832,12.9832,12.9832,12.9832,12.9832,12.9832,12.9832,12.9832,12.9832,13.0424,13.1188,13.1977,13.4147,13.5923,13.7369,13.8224,13.8575,0.0,0.0,0.0,0.0,7.5072,0.0,0.0,0.0,7.2357,7.3738,0.0,0.0,0.0,0.0,0.0,0.0,0.0,0.0,7.8851,8.9947,9.8818,9.8762,10.9664,11.5073,10.9882,10.8191,11.0881,11.9372,11.3592,11.1999,11.7305,11.8047,11.8362,11.8384,12.0263,12.1335,12.1297,12.1297,12.1297,12.1297,12.1297,12.1297,12.1297,12.1297,12.1297,12.1297,12.1297,12.1297,12.1297,12.1297,12.1297,12.1297,12.1297,12.1297,12.1297,12.1297,12.1231,12.1099,12.1099,12.0075,11.9088,12.0338,12.0864,12.1099,12.1099,12.1165,12.1297,12.1297,12.1297,12.093,11.9549,11.9286,11.9351,11.922,11.8365,11.8299,12.093,12.0667,12.0667,12.3192,12.3784,12.4809,12.7506,12.9018,12.9832,12.9832,12.9832,12.9832,12.9832,12.9832,12.9832,12.9832,12.9832,12.9832,12.9832,12.9832,12.9832,12.9832,12.9832,12.9832,12.9832,12.9832,12.9832,12.9832,13.1254,13.2043,13.224,13.5068,13.7172,13.8575,13.8575,13.8575,0.0,0.0,0.0,0.0,0.0,7.0625,0.0,0.0,0.0,0.0,0.0,0.0,0.0,8.5513,8.3934,8.4565,9.3748,0.0,0.0,10.1362,0.0,10.9877,11.3197,11.6049,11.7352,11.7231,11.8302,12.1417,12.0204,11.9163,11.8724,11.7719,11.7547,11.8384,12.0291,12.1299,12.1297,12.1297,12.1297,12.1297,12.1297,12.1297,12.1297,12.1297,12.1297,12.1297,12.1297,12.1297,12.1297,12.1297,12.1297,12.1297,12.1297,12.1297,12.1297,12.1297,12.0535,11.9549,11.9549,11.8562,11.7313,11.7576,11.8562,11.9549,11.9549,12.0338,12.1297,12.1297,12.1297,12.093,11.9549,12.0009,12.0601,11.9417,12.0732,12.2338,12.2864,12.3692,12.4481,12.5072,12.6125,12.744,12.9149,12.9635,12.9832,12.9832,12.9832,12.9832,12.9832,12.9832,12.9832,12.9832,12.9832,12.9832,12.9832,12.9832,12.9832,12.9832,12.9832,12.9832,12.9832,12.9832,12.9832,12.9832,13.1254,13.2635,13.3884,13.5594,13.7172,13.8575,13.8575,13.8575,0.0,0.0,0.0,6.8259,0.0,0.0,0.0,7.3649,7.7003,8.4933,8.4828,8.4894,9.0052,8.9262,8.7985,8.8708,9.6834,10.2298,9.9957,10.8012,11.3519,11.1954,11.5117,11.7697,11.8532,11.9984,12.1198,12.2043,12.208,12.0903,11.8317,11.7478,11.7294,11.7571,11.8534,11.9812,12.1258,12.1297,12.1297,12.1297,12.1297,12.1297,12.1297,12.1297,12.1297,12.1297,12.1297,12.1297,12.1297,12.1297,12.1297,12.1231,12.0469,12.0206,12.0141,11.9351,11.8562,11.8102,11.8891,11.8102,11.705,11.8562,11.9088,11.9286,12.0009,12.0732,12.1297,12.1297,12.1297,12.1165,12.0404,12.0732,12.1258,12.1324,12.2404,12.3653,12.431,12.5072,12.5796,12.6519,12.7769,12.9018,12.97,12.9832,12.9832,12.9832,12.9832,12.9832,12.9832,12.9832,12.9832,12.9832,12.9832,12.9832,12.9832,12.9832,12.9832,12.9832,12.9832,12.9832,12.9832,12.9832,12.9832,12.9832,13.2043,13.3884,13.5397,13.6843,13.7895,13.8575,13.8575,13.8575,0.0,0.0,0.0,0.0,0.0,0.0,6.9704,7.3255,7.7924,0.0,8.6078,8.8341,9.3077,9.2785,9.1864,9.2193,9.8409,10.3839,10.5484,11.0213,11.2709,11.0449,11.5062,11.8029,11.7117,11.9682,12.1425,12.1475,12.1505,12.02,11.7279,11.6685,11.6516,11.6531,11.6922,11.8366,12.0864,12.1165,12.1297,12.1297,12.1297,12.1297,12.1297,12.1297,12.1297,12.1297,12.1297,12.1297,12.1297,12.1297,12.1297,12.1193,12.0009,11.9417,11.9023,11.8036,11.7313,11.705,11.8628,11.8102,11.7247,11.9615,11.9878,11.9351,12.0535,12.1099,12.1297,12.1297,12.1297,12.1297,12.1297,12.1297,12.1587,12.2771,12.3494,12.4178,12.5335,12.5993,12.6716,12.79,12.9084,12.9832,12.9832,12.9832,12.9832,12.9832,12.9832,12.9832,12.9832,12.9832,12.9832,12.9832,12.9832,12.9832,12.9832,12.9832,12.9832,12.9832,12.9832,12.9832,12.9832,12.9832,12.9832,12.9832,13.2503,13.4739,13.6492,13.7895,13.8575,13.8575,13.8575,13.8575,0.0,0.0,0.0,0.0,0.0,0.0,8.4302,8.6631,8.867,10.0774,10.3405,10.3668,10.4326,10.3241,10.2715,10.403,10.6234,10.696,10.455,10.5905,10.7548,10.8553,11.1563,11.4075,11.5404,11.7785,11.9325,11.9316,11.9306,11.8352,11.6172,11.4135,11.384,11.5587,11.727,11.8617,11.9417,12.0667,12.1297,12.1297,12.1297,12.1297,12.1297,12.1297,12.1297,12.1297,12.1297,12.1297,12.1297,12.1297,12.1297,12.1258,12.1165,12.0272,11.9286,12.0404,11.9088,11.705,11.8628,11.8102,11.6918,11.7181,11.8168,11.922,11.9351,12.0272,12.1297,12.1297,12.1297,12.1297,12.1297,12.1297,12.1362,12.1456,12.3494,12.5401,12.5533,12.7571,12.9437,12.961,12.97,12.9832,12.9832,12.9832,12.9832,12.9832,12.9832,12.9832,12.9832,12.9832,12.9832,12.9832,12.9832,12.9832,12.9832,12.9832,12.9832,12.9832,12.9832,12.9832,12.9832,12.9832,12.9832,12.9832,13.1451,13.3621,13.6492,13.7895,13.8575,13.8575,13.8575,13.8575,0.0,0.0,0.0,0.0,0.0,0.0,8.1014,8.5118,8.9657,10.015,10.1597,10.2057,10.551,10.495,10.4161,10.4819,10.5473,10.5433,10.4194,10.5213,10.6697,10.8151,11.0927,11.3538,11.5411,11.6585,11.6646,11.5354,11.5259,11.486,11.4002,11.3029,11.3479,11.539,11.5946,11.716,11.9154,11.9746,12.0469,12.1297,12.1297,12.1297,12.1297,12.1297,12.1297,12.1297,12.1297,12.1297,12.1297,12.1297,12.1297,12.1231,12.0338,11.968,11.9154,11.8825,11.7905,11.705,11.8628,11.876,11.8299,11.9154,11.9878,12.0404,12.0404,12.0798,12.1297,12.1297,12.1297,12.099,11.9587,11.927,11.9464,12.0346,12.3087,12.5796,12.6651,12.8426,12.9023,12.6114,12.5585,12.6027,12.7436,12.7692,12.8181,12.9668,12.9832,12.9832,12.9832,12.9832,12.9832,12.9832,12.9832,12.9832,12.9832,12.854,12.7692,12.7692,12.7692,12.7092,12.563,12.6898,12.808,12.8944,13.0348,13.2862,13.6492,13.7895,13.8575,13.8575,13.8575,13.9035,5.0211,0.0,0.0,0.0,0.0,0.0,8.2698,8.7196,9.1893,9.9755,10.0545,10.0971,10.4819,10.4687,10.403,10.403,10.403,10.403,10.403,10.4885,10.5903,10.6985,10.991,11.2701,11.4778,11.4924,11.4252,11.2673,11.2539,11.2531,11.2518,11.2548,11.3206,11.4593,11.4653,11.5896,11.8497,11.8957,11.9878,12.1297,12.1297,12.1297,12.1297,12.1297,12.1297,12.1297,12.1297,12.1297,12.1297,12.1297,12.1297,12.1231,12.0141,11.9483,11.9088,11.8365,11.7839,11.7708,11.922,11.9746,11.9878,12.093,12.1297,12.1297,12.1297,12.1297,12.1297,12.1297,12.0809,11.9927,11.8241,11.7317,11.7178,11.8618,12.1805,12.4818,12.5503,12.6804,12.6725,12.3168,12.247,12.3013,12.4853,12.5166,12.5743,12.7521,12.8414,12.8582,12.7884,12.8958,12.9561,12.8875,12.9438,12.9627,12.8875,12.7221,12.5875,12.5211,12.5166,12.4294,12.2564,12.4491,12.6516,12.8252,13.0046,13.2802,13.6492,13.7895,13.8575,13.8575,13.8575,13.9167,0.0,0.0,0.0,7.3,7.558,8.0119,9.7125,9.8966,9.88,10.472,10.5904,10.5476,10.4293,10.403,10.403,10.403,10.403,10.403,10.403,10.403,10.4096,10.4092,10.7483,11.0527,11.2449,11.2644,11.2657,11.2583,11.2556,11.255,11.2513,11.2548,11.2614,11.2614,11.3959,11.537,11.6918,11.8431,11.9878,12.1297,12.1297,12.1297,12.1297,12.1297,12.1297,12.1297,12.1297,12.1297,12.1297,12.1297,12.1297,12.1297,12.1297,12.0338,11.9351,12.0667,12.0272,11.9286,12.0732,12.1231,12.1231,12.1258,12.1297,12.1297,12.1297,12.1297,12.1297,12.1297,11.9691,11.7851,11.7769,11.6084,11.4739,11.6064,11.9371,12.1889,12.0791,12.166,12.2657,12.2517,12.247,12.2517,12.2564,12.261,12.261,12.2704,12.4763,12.5388,12.3029,12.6876,12.8917,12.6551,12.8391,12.8875,12.6508,12.6182,12.5121,12.2688,12.261,12.2564,12.247,12.3714,12.5684,12.8272,13.0916,13.3637,13.6492,13.7895,13.8575,13.8575,13.8575,13.8575,5.5967,6.2739,7.0145,7.8095,8.371,8.9075,9.5876,9.969,10.232,10.4293,10.4687,10.4556,10.4096,10.403,10.403,10.403,10.403,10.403,10.403,10.403,10.4424,10.5665,10.9228,11.1845,11.2461,11.2573,11.4123,11.8099,11.4755,11.2537,11.255,11.2538,11.2548,11.2548,11.2973,11.3959,11.537,11.6853,11.8365,11.9878,12.0836,12.1297,12.1297,12.1297,12.1297,12.1297,12.1297,12.1297,12.1297,12.1297,12.1297,12.1297,12.1297,12.0995,12.0601,12.1165,12.1034,12.0667,12.1165,12.1297,12.1297,12.1297,12.1297,12.1297,12.1297,12.0201,11.9309,12.0809,11.8484,11.5446,11.5446,11.3752,11.2083,11.2509,11.6193,11.9521,11.9106,11.9485,11.9342,11.7733,11.743,11.7984,11.9587,11.988,12.0461,12.2236,12.3151,12.4039,12.4853,12.6377,12.7692,12.854,12.9355,12.8833,12.6377,12.461,12.2595,12.0025,11.988,11.9157,11.748,12.0289,12.3546,12.7207,12.903,13.2576,13.7895,13.8356,13.8575,13.8575,13.8575,13.9145,6.1393,6.8497,7.5345,8.3946,9.0389,9.535,9.7848,10.1334,10.403,10.403,10.403,10.403,10.403,10.4424,10.4622,10.4096,10.4523,10.4719,10.4095,10.3963,10.4418,10.5584,10.9782,11.3374,11.5469,11.3809,11.4961,12.0826,11.778,11.5084,11.3671,11.2932,11.2548,11.2548,11.2548,11.3008,11.3894,11.5866,11.7642,11.9154,12.0601,12.1297,12.1297,12.1297,12.1297,12.1297,12.1297,12.1297,12.1297,12.1297,12.1297,12.1297,12.1297,12.1297,12.1297,12.1297,12.1297,12.1297,12.1297,12.1297,12.1297,12.1297,12.1297,12.1297,12.1297,12.024,11.9349,12.0848,11.7892,11.4279,11.4279,11.1915,10.953,10.953,11.2723,11.5853,11.6292,11.6862,11.6769,11.5194,11.4879,11.5397,11.6973,11.7218,11.7824,11.9501,12.0522,12.1323,12.208,12.3703,12.5121,12.5743,12.6638,12.6202,12.364,12.1971,11.9977,11.7421,11.7218,11.675,11.5572,11.8373,12.2292,12.7343,12.8713,13.2414,13.8575,13.8575,13.8575,13.8575,13.8575,13.9408,6.5312,7.2494,7.9436,9.0718,9.5678,9.8835,10.3043,10.403,10.403,10.403,10.403,10.403,10.4096,10.5213,10.5674,10.4424,10.5637,10.6124,10.4518,10.4412,10.4428,10.4439,10.9242,11.4713,12.0291,11.5774,11.488,12.0385,12.0996,11.9371,11.5521,11.357,11.2548,11.2548,11.2548,11.2548,11.2548,11.5209,11.7444,11.9088,12.0535,12.1297,12.1297,12.1297,12.1297,12.1297,12.1297,12.1297,12.1297,12.1297,12.1297,12.1297,12.1297,12.1297,12.1297,12.1297,12.1297,12.1297,12.1297,12.1297,12.1297,12.1297,12.1297,12.1297,12.1297,12.122,12.1105,12.1105,11.7728,11.4103,11.4103,11.0689,10.7318,10.7376,10.9179,11.1273,11.2617,11.4007,11.4879,11.4879,11.4879,11.4879,11.4879,11.4879,11.4879,11.4879,11.6871,11.7623,11.5345,11.9256,12.1371,11.8998,12.0989,12.1418,11.8801,11.8553,11.7522,11.5037,11.4937,11.5519,11.6741,11.8137,12.1919,12.8553,12.9971,13.3207,13.8575,13.8575,13.8575,13.8575,13.8575,13.9408,7.2127,8.2738,9.0455,9.7717,10.0939,10.2649,10.3767,10.403,10.403,10.403,10.403,10.4359,10.5411,10.5871,10.6331,10.7087,10.6923,10.7058,10.8052,10.9444,11.0369,11.0412,11.1662,11.3115,11.4629,11.3454,11.3141,11.4712,11.6734,11.6566,11.3504,11.28,11.2548,11.2548,11.2548,11.2548,11.2548,11.3272,11.488,11.7444,12.0009,12.1297,12.1297,12.1297,12.1297,12.1297,12.1297,12.1297,12.1297,12.1297,12.1297,12.1297,12.1297,12.1297,12.1297,12.1297,12.1297,12.1297,12.1297,12.1297,12.1297,12.1297,12.1297,12.1297,12.1297,12.0045,11.8685,11.8685,11.5297,11.1688,11.1688,10.9483,10.7599,10.8531,10.9229,11.0335,11.2443,11.4007,11.4879,11.4879,11.4879,11.4879,11.4879,11.4879,11.4879,11.4879,11.5449,11.6264,11.7471,11.8811,12.0074,12.1323,12.2033,12.1418,11.8801,11.8553,11.7522,11.5037,11.581,11.645,11.6852,11.9009,12.2871,12.8553,12.9971,13.3207,13.8575,13.8575,13.8575,13.8575,13.8575,13.9934,6.9619,8.2418,9.3706,10.0084,10.2846,10.403,10.403,10.403,10.403,10.403,10.449,10.5016,10.5148,10.62,10.7188,10.7553,10.7486,10.7387,10.7191,10.8083,10.9767,11.2237,11.4803,11.5383,11.2814,11.3694,11.464,11.5063,11.4228,11.36,11.3504,11.2866,11.2548,11.2548,11.2548,11.2548,11.2548,11.2548,11.3959,11.6853,11.9812,12.1297,12.1297,12.1297,12.1297,12.1297,12.1297,12.1297,12.1297,12.1297,12.1297,12.1297,12.1297,12.1297,12.1297,12.1297,12.1297,12.1297,12.1297,12.1297,12.1297,12.1297,12.1297,12.1297,12.1297,11.9691,11.7769,11.7769,11.4391,11.0828,11.0828,10.9067,10.7434,10.824,10.9229,11.0742,11.3251,11.4356,11.4879,11.4879,11.4879,11.4879,11.4879,11.4879,11.4879,11.4879,11.4879,11.5397,11.6769,11.6973,11.7471,11.8971,11.9168,11.8524,11.7075,11.6973,11.6603,11.5799,11.6392,11.7376,11.8486,11.994,12.3466,12.9437,13.0233,13.3207,13.8575,13.8575,13.8575,13.8575,13.8575,13.9802,6.525,7.8276,9.239,9.9824,10.2846,10.403,10.403,10.403,10.403,10.403,10.5016,10.5641,10.4918,10.6529,10.7814,10.7028,10.7355,10.6852,10.4354,10.3984,10.5845,11.079,11.7259,11.8962,11.3112,11.4808,11.6467,11.7021,11.268,11.1188,11.3989,11.3302,11.2745,11.2548,11.2548,11.2548,11.2548,11.2548,11.3959,11.6853,11.9417,12.0864,12.1297,12.1297,12.1297,12.1297,12.1297,12.1297,12.1297,12.1297,12.1297,12.1297,12.1297,12.1297,12.1297,12.1297,12.1297,12.1297,12.1297,12.1297,12.1297,12.1297,12.1105,12.0809,12.0809,11.919,11.7276,11.6922,11.391,11.0736,11.041,10.8781,10.7376,10.7667,10.9412,11.1622,11.4123,11.4763,11.4879,11.4879,11.4879,11.4879,11.4879,11.4879,11.4879,11.4879,11.4879,11.4879,11.4879,11.4879,11.4879,11.4879,11.4879,11.4879,11.4879,11.4879,11.5461,11.6741,11.6973,11.8137,12.0638,12.087,12.384,12.9955,13.0056,13.2727,13.8071,13.8071,13.8334,13.8838,13.8838,13.9737,7.5581,8.3693,9.0783,9.9505,10.2846,10.403,10.403,10.403,10.403,10.403,10.4227,10.5247,10.8113,10.7783,10.722,10.7899,10.6158,10.455,10.4058,10.3992,10.438,10.5385,11.4835,11.8967,11.3133,11.2984,11.2357,11.0183,11.1263,11.1789,11.1197,11.317,11.3762,11.2614,11.2548,11.2548,11.2548,11.2548,11.3959,11.6853,11.7313,11.8891,12.1297,12.1297,12.1297,12.1297,12.1297,12.1297,12.1297,12.1297,12.1297,12.1297,12.1297,12.1297,12.1297,12.1297,12.1297,12.1297,12.1297,12.1297,12.1297,12.1297,11.9967,11.8403,11.8403,11.6777,11.4497,11.2549,11.1413,11.0363,10.8407,10.7602,10.7783,10.9877,11.0691,11.1389,11.2908,11.4123,11.4879,11.4879,11.4879,11.4879,11.4879,11.4879,11.4879,11.4879,11.4879,11.4879,11.4879,11.4879,11.4879,11.4879,11.4879,11.4879,11.4879,11.4879,11.5461,11.6741,11.7846,11.9125,12.0638,12.1743,12.387,12.7198,12.725,12.9854,13.5216,13.5216,13.7028,14.0394,14.0394,14.1775,7.0771,7.9806,8.8639,9.3765,9.8985,10.2978,10.3832,10.403,10.4227,10.495,10.5082,10.5641,10.7453,10.7616,10.7515,10.7511,10.6758,10.5706,10.4193,10.3963,10.4026,10.3976,11.1496,11.5237,11.143,11.1244,11.148,11.1592,11.2184,11.2943,11.3696,11.4318,11.4384,11.3696,11.2907,11.2548,11.2548,11.3302,11.4748,11.6853,11.7642,11.9154,12.1297,12.1297,12.1297,12.1297,12.1297,12.1297,12.1297,12.1297,12.1297,12.1297,12.1297,12.1297,12.1297,12.1297,12.1297,12.1297,12.1297,12.1297,12.1297,12.1297,12.0539,11.9587,11.9587,11.7151,11.406,11.2952,11.0875,10.8744,10.7602,10.7259,10.7725,10.9636,11.104,11.2378,11.3716,11.4472,11.4879,11.4879,11.4879,11.4879,11.4879,11.4879,11.4879,11.4879,11.4879,11.4879,11.4879,11.4879,11.4879,11.4879,11.4879,11.4879,11.4879,11.5519,11.645,11.7729,11.9067,12.0347,12.1682,12.2322,12.3889,12.6459,12.6512,12.9145,13.4548,13.5252,13.7393,14.0679,13.9961,14.0789,6.6386,7.6346,8.7064,8.9642,9.5317,10.1005,10.3832,10.4227,10.4293,10.5411,10.5411,10.5411,10.6133,10.6856,10.7483,10.7915,10.8117,10.7689,10.6038,10.4753,10.3997,10.4018,10.7977,11.0393,10.946,11.0002,11.146,11.3989,11.3762,11.4288,11.6261,11.5896,11.5304,11.4712,11.3894,11.3206,11.2548,11.3959,11.537,11.6853,11.8102,11.9549,12.1297,12.1297,12.1297,12.1297,12.1297,12.1297,12.1297,12.1297,12.1297,12.1297,12.1297,12.1297,12.1297,12.1297,12.1297,12.1297,12.1297,12.1297,12.1297,12.1297,12.0925,12.0461,11.9967,11.6839,11.3442,11.2908,11.0143,10.7259,10.7259,10.7492,10.8065,10.9345,11.1331,11.3257,11.4588,11.4879,11.4879,11.4879,11.4879,11.4879,11.4879,11.4879,11.4879,11.4879,11.4879,11.4879,11.4879,11.4879,11.4879,11.4879,11.4879,11.4996,11.5286,11.6217,11.7497,11.9125,12.0172,12.1278,12.2613,12.2672,12.3613,12.5665,12.5665,12.8146,13.3266,13.4971,13.7219,13.9881,13.935,13.9537,7.4191,8.0659,8.7015,9.2725,9.5001,9.7585,10.4359,10.495,10.403,10.4161,10.3043,10.3044,10.6126,10.5441,10.6037,11.1188,10.9869,10.9047,11.144,10.726,10.3997,10.3997,10.4488,10.5701,10.8136,10.965,11.1066,11.2614,11.5011,11.5998,11.4909,11.7379,11.751,11.4778,11.5866,11.5209,11.2614,11.3959,11.537,11.6853,11.6984,11.8562,12.1297,12.1297,12.1297,12.1297,12.1297,12.1297,12.1297,12.1297,12.1297,12.1297,12.1297,12.1297,12.1297,12.1297,12.1297,12.1297,12.1297,12.1297,12.1297,12.1297,11.9888,11.7687,11.5574,11.3176,11.0689,10.8552,10.7651,10.7259,10.7259,10.8181,10.9345,11.0517,11.1913,11.3257,11.4588,11.4879,11.4879,11.4879,11.4879,11.4879,11.4879,11.4879,11.4879,11.4879,11.4879,11.4879,11.4879,11.4879,11.4879,11.4879,11.4879,11.5345,11.6508,11.6741,11.7846,12.0405,12.0638,12.1278,12.2613,12.2672,12.2784,12.3005,12.3005,12.4967,12.9067,13.1845,13.4475,13.7066,13.9419,13.9944,6.3751,7.1559,7.9064,8.0486,8.8718,9.681,9.7889,9.8443,9.9712,10.3275,10.3504,10.3471,10.485,10.5902,10.7023,10.8442,10.9899,11.063,11.0037,10.8048,10.5967,10.4186,10.5006,10.6323,10.8104,11.0343,11.2315,11.3762,11.659,11.8365,11.8628,11.8957,11.8628,11.7444,11.705,11.6261,11.5143,11.6655,11.7642,11.8234,11.9088,12.0178,12.122,11.9849,11.919,11.919,11.919,11.919,11.9309,12.0694,12.1297,12.1297,12.1297,12.1297,12.1297,12.1297,12.1297,12.1297,12.1297,12.1297,12.1297,12.1297,12.0655,11.9468,11.7151,11.48,11.2414,11.0096,10.8359,10.7259,10.7259,10.8298,10.9753,11.168,11.3192,11.4298,11.4763,11.4879,11.4879,11.4879,11.4879,11.4879,11.4879,11.4879,11.4879,11.4879,11.4879,11.4879,11.4879,11.4879,11.4879,11.4879,11.5577,11.6217,11.6794,11.8253,11.9591,12.0638,12.1452,12.2148,12.2672,12.2672,12.2672,12.2672,12.3313,12.5298,12.8499,13.1254,13.3978,13.6609,13.6836,13.672,5.7327,6.48,7.2589,7.2198,8.1933,9.1663,9.1756,9.2153,9.414,9.9864,10.111,10.1801,10.3669,10.564,10.6955,10.6792,10.9694,11.1379,10.9757,10.9064,10.7905,10.5886,10.7334,10.8852,11.0045,11.2776,11.5077,11.6524,11.8628,12.0206,12.1231,12.0338,11.9615,11.9154,11.8497,11.7708,11.6853,11.8365,11.9154,11.9154,12.0206,12.0343,11.9693,11.7673,11.6777,11.6777,11.6777,11.6777,11.6902,11.8524,11.9587,12.0279,12.1029,12.1297,12.1297,12.1297,12.1297,12.1297,12.1297,12.1297,12.1297,12.1297,12.1297,12.0732,11.7646,11.5617,11.3663,11.0596,10.86,10.7376,10.7725,10.9353,11.1498,11.36,11.5112,11.5926,11.5519,11.5461,11.5345,11.4937,11.4879,11.4879,11.4879,11.4879,11.4879,11.4879,11.4879,11.4879,11.4879,11.4879,11.5054,11.5403,11.6275,11.709,11.7904,11.9649,12.087,12.1219,12.2148,12.2672,12.2672,12.2672,12.2672,12.2672,12.3779,12.5555,12.7852,13.1003,13.3318,13.4778,13.4594,13.4065,5.9917,6.4155,6.957,7.2351,7.5624,8.0072,8.74,8.7567,8.773,9.3092,9.45,9.6656,10.2881,10.403,10.495,10.781,10.9488,11.0907,11.2345,11.0855,10.9599,10.9565,11.1337,11.3039,11.4515,11.7379,11.968,12.1165,12.1297,12.1258,12.1297,12.1258,12.0601,11.922,12.0535,11.9812,11.6853,11.8365,11.9154,11.9154,11.9154,11.8145,11.6268,11.4944,11.4322,11.4322,11.4322,11.4322,11.4322,11.4366,11.5744,11.8078,12.0357,12.1297,12.1297,12.1297,12.1297,12.1297,12.1297,12.1297,12.1297,12.1297,12.1297,12.0461,11.5744,11.4322,11.3309,10.8648,10.7308,10.755,10.888,11.1971,11.517,11.645,11.7788,11.8369,11.7031,11.6852,11.6392,11.5112,11.4879,11.4879,11.4879,11.4879,11.4879,11.4879,11.4879,11.4879,11.4879,11.4879,11.5345,11.6624,11.6852,11.7846,12.0463,12.0696,12.1219,12.2555,12.2672,12.2672,12.2672,12.2672,12.2672,12.2672,12.3779,12.5058,12.6396,13.0537,13.1791,13.0356,13.3156,13.3044,5.6345,6.0535,6.5118,6.7886,7.306,7.779,7.8784,8.0512,8.3192,8.8021,9.0292,9.2727,9.6981,10.2779,10.6889,10.6792,10.9619,11.2022,11.2492,11.1996,11.1592,11.1673,11.3063,11.4617,11.5998,11.7971,11.9351,11.9812,12.0732,12.1297,12.1297,12.1297,12.1099,12.0601,11.951,11.8458,11.7489,11.6383,11.6294,11.7159,11.7159,11.6875,11.6135,11.4141,11.2737,11.1915,11.1915,11.1915,11.2006,11.3663,11.4714,11.5489,11.621,11.6526,11.6526,11.6526,11.6526,11.6713,11.8362,11.895,11.904,11.9927,12.025,11.9517,11.5639,11.4469,11.3811,11.0709,10.9819,11.0342,11.2494,11.4647,11.6508,11.7846,11.8486,11.8606,11.8253,11.8137,11.802,11.7671,11.7555,11.7264,11.6333,11.6973,11.6973,11.517,11.5635,11.5868,11.4996,11.4879,11.5054,11.5461,11.709,11.8835,12.058,12.151,12.2206,12.2672,12.2672,12.2672,12.2672,12.2672,12.3968,12.6709,12.608,12.7373,13.0593,13.0879,13.0715,13.0295,13.1185,13.1126,5.5588,5.862,6.1698,6.4649,6.7885,7.0787,7.2785,7.3785,7.572,8.0471,8.4116,8.7364,9.023,0.0,10.5584,10.6034,10.929,11.1921,11.2482,11.2548,11.2573,11.252,11.4275,11.5866,11.6721,11.8694,11.9943,11.9943,12.0798,12.0952,12.0006,11.9967,11.9547,11.8645,11.7234,11.6462,11.6462,11.5016,11.4279,11.4235,11.4235,11.4538,11.4929,11.2979,11.141,11.0209,11.0209,10.9912,10.9578,11.106,11.2447,11.3645,11.3137,11.3531,11.4279,11.4279,11.4279,11.4497,11.5957,11.6801,11.7328,11.8109,11.8699,11.8529,11.5441,11.4505,11.3974,11.1631,11.1331,11.2436,11.5577,11.7322,11.8602,11.994,12.0231,12.0114,11.9649,11.9533,11.9358,11.8838,11.8722,11.8544,11.7671,11.8253,11.8078,11.5926,11.6275,11.6333,11.5054,11.4879,11.5054,11.5577,11.7497,11.9533,12.1278,12.2206,12.2672,12.2672,12.2672,12.2672,12.2672,12.2672,12.4529,12.86,12.8178,12.9489,13.2584,13.2103,13.1302,13.0235,13.0235,13.0235,5.6617,5.7922,5.9182,6.2581,6.133,6.1361,6.9133,6.798,6.6543,7.105,7.6065,8.0475,8.3011,9.2327,10.0973,10.5367,10.833,11.0663,11.2447,11.2776,11.2943,11.3008,11.5472,11.7181,11.7181,11.968,12.122,12.1067,12.1067,12.0006,11.7646,11.7523,11.6568,11.4366,11.4147,11.406,11.406,11.3946,11.2961,11.0982,11.1098,11.1796,11.2908,11.168,11.0459,10.9345,10.9345,10.8705,10.755,10.755,10.9553,11.2499,11.1284,11.2113,11.392,11.3858,11.3796,11.3796,11.4096,11.5008,11.6018,11.6159,11.6982,11.7424,11.5227,11.4516,11.4029,11.1924,11.2262,11.4187,11.7792,11.9823,12.1161,12.2381,12.2672,12.2322,12.1103,12.087,12.0521,11.93,11.9013,11.9067,11.8951,11.8955,11.8544,11.7085,11.6857,11.645,11.5054,11.4879,11.5403,11.6736,11.802,11.9765,12.2322,12.2613,12.2672,12.2672,12.2672,12.2672,12.2672,12.2672,12.4588,12.8721,12.9824,13.1203,13.2982,13.3802,13.2986,13.0534,13.0354,13.0235,5.283,5.4282,5.6569,6.0752,6.3593,6.5921,6.7881,6.6449,6.479,6.4923,6.7909,7.2265,7.7726,8.3244,0.0,10.3368,10.6114,10.8436,11.3517,11.5143,11.6261,11.7444,11.9154,12.0206,12.0206,12.0902,12.0577,11.8725,11.8605,11.7564,11.5232,11.5103,11.4844,11.4322,11.2549,11.1596,11.1596,11.0828,11.0653,11.0982,11.2029,11.2617,11.2908,11.2617,11.1796,11.0575,11.0575,11.04,11.011,11.011,11.0637,11.1363,11.112,11.0702,11.0344,10.929,10.8935,10.9341,11.2127,11.3264,11.3857,11.5777,11.6578,11.6579,11.5238,11.4772,11.4668,11.4105,11.5635,11.7671,11.8489,12.0463,12.2322,12.2613,12.2672,12.2613,12.2264,12.2206,12.2148,12.1801,12.1743,12.1394,12.0405,12.1045,12.0635,11.7376,11.7671,11.7497,11.517,11.4879,11.5403,11.6736,11.802,11.9416,12.0987,12.209,12.2672,12.2672,12.2672,12.2672,12.2672,12.2672,12.5,13.0107,12.8265,13.0635,13.732,13.3266,13.2004,13.3442,13.1243,13.0235,5.558,5.7623,5.9423,5.9654,6.1765,6.3798,6.3798,6.2422,6.1072,6.0825,6.2355,6.5736,7.2415,7.6409,8.2526,9.4343,0.0,10.5233,10.9887,11.3032,11.5669,11.7839,11.876,11.934,11.9679,11.9731,11.8685,11.6336,11.6168,11.5189,11.2818,11.2684,11.2188,11.1106,10.9861,10.921,10.921,10.9749,11.0393,11.0982,11.296,11.3838,11.3838,11.3838,11.3082,11.1913,11.1913,11.1564,11.0982,11.0982,11.1331,11.1855,11.1215,11.0982,11.0749,10.947,10.8655,10.8496,11.0456,11.1841,11.3086,11.4399,11.5237,11.5635,11.5065,11.4879,11.4879,11.4879,11.6799,11.8896,11.9533,12.1161,12.2672,12.2672,12.2672,12.2672,12.2672,12.2672,12.2672,12.2672,12.2672,12.2264,12.0929,12.1278,12.0638,11.7376,11.7439,11.7148,11.517,11.4879,11.5635,11.7497,11.8369,11.9533,12.1452,12.2264,12.2672,12.2672,12.2672,12.2672,12.2672,12.3195,12.5766,13.0529,12.9651,13.1748,13.6839,13.3728,13.2293,13.2525,13.0949,13.0235,5.9678,6.299,6.4586,6.0602,6.0127,6.0481,6.0319,5.8746,5.7503,5.8174,5.8517,6.0705,6.7413,7.0936,7.5363,0.0,0.0,10.0553,0.0,0.0,11.4268,11.6193,11.6969,11.7273,11.729,11.7276,11.6252,11.3928,11.3752,11.2729,11.0363,11.0223,10.9353,10.7358,10.7259,10.7259,10.7259,10.9761,11.0982,11.104,11.3658,11.4879,11.4879,11.4879,11.4298,11.3199,11.3199,11.2611,11.1564,11.1564,11.2262,11.3141,11.2029,11.2145,11.2792,11.168,11.0567,10.952,10.952,11.104,11.2966,11.3141,11.4007,11.4879,11.4879,11.4879,11.4937,11.5112,11.6915,11.9067,12.0405,12.1685,12.2672,12.2672,12.2672,12.2672,12.2672,12.2672,12.2672,12.2672,12.2672,12.2322,12.1161,12.0812,11.994,11.7729,11.7085,11.6392,11.5345,11.517,11.6101,11.8489,11.8951,12.0056,12.2439,12.2672,12.2672,12.2672,12.2672,12.2672,12.2672,12.3604,12.5956,12.9877,13.1077,13.2564,13.4517,13.4065,13.2871,13.0831,13.0415,13.0235,5.6659,6.2601,6.8215,6.7474,6.6401,6.5112,6.401,6.0847,5.7862,5.6935,5.6332,5.7706,6.328,6.6034,6.9555,0.0,0.0,0.0,10.3058,11.2413,11.7299,11.4968,11.747,11.8207,11.5122,11.4844,11.3884,11.1505,11.1321,11.027,10.7934,10.7836,10.77,10.7308,10.7259,10.7259,10.7259,10.9761,11.0982,11.104,11.3658,11.4879,11.4879,11.4879,11.4763,11.4588,11.4588,11.4472,11.4298,11.4298,11.4414,11.4588,11.4356,11.3774,11.2908,11.2734,11.1855,11.0691,11.0691,11.168,11.3082,11.4239,11.4705,11.4879,11.4879,11.4879,11.5112,11.6217,11.7613,11.9067,12.0405,12.1685,12.2672,12.2672,12.2672,12.2672,12.2672,12.2672,12.2672,12.2672,12.2672,12.2613,12.2381,12.1452,12.058,12.0172,11.8195,11.6741,11.6508,11.6508,11.709,11.866,11.9765,12.0987,12.2555,12.2672,12.2672,12.2672,12.2672,12.2672,12.2672,12.2846,12.418,12.6971,12.7205,12.9698,13.4517,13.212,13.1946,13.3841,13.1361,13.0235,6.0702,6.5496,6.9567,6.7415,6.6311,6.5412,6.4091,6.1566,5.9234,5.8018,5.7351,5.8469,6.3328,6.4143,6.7205,7.6824,8.0334,0.0,0.0,0.0,11.2649,11.4104,11.5149,11.5142,11.3665,11.2842,11.1474,10.9067,10.8876,10.8407,10.7358,10.7259,10.7259,10.7259,10.7259,10.7608,10.8356,10.9462,11.0691,11.2087,11.3257,11.4239,11.4879,11.4879,11.4879,11.4879,11.4879,11.4879,11.4879,11.4879,11.4879,11.4879,11.4879,11.453,11.4007,11.4007,11.3192,11.2145,11.2843,11.3076,11.3141,11.4472,11.4879,11.4879,11.4879,11.4879,11.5286,11.7322,11.8311,11.9242,12.1219,12.2206,12.2672,12.2672,12.2672,12.2672,12.2672,12.2672,12.2672,12.2672,12.2672,12.2439,12.1685,12.1103,12.0231,11.8776,11.7555,11.6566,11.5868,11.6392,11.7322,11.8606,11.994,12.1219,12.2555,12.2672,12.2672,12.2672,12.2672,12.2672,12.2672,12.2672,12.3837,12.628,12.7676,12.9661,13.2236,13.0831,13.0948,13.2178,13.0889,13.0235,6.7939,0.0,7.2451,6.9483,6.8288,6.7415,0.0,6.3727,6.1801,6.0612,5.9798,6.0634,6.4812,6.4426,6.6844,7.7419,7.7987,8.1096,9.2701,0.0,0.0,11.0967,11.1531,11.1447,11.1589,11.0647,10.9258,10.7407,10.7259,10.7259,10.7259,10.7259,10.7259,10.7259,10.755,10.824,10.9229,10.9811,11.104,11.2908,11.3257,11.3896,11.4879,11.4879,11.4879,11.4879,11.4879,11.4879,11.4879,11.4879,11.4879,11.4879,11.4879,11.4879,11.4879,11.4879,11.4298,11.3548,11.453,11.4239,11.3548,11.4588,11.4879,11.4879,11.4879,11.4879,11.5461,11.8024,11.8722,11.9416,12.1973,12.2672,12.2672,12.2672,12.2672,12.2672,12.2672,12.2672,12.2672,12.2672,12.2672,12.2381,12.1336,12.087,12.0114,11.8482,11.7434,11.6566,11.5868,11.6682,11.7671,11.8718,12.0231,12.1568,12.2613,12.2672,12.2672,12.2672,12.2672,12.2672,12.2672,12.2672,12.3662,12.5815,12.8141,12.9479,12.977,13.0061,13.0235,13.0235,13.0235,13.0235,0.0,7.9608,7.9725,7.9434,7.7536,7.5117,7.2617,6.9213,0.0,6.4939,6.3413,6.3413,6.6975,6.7238,6.8457,7.3192,7.3916,7.7982,0.0,9.0306,0.0,0.0,10.7082,10.8706,10.7739,10.7612,10.7456,10.7308,10.7259,10.7259,10.7259,10.7259,10.7259,10.7259,10.8472,10.9171,10.9229,11.1506,11.2734,11.2966,11.4129,11.4821,11.4879,11.4879,11.4879,11.4879,11.4879,11.4879,11.4879,11.4879,11.4879,11.4879,11.4879,11.4879,11.4879,11.4879,11.4821,11.4763,11.4879,11.4821,11.4763,11.4879,11.4879,11.4879,11.4879,11.4879,11.5461,11.8024,11.8722,11.9416,12.1973,12.2672,12.2672,12.2672,12.2672,12.2672,12.2672,12.2672,12.2672,12.2672,12.2672,12.2613,12.2555,12.151,12.1045,12.209,11.918,11.7206,11.8369,11.8602,11.8718,11.8722,12.0987,12.2555,12.2672,12.2672,12.2672,12.2672,12.2672,12.2672,12.2672,12.2672,12.3253,12.4535,12.5873,12.7211,12.8432,12.9654,13.0235,13.0235,13.0235,13.0235,8.1063,8.2809,8.3411,8.1063,7.9143,7.7129,7.4512,7.2185,6.9975,6.7939,6.7643,6.8438,7.0486,7.0356,7.1947,7.8074,7.793,7.9692,0.0,0.0,0.0,9.8114,0.0,0.0,10.7299,10.7259,10.7259,10.7259,10.7259,10.7259,10.7259,10.7259,10.7259,10.7259,10.8589,10.9578,11.0335,11.1273,11.2553,11.4129,11.3832,11.4123,11.4879,11.4879,11.4879,11.4879,11.4879,11.4879,0.0,11.4879,11.4879,11.4879,11.4879,11.4879,11.4879,11.4879,11.4879,11.4879,11.4879,11.4879,11.4879,11.4879,11.4879,11.4879,11.4879,11.4879,11.5461,11.8024,11.9358,12.0405,12.2206,12.2672,12.2672,12.2672,12.2672,12.2672,12.2672,12.2672,12.2672,12.2672,12.2672,12.2672,12.2672,12.2264,12.107,11.863,11.6469,11.4991,11.454,11.5276,11.6568,11.8559,12.1103,12.2672,12.2672,12.2672,12.2672,12.2672,12.2672,12.2672,12.2672,12.2672,12.3546,12.5524,12.6106,12.7385,12.9479,13.0003,13.0235,13.0235,13.0235,13.0235,8.5835,8.6959,8.7425,8.5253,8.3158,8.0735,7.7804,0.0,7.3198,7.0731,7.0905,7.1894,7.3116,7.3215,7.4906,8.0355,8.0323,8.16,0.0,0.0,0.0,9.7823,10.2886,10.6212,0.0,10.7027,10.7259,10.7259,10.7259,10.7259,10.7259,10.7259,10.7667,10.8423,10.9345,11.0342,11.1622,11.2029,11.3134,11.4879,11.4007,11.4013,11.4879,11.4879,11.4879,11.4879,11.4879,11.4879,11.4879,11.4879,11.4879,11.4879,11.4879,11.4879,11.4879,11.4879,11.4879,11.4879,11.4879,11.4879,11.4879,11.4879,11.4879,11.4879,11.4879,11.4879,11.5345,11.7555,11.9416,12.0987,12.2322,12.2672,12.2672,12.2672,12.2672,12.2672,12.2672,12.2672,12.2672,12.2672,12.2672,12.2672,12.2672,12.2672,12.1252,11.6964,11.4989,11.3417,11.1385,11.2852,11.4944,11.7068,12.0545,12.1825,11.971,11.9537,11.9941,12.0972,12.1086,12.1541,12.2615,12.2672,12.3837,12.628,12.6338,12.7617,13.0235,13.0235,13.0235,13.0235,13.0235,13.041,9.2527,9.295,9.2311,9.359,9.0973,8.7134,0.0,0.0,7.5931,7.329,7.2733,7.3116,7.4429,7.5733,7.7036,7.8351,7.9667,8.3216,9.0856,9.1962,0.0,0.0,0.0,10.3933,10.5282,10.6561,10.7259,10.7259,10.7259,10.7259,10.7318,10.7318,10.8423,11.0924,11.0982,11.1622,11.2908,11.4239,11.4879,11.4879,11.4879,11.4879,11.4879,11.4879,11.4879,11.4879,11.4879,11.4879,11.4879,11.4879,11.4879,11.4879,11.4879,11.4879,11.4879,11.4879,11.4879,11.4879,11.4879,11.4879,11.4879,11.4879,11.4879,11.4879,11.4879,11.4879,11.517,11.645,11.866,12.0987,12.2322,12.2672,12.2672,12.2672,12.2672,12.2672,12.2672,12.2672,12.2672,12.2672,12.2672,12.2672,12.2672,12.2615,12.1484,11.8032,11.5549,11.2838,10.9565,11.1972,11.4038,11.4038,11.9138,11.9883,11.3304,11.2752,11.4103,11.7328,11.7563,11.9076,12.2503,12.2615,12.3779,12.628,12.6338,12.7617,13.0235,13.0235,13.0235,13.0235,13.0235,13.0935,9.3226,9.4273,9.4797,9.5146,9.3691,9.0956,0.0,0.0,8.0661,7.6338,7.5466,7.5582,7.5966,7.6338,7.7326,7.955,8.1666,8.4478,8.8646,9.2353,0.0,0.0,0.0,10.4282,10.6503,10.7085,10.7259,10.7259,10.7259,10.7716,10.8647,10.9462,11.0226,11.0982,11.1913,11.2559,11.2908,11.4239,11.4879,11.4879,11.4879,11.4879,11.4879,11.4879,11.4879,11.4879,11.4879,11.4879,11.4879,11.4879,11.4879,11.4879,11.4879,11.4879,11.4879,11.4879,11.4879,11.4879,11.4879,11.4879,11.4879,11.4879,11.4879,11.4879,11.4879,11.4879,11.5345,11.7555,11.8776,11.9882,12.209,12.2672,12.2672,12.2672,12.2672,12.2672,12.2672,12.2672,12.2672,12.2672,12.2672,12.2672,12.2672,12.0629,11.7749,11.3675,10.9874,10.6991,10.5823,10.6678,10.8517,11.1414,11.4133,11.4884,11.2936,11.2752,11.3182,11.4103,11.4164,11.5665,11.896,11.9076,12.1371,12.6222,12.6338,12.7617,13.0235,13.0235,13.0235,13.0235,13.0235,13.0469,9.4157,9.5204,9.6077,9.7066,9.6324,9.3997,8.8838,0.0,8.3489,7.8373,7.6977,7.6745,7.7268,7.7827,7.9339,8.2888,8.5621,8.8664,9.2834,0.0,0.0,0.0,10.4467,0.0,0.0,0.0,10.8772,10.8772,10.8772,10.9295,11.0633,11.0866,11.1447,11.2494,11.2792,11.3199,11.3722,11.453,11.4879,11.4879,11.4879,11.4879,11.4879,11.4879,11.4879,11.4879,11.4879,11.4188,11.3118,11.4347,11.4135,11.3172,11.4347,11.4879,11.4879,11.4879,11.4879,11.4879,11.4879,11.4879,11.4879,11.4879,11.4879,11.4879,11.4879,11.4879,11.5461,11.8024,11.8722,11.9416,12.1973,12.2672,12.2672,12.2672,12.2672,12.2672,12.2672,12.2672,12.2672,12.2672,12.1193,11.9998,11.9998,11.6848,11.3014,10.9179,10.5927,10.3559,10.2565,10.3695,10.5735,10.8622,10.8832,10.88,10.88,10.88,10.932,11.0589,11.0714,11.2206,11.549,11.561,11.7563,12.1605,12.2113,12.3356,12.5393,12.584,12.6065,12.6065,12.6065,12.6065,9.5146,9.5961,9.6776,9.9116,9.8896,9.6745,9.1396,0.0,0.0,7.9688,7.7594,7.7094,7.8176,7.9688,0.0,0.0,9.0566,9.4695,10.0628,0.0,0.0,0.0,0.0,0.0,10.9403,11.0393,11.0982,11.0982,11.0982,11.1622,11.3024,11.1971,11.2436,11.4821,11.3722,11.3664,11.4879,11.4879,11.4879,11.4879,11.4879,11.4879,11.4879,11.4879,11.4879,11.4879,11.4879,11.3118,11.0451,11.3599,11.3008,11.056,11.3652,11.4879,11.4879,11.4879,11.4879,11.4879,11.4879,11.4879,11.4879,11.4879,11.451,11.4082,11.4405,11.4516,11.5259,11.797,11.8838,11.9533,12.2031,12.2672,12.2672,12.2672,12.2672,12.2672,12.2672,12.2389,12.2276,12.2441,11.8744,11.5656,11.5833,11.2043,10.7965,10.4919,10.3356,10.1904,9.9971,10.2286,10.4542,10.5603,10.4017,10.282,10.282,10.282,10.407,10.707,10.7264,10.8748,11.2136,11.2321,11.3042,11.4657,11.5607,11.6789,11.8207,11.9099,11.9625,11.9732,11.9732,11.9732,9.5379,9.7241,9.9116,10.0687,10.1617,10.0279,9.3183,9.1089,0.0,0.0,7.8292,7.7885,7.7152,0.0,8.4071,0.0,9.2908,9.8722,10.1152,0.0,0.0,0.0,0.0,0.0,11.0517,11.0808,0.0,11.0982,11.0982,11.2029,11.4356,11.4239,11.4298,11.4879,11.4647,11.4588,11.4879,11.4879,11.4879,11.4879,11.4879,11.4879,11.4879,11.4879,11.4879,11.4879,11.4879,11.3118,11.0451,11.3599,11.3008,11.056,11.3652,11.4879,11.4879,11.4879,11.4879,11.4879,11.4879,11.4879,11.4879,11.4879,11.1601,10.8112,11.0506,11.1895,11.3577,11.7659,11.9533,12.0638,12.2264,12.2672,12.2672,12.2672,12.2672,12.2672,12.2672,12.0572,11.9139,12.0832,11.6341,11.2746,11.4255,10.9554,10.5133,10.3571,10.0905,9.9176,9.9648,10.0327,10.1172,10.2193,10.2601,10.282,10.282,10.282,10.3105,10.3788,10.3854,10.5337,10.8621,10.8812,11.0664,11.4595,11.4926,11.6109,11.8207,11.8422,11.8938,11.9732,11.9732,11.9732,9.1602,9.3499,9.5851,9.9533,10.0962,10.0562,9.7277,0.0,0.0,0.0,8.2597,8.1433,7.8932,0.0,0.0,8.8588,9.5393,10.1152,10.3071,0.0,0.0,0.0,10.888,10.9694,0.0,11.1564,11.2204,11.2843,11.2843,11.3425,11.4821,11.4879,11.4879,11.4879,11.4879,11.4879,11.4879,11.4879,11.4879,11.4879,11.4879,11.4879,11.4879,11.4879,11.4879,11.4879,11.4879,11.2308,10.8281,11.1383,10.9953,10.6182,10.9288,11.0507,11.0507,11.0507,11.0169,10.9775,11.0337,11.0113,10.955,10.9097,10.6798,10.4453,10.6022,10.773,11.0001,11.4481,11.5847,11.6973,12.1478,12.1484,12.0228,12.0228,12.0228,11.9769,11.8203,11.65,11.6511,12.0845,11.4262,10.8822,11.1386,10.5614,10.0479,9.9927,9.8371,9.7615,9.8738,9.8884,9.947,10.1129,10.1764,10.2234,10.2771,10.282,10.282,10.282,10.282,10.3588,10.5287,10.5352,10.6518,10.8908,10.9487,11.0619,11.2435,11.2883,11.3691,11.4702,11.4702,11.4702,8.6866,8.8736,9.1316,9.6713,9.8667,9.9505,10.0309,9.9146,0.0,0.0,8.7832,8.5854,8.2751,8.5912,8.9926,9.2543,9.8302,10.3246,10.5398,10.6794,10.7608,0.0,10.8589,10.9694,11.0866,11.2204,0.0,0.0,11.4763,11.4879,11.4879,11.4879,11.4879,11.4879,11.4879,11.4879,11.4879,11.4879,11.4879,11.4879,11.4879,11.4879,11.4879,11.4879,11.4879,11.4827,11.4294,11.0891,10.5891,10.845,10.6125,10.1367,10.4501,10.5719,10.5719,10.5719,10.5024,10.4168,10.5132,10.4702,10.3407,10.1433,10.0776,10.0889,10.1504,10.3215,10.5876,11.0227,11.1113,11.2396,11.897,11.8731,11.6796,11.6796,11.6796,11.6024,11.3365,11.2752,11.4285,11.9598,11.2081,10.5548,10.7865,10.1862,9.6639,9.6444,9.6395,9.6786,9.7859,9.8152,9.8982,10.0837,10.1325,10.191,10.2722,10.282,10.282,10.282,10.282,10.282,10.282,10.282,10.282,10.282,10.3716,10.4692,10.5835,10.6645,10.7767,10.8988,10.8988,10.9085,8.4525,8.754,9.0496,9.2403,9.6156,9.8838,9.6874,9.789,9.8082,9.3939,0.0,8.9361,8.8838,9.1147,9.3939,9.6454,0.0,10.662,10.6969,10.8181,10.8996,10.8996,10.9171,10.9694,11.0866,11.2204,11.3024,11.3199,11.4239,11.4879,11.4879,11.4879,11.4879,11.4879,11.4879,11.4879,11.4879,11.4879,11.4879,11.4879,11.4879,11.4879,11.4879,11.4879,11.4879,11.4721,11.1981,10.8898,10.5776,10.6179,10.4267,10.1367,10.4501,10.5719,10.5719,10.5719,10.5024,10.4006,10.4221,10.3525,10.172,9.6193,9.4351,9.4889,9.7556,10.0028,10.2559,10.5884,10.888,11.1397,11.2461,11.3095,11.3373,11.3373,11.3373,11.3304,11.2875,11.2752,11.2675,11.2378,10.8851,10.5401,10.3816,10.033,9.7469,9.6542,9.6395,9.6786,9.7859,9.8884,9.9568,9.9925,10.1569,10.2673,10.282,10.282,10.282,10.282,10.282,10.282,10.282,10.282,10.282,10.282,10.2966,10.3503,10.4595,10.4741,10.5864,10.7865,10.7865,10.8353,7.7174,8.0247,8.3716,8.7804,9.0859,9.3358,9.5149,9.7536,9.8355,9.4551,9.4599,0.0,9.1629,9.3722,0.0,0.0,0.0,0.0,10.5155,10.6901,10.8181,0.0,10.8181,0.0,10.9927,11.1098,11.2094,0.0,11.3431,11.378,11.378,11.453,11.4879,11.4879,11.4879,11.4879,11.4879,11.4879,11.4879,11.4879,11.4879,11.3976,11.2308,11.2308,11.1329,10.9677,10.8281,10.6006,10.3092,10.3092,10.1298,9.8605,9.996,10.0506,10.0404,9.9852,9.8883,9.7862,9.7862,9.6798,9.4967,9.2265,9.1368,9.1605,9.3029,9.5396,9.8323,10.1511,10.3579,10.5537,10.9238,10.9604,10.9019,10.9019,10.9428,10.9383,10.7572,10.8609,10.9227,10.683,10.4731,10.3454,10.3683,10.053,9.7615,9.6542,9.6395,9.6786,9.7859,9.8445,9.9226,10.0446,10.1422,10.2137,10.2771,10.282,10.282,10.282,10.282,10.282,10.282,10.282,10.282,10.282,10.282,10.3307,10.44,10.44,10.5229,10.6861,10.7377,10.7914,6.9694,7.2255,7.5842,8.1154,8.4288,8.726,9.2035,9.5555,9.7139,9.4656,9.6493,9.7466,0.0,0.0,0.0,9.7765,10.1198,0.0,10.4399,10.6377,0.0,10.7318,0.0,10.7716,10.8647,10.9869,0.0,0.0,11.232,11.2559,11.2908,11.3838,11.453,11.4879,11.4879,11.4879,11.4879,11.4879,11.451,11.3652,11.3652,11.2035,10.9065,10.9065,10.783,10.5661,10.4908,10.321,10.1058,10.0213,9.8482,9.6395,9.6102,9.6005,9.5858,9.4784,9.3662,9.2686,9.2442,9.1319,9.0001,9.0001,9.0001,9.005,9.0284,9.2295,9.5006,9.7697,9.8896,10.0397,10.5284,10.5756,10.4867,10.4867,10.5728,10.5809,10.3372,10.4746,10.5955,10.44,10.28,10.244,10.4978,10.1542,9.8055,9.6981,9.659,9.6786,9.7859,9.843,9.947,10.1129,10.152,10.2008,10.2771,10.282,10.282,10.282,10.282,10.282,10.282,10.282,10.282,10.282,10.282,10.321,10.4009,10.4009,10.4595,10.5737,10.645,10.7133,6.414,6.5685,6.8194,7.1464,7.6582,8.1895,8.5822,9.04,9.41,9.5122,9.5611,9.6185,0.0,0.0,9.878,10.2478,10.4293,10.5689,10.691,10.8298,10.8705,0.0,0.0,0.0,0.0,0.0,0.0,10.9403,11.0459,11.1622,11.285,11.2966,11.3606,11.4821,11.4879,11.4879,11.4879,11.4879,11.3386,11.0451,11.0451,10.8842,10.5949,10.5949,10.5891,10.5545,10.2619,10.1238,10.0877,9.7853,9.6583,9.6298,9.5334,9.4944,9.4797,9.3613,9.2528,9.1504,9.0479,9.0099,9.0001,9.0001,9.0001,9.0138,9.1162,9.2235,9.3418,9.4737,9.652,9.8167,9.85,10.0004,10.1539,10.1539,10.2322,10.2971,10.2887,10.2953,10.3987,10.6877,10.4893,10.3755,10.6931,10.3127,9.9226,9.8103,9.7078,9.6786,9.7859,9.9812,10.1178,10.1276,10.2203,10.2771,10.282,10.282,10.282,10.282,10.282,10.282,10.282,10.282,10.282,10.282,10.282,10.282,10.2917,10.2917,10.3472,10.4497,10.4546,10.5669,6.0602,6.2683,6.5126,6.6738,6.9732,7.278,7.4843,7.9822,8.4341,8.5617,8.9755,9.3614,9.4766,9.6391,9.8071,9.9425,10.2189,10.4235,10.4748,10.6668,10.7832,10.7318,10.7259,10.7259,0.0,0.0,0.0,10.8007,10.9171,11.0102,11.0517,11.1273,11.1913,11.2378,11.2378,11.2785,11.3606,11.1645,11.0538,11.0174,10.7512,10.497,10.2685,10.1283,10.0265,9.9656,9.7855,9.7454,9.7977,9.6846,9.6395,9.6298,9.5286,9.4846,9.4651,9.2832,9.1894,9.1406,9.0392,9.0001,9.0001,9.0001,9.0001,9.0099,9.0489,9.1758,9.3223,9.3613,9.5273,9.6981,9.6981,9.8055,9.9177,9.9177,10.0007,10.0837,10.0837,10.0837,10.118,10.2317,10.1588,10.118,10.2382,10.0357,9.825,9.7127,9.7225,9.8103,9.986,10.0788,10.1569,10.2186,10.2576,10.282,10.282,10.282,10.282,10.282,10.282,10.282,10.282,10.282,10.282,10.282,10.282,10.282,10.282,10.282,10.3015,10.3356,10.4107,10.479,5.5098,5.6533,5.8646,6.029,6.259,6.5007,6.6838,7.1366,7.5685,7.7709,8.3123,8.821,9.0501,9.3188,9.5419,9.6745,9.9805,10.24,10.3268,10.5631,10.7259,10.7259,10.7259,0.0,0.0,0.0,0.0,10.7259,10.8123,10.8763,10.9229,10.9985,11.0575,11.0982,11.0056,10.9995,11.0805,10.7822,10.6742,10.7515,10.3735,10.1213,9.9878,9.7331,9.5865,9.5273,9.454,9.4638,9.5321,9.5321,9.5321,9.5175,9.415,9.3711,9.3515,9.1699,9.1016,9.0918,9.0245,9.0001,9.0001,9.0001,9.0001,9.0099,9.0382,9.1758,9.3223,9.3564,9.498,9.6395,9.6395,9.7225,9.7942,9.7942,9.8884,9.973,9.973,9.973,9.973,9.973,9.973,9.9877,10.0153,9.9616,9.8738,9.7664,9.8396,9.9616,10.1081,10.1618,10.2106,10.2722,10.282,10.282,10.282,10.282,10.282,10.282,10.282,10.282,10.282,10.282,10.282,10.282,10.282,10.282,10.282,10.282,10.282,10.282,10.357,10.4058,4.7583,0.0,4.8542,5.1666,5.5265,5.889,6.2362,6.5461,6.8666,7.233,7.5892,7.9847,8.4647,8.784,9.0926,9.4709,9.7577,10.0186,10.2877,10.5631,10.7259,10.7259,10.7259,10.721,0.0,10.7005,10.7063,10.7063,10.7063,10.7585,10.8863,10.8921,10.9443,11.0604,10.7908,10.6479,10.6534,10.3669,10.2288,10.2286,9.9122,9.7614,9.7446,9.4471,9.3125,9.3125,9.3076,9.3076,9.3125,9.3125,9.3125,9.3027,9.1943,9.1552,9.1455,9.0382,8.9943,8.9826,8.9826,8.9767,8.9708,8.9708,8.9767,9.0021,9.1092,9.2175,9.332,9.4455,9.5579,9.6346,9.6346,9.7127,9.7957,9.7957,9.8787,9.9632,9.9632,9.9632,9.9632,9.9632,9.9616,9.9958,10.1032,10.1227,10.0885,9.986,10.0641,10.1325,10.1276,10.2137,10.282,10.282,10.282,10.282,10.282,10.282,10.282,10.282,10.282,10.282,10.2771,10.2771,10.2771,10.2722,10.2722,10.2722,10.2722,10.2771,10.2771,10.2771,10.282,10.3423,4.7814,0.0,0.0,4.7174,4.8824,5.0847,5.2456,5.5542,5.9088,6.2756,6.7329,7.198,7.6111,8.0136,8.4087,8.8007,9.4041,9.8682,10.0228,10.4395,10.7259,10.7259,10.7259,10.5363,10.0329,10.0524,10.097,10.097,10.097,10.1132,10.1462,10.1517,10.1627,10.1957,10.1213,10.1274,10.2198,9.9169,9.8118,9.9007,9.5906,9.4004,9.3252,9.3205,9.3125,9.3076,9.2284,9.2382,9.3125,9.3125,9.3125,9.3027,9.1943,9.1552,9.1455,9.0382,8.8434,8.6376,8.6376,8.4764,8.2876,8.2876,8.44,8.6363,8.6705,8.9227,9.204,9.2333,9.3808,9.5334,9.5334,9.6053,9.6834,9.6834,9.7078,9.7322,9.7322,9.7322,9.7322,9.7322,9.7908,9.8543,9.8836,9.9568,10.0007,9.9714,10.1276,10.2088,10.1374,10.2137,10.282,10.282,10.282,10.282,10.282,10.282,10.282,10.282,10.282,10.2478,10.1764,10.1715,10.1374,10.0593,10.0544,10.0544,10.0544,10.1325,10.1715,10.1764,10.2429,10.2966,4.4515,0.0,0.0,0.0,4.2638,4.3964,4.6628,4.8606,5.1271,5.6377,6.0156,6.4708,7.155,7.494,7.8532,0.0,8.9587,9.3793,9.5892,9.9375,10.1833,10.2241,10.2354,10.075,9.6791,9.691,9.7449,9.7879,9.7933,9.8094,9.8524,9.8578,9.8578,9.8578,9.7388,9.7156,9.7842,9.4915,9.3769,9.4539,9.2699,9.1514,9.0918,9.1563,9.1807,9.1807,9.1162,9.1211,9.1807,9.1807,9.1807,9.1758,9.1113,9.0918,9.0643,8.8615,8.6615,8.4764,8.3381,8.1662,8.0112,8.0112,8.1353,8.2892,8.2892,8.5028,8.7437,8.7437,8.8619,9.0099,9.0441,9.2079,9.377,9.4073,9.5341,9.6395,9.6395,9.6395,9.6395,9.6395,9.7274,9.8152,9.864,9.9616,10.0349,10.0349,10.1813,10.2576,10.1942,10.2429,10.282,10.282,10.282,10.282,10.282,10.2381,10.2203,10.2203,10.1813,10.1276,10.0641,10.0593,10.03,9.9779,9.973,9.973,9.973,10.03,10.0593,10.0641,10.1715,10.1959,3.8744,0.0,0.0,3.6139,3.6747,3.8039,0.0,0.0,4.4632,5.127,5.3514,5.7456,6.7891,7.0014,7.3074,8.1608,8.439,8.684,9.0723,9.2766,9.3896,9.3927,9.4143,9.4251,9.4251,9.4411,9.4838,9.5797,9.5851,9.6277,9.7181,9.7339,9.7392,9.7392,9.5073,9.3826,9.3826,9.1241,9.0001,9.0001,9.0001,9.0001,9.0001,9.0001,9.0001,9.0001,9.0001,9.0001,9.0001,9.0001,9.0001,9.0001,9.0001,8.9767,8.9014,8.5609,8.4173,8.3442,8.0547,7.9299,7.8986,7.8986,7.9237,7.955,7.955,8.047,8.1439,8.1439,8.2221,8.3203,8.399,8.668,8.9402,9.0083,9.3071,9.5782,9.5782,9.6144,9.6395,9.6395,9.7371,9.8494,9.9324,10.0593,10.1422,10.1325,10.2203,10.282,10.282,10.282,10.282,10.282,10.282,10.282,10.282,10.191,10.1227,10.1129,10.0202,9.9616,9.9519,9.9519,9.9372,9.9128,9.9193,9.9095,9.8787,9.9095,9.9193,9.9242,10.0349,10.03,0.0,0.0,0.0,0.0,0.0,0.0,0.0,0.0,3.7842,4.193,4.4526,4.8237,5.5389,5.8345,6.2906,7.2732,7.7804,8.2112,8.6739,9.1119,9.1608,8.5377,8.6085,8.7182,8.7182,8.7924,8.8522,8.8666,8.8721,8.8765,8.8964,8.9917,9.0415,9.0415,9.068,9.0827,9.0827,9.0294,9.0001,9.0001,9.0001,9.0001,9.0001,9.0001,9.0001,9.0001,9.0001,9.0001,9.0001,9.0001,9.0001,9.0001,9.0001,8.8316,8.5489,8.2217,7.9299,7.6839,7.6244,7.4231,7.1971,7.1971,7.3778,7.6052,7.6052,7.8043,8.0373,8.0373,8.1134,8.1982,8.2157,8.3788,8.543,8.5607,8.8884,9.1982,9.1982,9.4359,9.6395,9.6395,9.8006,9.9128,9.8445,10.0625,10.2301,10.1422,10.2203,10.282,10.282,10.282,10.282,10.282,10.282,10.282,10.282,10.191,10.0934,10.0056,9.9877,9.9275,9.8347,9.8299,9.7518,9.5823,9.5823,9.4882,9.3113,9.4931,9.5823,9.5872,9.7713,9.7615,0.0,0.0,0.0,0.0,0.0,0.0,0.0,0.0,0.0,0.0,0.0,4.2007,0.0,0.0,5.6928,6.5171,7.1171,7.5927,7.9332,8.3981,8.5054,7.9479,8.0243,8.1558,8.2578,8.3163,8.4138,8.5804,8.595,8.6138,8.6675,8.7268,8.7561,8.7561,8.8041,8.8333,8.8333,8.8333,8.8333,8.8333,8.8333,8.8333,8.8333,8.8333,8.8333,8.8333,8.8333,8.8684,8.922,8.922,8.9562,8.9611,8.5427,8.2982,8.1412,7.7635,7.5501,7.4038,7.1977,7.0167,6.8794,6.9249,7.0539,7.1968,7.2401,7.3649,7.5027,7.5027,7.5418,7.5932,7.6382,7.8472,8.0602,8.1067,8.4514,8.8163,8.9973,9.2103,9.4232,9.6081,9.7713,9.864,9.804,9.9812,10.1129,10.0544,10.1422,10.2301,10.2771,10.282,10.2381,10.1422,10.1276,10.1081,10.043,9.9958,9.9421,9.8884,9.8347,9.7811,9.7225,9.6151,9.5077,9.4004,9.293,9.1905,9.0772,9.1905,9.2393,9.2442,9.2979,9.293,0.0,0.0,0.0,0.0,0.0,0.0,0.0,0.0,0.0,0.0,0.0,0.0,0.0,0.0,0.0,5.8141,6.4026,6.8839,7.1999,7.5814,7.743,7.4915,7.6135,7.7646,7.8782,7.8923,7.9876,8.2186,8.2459,8.2979,8.4032,8.4964,8.5261,8.4646,8.5964,8.6393,8.5834,8.6393,8.6675,8.6675,8.6675,0.0,8.6675,8.6675,8.6675,8.6675,8.6061,8.6366,8.7188,8.6562,8.6809,8.6914,8.0145,7.755,7.7058,7.2973,7.1909,7.1968,6.8611,6.7465,6.7579,6.83,6.8528,6.868,6.9325,6.9449,0.0,6.9449,6.9449,6.9667,7.035,7.2833,7.5305,7.6031,7.9574,8.3729,8.6822,8.9229,9.1621,9.4739,9.6782,9.7957,9.7713,9.8591,9.9275,9.9144,10.0153,10.1227,10.1795,10.2039,10.1618,9.986,9.973,9.9324,9.8396,9.7567,9.7259,9.7893,9.6395,9.5273,9.4882,9.3174,9.1905,9.127,8.9611,8.8879,8.9074,8.9269,8.9367,8.926,8.485,8.4295,0.0,0.0,0.0,0.0,0.0,0.0,0.0,0.0,0.0,0.0,0.0,0.0,0.0,0.0,0.0,0.0,5.5857,6.0861,6.8268,7.054,7.1346,7.1018,7.4657,7.6357,7.4255,7.4049,7.357,7.2303,7.2821,7.3642,7.4594,7.8803,0.0,0.0,0.0,8.5437,8.2757,8.538,8.6675,8.6675,8.6675,8.6675,8.6675,8.6675,8.6675,8.6562,8.3901,8.2792,8.2711,7.9932,7.8848,7.8877,7.7938,7.5786,7.2788,6.929,6.8038,6.8089,6.7592,0.0,0.0,6.7579,6.7617,6.7617,6.7693,6.7731,6.7731,6.7731,6.7731,6.7769,6.7845,6.8775,6.9711,6.9826,7.3763,7.7782,7.9004,8.4857,9.0271,9.1346,9.5028,9.7713,9.6737,9.7469,9.7859,9.6932,9.8543,9.9568,9.8625,9.9421,9.9958,9.9714,9.973,0.0,9.9519,9.5907,9.4931,9.7811,9.4284,9.1319,8.9416,8.9074,8.761,8.4736,8.4443,8.4785,8.5706,8.6577,8.7065,8.6667,7.0224,6.7401,0.0,0.0,0.0,0.0,0.0,0.0,0.0,0.0,0.0,0.0,0.0,0.0,0.0,0.0,0.0,0.0,4.8898,5.4821,5.7577,5.959,6.1674,6.4205,6.5759,6.7098,6.819,6.7919,6.8228,6.9693,7.0577,7.1224,7.1552,7.4509,7.5575,7.4256,7.7603,7.8836,7.7623,7.8836,7.9467,7.9467,7.9467,7.9467,7.9467,7.9467,8.0483,8.2002,7.8893,7.8968,8.0962,7.7841,7.6907,7.6973,0.0,0.0,0.0,0.0,6.6326,6.6668,6.6174,6.5984,6.6098,6.6592,6.6744,6.682,6.7313,6.7465,6.7465,6.7465,6.7465,6.7465,6.7465,6.7731,6.7996,6.7996,7.0102,7.2766,7.5143,7.8719,8.3057,8.8555,9.1197,0.0,9.1965,9.4732,9.7127,9.7322,9.8103,9.8787,9.8982,9.9372,9.9242,9.7908,9.7762,9.7581,9.6946,9.5175,0.0,0.0,0.0,9.3418,9.1222,9.1173,0.0,0.0,0.0,7.7848,7.7653,7.3461,0.0,0.0,6.6801,6.5534,0.0,0.0,0.0,0.0,0.0,0.0,0.0,0.0,0.0,0.0,0.0,0.0,0.0,0.0,0.0,0.0,0.0,4.7895,4.7122,5.0594,5.4247,5.7155,5.8407,5.9641,6.0987,6.0982,6.1857,6.41,6.5516,6.6354,6.6597,6.9243,7.0512,6.9859,7.2253,7.3259,7.2695,7.3707,7.4242,7.4242,7.4242,7.4242,7.4242,7.4242,7.5511,7.745,7.4111,7.4416,7.6881,7.354,7.266,7.2658,6.4938,6.1904,6.2056,6.3175,6.4162,6.4831,6.4162,6.3874,6.3829,6.3499,6.4044,6.4836,6.466,6.546,6.644,6.644,6.6592,6.6782,6.6782,6.6782,6.6782,6.6782,6.7465,6.8881,7.1635,7.3713,7.7008,8.371,8.5354,8.6084,8.7828,9.224,9.5761,9.6542,9.7176,9.7762,9.8363,9.8591,9.8534,9.7804,9.7668,9.7432,9.664,9.5748,9.5569,9.636,9.5321,9.4199,9.3174,9.1417,8.8879,8.5511,7.8141,7.3504,0.0,0.0,0.0,0.0,0.0,0.0,0.0,0.0,0.0,0.0,0.0,0.0,0.0,0.0,0.0,0.0,0.0,0.0,0.0,0.0,0.0,0.0,0.0,0.0,3.9063,4.6312,5.1277,5.0578,5.5565,5.7175,5.237,5.3296,5.3535,5.2015,5.4102,5.582,5.6569,6.195,6.3922,6.1719,6.8199,7.0781,6.8629,7.2377,7.4242,7.4242,7.4242,7.4242,7.4242,7.4242,7.43,7.4199,7.0284,6.8687,6.8471,6.4625,6.2998,6.2845,6.0898,6.0138,6.0138,6.0176,6.0707,6.1428,6.1332,6.1332,6.0775,5.7072,5.8384,6.0868,5.8102,6.0414,6.3858,6.3858,6.4428,6.4974,6.4974,6.4974,6.4974,6.4974,6.5681,6.6579,6.7504,7.1096,7.4431,7.5632,7.6969,7.9812,8.5854,9.0457,9.3223,9.3271,9.5077,0.0,9.5139,9.5858,9.7643,10.0636,10.0938,10.0886,10.0886,9.798,9.6226,9.6387,9.2491,9.1075,9.3027,8.7122,8.3369,8.225,7.7801,7.3992,7.0814,0.0,0.0,0.0,0.0,0.0,0.0,0.0,0.0,0.0,0.0,0.0,0.0,0.0,0.0,0.0,0.0,0.0,0.0,0.0,0.0,0.0,0.0,0.0,0.0,0.0,4.6267,4.5954,4.8131,4.8823,4.6586,4.6812,4.7587,4.8642,5.056,5.2267,5.3633,5.7131,5.8965,5.8788,6.2165,6.3637,6.287,6.4175,6.4866,6.4866,6.4866,6.5128,6.559,6.559,6.7028,6.9267,6.5337,6.4806,6.646,6.2544,5.9624,5.7534,5.691,5.6721,5.6544,5.5349,5.6581,5.8586,5.7387,5.8489,5.989,5.6288,5.5537,5.5993,5.5681,5.5314,5.5969,6.0738,6.124,6.087,6.2847,6.3744,6.401,6.3479,6.3614,6.3918,6.4185,6.5845,6.837,7.2111,7.2334,7.2703,7.517,8.298,8.8949,8.8881,9.2588,9.5468,9.5872,9.8037,9.996,10.0998,10.2915,10.415,10.415,10.1283,9.9163,9.8534,9.4429,9.1466,9.005,8.7219,8.4486,8.2103,7.9849,7.3944,6.4273,0.0,0.0,0.0,0.0,0.0,0.0,0.0,0.0,0.0,0.0,0.0,0.0,0.0,0.0,0.0,0.0,0.0,0.0,0.0,0.0,0.0,0.0,0.0,0.0,0.0,0.0,4.2408,4.2863,0.0,4.0774,4.0386,4.0743,4.2047,4.3947,4.5571,4.6884,5.02,5.2642,5.3672,5.6437,5.799,5.8239,5.9112,5.9568,5.9568,5.991,6.0327,6.0821,6.0821,6.2199,6.4421,6.1584,6.1288,6.2565,5.8632,5.5468,5.3102,5.1848,5.1288,5.0927,4.9041,5.0204,5.2594,5.1622,5.3526,5.6046,5.3726,5.2098,5.0855,5.0363,4.905,4.877,5.4195,5.5876,5.6634,5.9378,6.1294,6.2302,6.1828,6.1942,6.2074,6.2074,6.2264,6.3314,6.6332,6.7208,6.7736,6.86,7.6115,8.2876,8.5211,8.922,9.3314,9.7034,9.9585,10.1905,10.4097,10.6125,10.6994,10.6065,10.3599,10.086,9.7775,9.4023,9.0733,8.7951,8.639,8.3559,7.9217,7.7653,7.1067,0.0,0.0,0.0,0.0,0.0,0.0,0.0,0.0,0.0,0.0,0.0,0.0,0.0,0.0,0.0,0.0,0.0,0.0,0.0,0.0,0.0,0.0,0.0,0.0,0.0,0.0,0.0,3.9673,3.9711,0.0,0.0,0.0,0.0,3.2515,3.459,3.6136,3.6732,4.1504,4.4926,4.6532,5.0965,5.3746,5.4671,5.7024,5.8201,5.8277,5.915,5.9568,5.9682,5.9682,5.972,5.9758,5.8847,5.8066,5.7002,5.2746,5.038,4.9198,4.5698,4.4106,4.3618,4.1476,4.195,4.3757,4.4221,4.6566,4.924,4.915,4.7585,4.5215,4.2195,4.1368,0.0,0.0,4.8329,5.1973,5.439,5.7287,5.9645,5.9664,6.0365,6.1029,6.1029,6.0517,5.9606,5.8429,6.1306,6.4291,6.5553,0.0,7.4724,8.157,8.4828,8.9599,9.8215,10.0543,10.3693,10.9566,11.0339,10.9385,10.6974,10.5091,10.122,9.4609,9.161,8.8994,8.6675,8.4388,8.0243,7.3846,7.1357,0.0,0.0,0.0,0.0,0.0,0.0,0.0,0.0,0.0,0.0,0.0,0.0,0.0,0.0,0.0,0.0,0.0,0.0,0.0,0.0,0.0,0.0,0.0,0.0,0.0,0.0,3.1579,3.5151,3.4478,3.5037,3.3821,0.0,0.0,0.0,0.0,0.0,0.0,3.4527,3.6531,3.921,4.2717,4.5008,4.7527,5.0352,5.0998,5.1595,5.2191,5.2419,5.3178,5.4443,5.4443,5.5126,5.6227,5.5444,5.4988,5.4304,4.8178,4.4795,4.3152,3.9992,3.8387,3.7486,3.48,3.5495,3.7771,3.7688,3.989,4.2372,4.0514,3.8505,3.6091,3.2512,0.0,0.0,0.0,0.0,4.0563,4.5489,4.9977,5.3452,5.4129,5.6414,5.8522,5.8522,5.8771,5.7518,5.2328,5.2171,5.2294,5.0539,5.593,0.0,6.8018,7.7609,8.7071,9.4851,10.2102,10.7403,10.9953,11.1454,11.1636,10.9966,10.6506,10.2136,9.6596,9.2673,8.9066,8.5664,8.0435,7.575,7.165,0.0,0.0,0.0,0.0,0.0,0.0,0.0,0.0,0.0,0.0,0.0,0.0,0.0,0.0,0.0,0.0,0.0,0.0,0.0,0.0,0.0,0.0,0.0,0.0,0.0,0.0,0.0,2.7563,3.0951,3.0837,3.0363,2.8892,0.0,0.0,0.0,0.0,0.0,0.0,0.0,0.0,0.0,3.449,3.7191,3.9696,4.1948,4.4342,4.5798,4.6236,4.8002,4.9347,5.0257,5.0257,5.1026,5.2252,5.1367,4.9678,4.712,4.2968,3.9891,3.7399,0.0,0.0,0.0,0.0,2.7916,2.9725,2.9869,3.2033,3.4537,3.3187,0.0,0.0,0.0,0.0,0.0,0.0,0.0,3.3826,3.8392,4.4039,4.8823,4.958,5.2611,5.5202,5.4912,5.201,4.8607,4.5548,4.4614,4.4015,4.3005,4.7693,0.0,0.0,0.0,8.4326,9.5212,10.3499,10.9322,11.1975,11.2663,11.1978,10.9586,10.6015,10.1207,9.5021,9.178,8.7316,8.1228,7.6141,6.9938,0.0,0.0,0.0,0.0,0.0,0.0,0.0,0.0,0.0,0.0,0.0,0.0,0.0,0.0,0.0,0.0,0.0,0.0,0.0,0.0,0.0,0.0,0.0,0.0,0.0,0.0,0.0,0.0,0.0,2.6639,2.7639,0.0,0.0,0.0,0.0,0.0,0.0,0.0,0.0,0.0,0.0,0.0,0.0,0.0,3.137,3.2589,3.718,3.9695,4.0084,4.3578,4.5379,4.5561,4.5629,4.6191,4.7023,4.5492,0.0,3.8041,3.6897,0.0,0.0,0.0,0.0,0.0,0.0,0.0,0.0,0.0,0.0,0.0,0.0,0.0,0.0,0.0,0.0,0.0,0.0,0.0,0.0,0.0,0.0,4.3756,4.4352,4.7705,5.0446,4.9262,4.2964,3.7763,3.8543,3.8191,3.7918,0.0,0.0,0.0,0.0,0.0,0.0,9.6371,10.4275,11.0056,11.3978,11.3199,11.0982,10.7318,10.4599,9.9777,9.2013,8.9321,8.4087,7.5359,7.1306,0.0,0.0,0.0,0.0,0.0,0.0,0.0,0.0,0.0,0.0,0.0,0.0,0.0,0.0,0.0,0.0,0.0,0.0,0.0,0.0,0.0,0.0,0.0,0.0,0.0,0.0,0.0,0.0,0.0,0.0,0.0,0.0,0.0,0.0,0.0,0.0,0.0,0.0,0.0,0.0,0.0,0.0,0.0,0.0,0.0,0.0,0.0,0.0,0.0,0.0,3.3581,3.4556,3.5727,3.6157,3.711,3.8066,3.3165,3.1475,3.1947,2.8791,0.0,0.0,0.0,0.0,0.0,0.0,0.0,0.0,0.0,0.0,0.0,0.0,0.0,0.0,0.0,0.0,0.0,0.0,0.0,0.0,0.0,0.0,3.2945,3.4001,3.8091,4.085,3.7578,0.0,0.0,0.0,0.0,0.0,0.0,0.0,0.0,0.0,0.0,0.0,9.1821,10.262,10.9778,11.1455,11.0575,10.8763,10.5922,10.4258,9.9969,9.2055,8.5463,7.8739,0.0,0.0,0.0,0.0,0.0,0.0,0.0,0.0,0.0,0.0,0.0,0.0,0.0,0.0,0.0,0.0,0.0,0.0,0.0,0.0,0.0,0.0,0.0,0.0,0.0,0.0,0.0,0.0,0.0,0.0,0.0,0.0,0.0,0.0,0.0,0.0,0.0,0.0,0.0,0.0,0.0,0.0,0.0,0.0,0.0,0.0,0.0,0.0,0.0,0.0,0.0,0.0,0.0,0.0,0.0,0.0,0.0,0.0,2.7464,2.5075,0.0,0.0,0.0,0.0,0.0,0.0,0.0,0.0,0.0,0.0,0.0,0.0,0.0,0.0,0.0,0.0,0.0,0.0,0.0,0.0,0.0,0.0,0.0,0.0,0.0,0.0,0.0,0.0,0.0,0.0,0.0,0.0,0.0,0.0,0.0,0.0,0.0,0.0,0.0,0.0,9.0656,10.2109,10.9694,11.0866,10.9927,10.824,10.5573,10.4177,9.8921,8.8363,8.2499,0.0,0.0,0.0,0.0,0.0,0.0,0.0,0.0,0.0,0.0,0.0,0.0,0.0,0.0,0.0,0.0,0.0,0.0,0.0,0.0,0.0,0.0,0.0,0.0,0.0,0.0,0.0,0.0,0.0,0.0,0.0,0.0,0.0,0.0,0.0,0.0,0.0,0.0,0.0,0.0,0.0,0.0,0.0,0.0,0.0,0.0,0.0,0.0,0.0,0.0,0.0,0.0,0.0,0.0,0.0,0.0,0.0,0.0,0.0,2.2661,1.9934,0.0,0.0,0.0,0.0,0.0,0.0,0.0,0.0,0.0,0.0,0.0,0.0,0.0,0.0,0.0,0.0,0.0,0.0,0.0,0.0,0.0,0.0,0.0,0.0,0.0,0.0,0.0,0.0,0.0,0.0,0.0,0.0,0.0,0.0,0.0,0.0,0.0,0.0,0.0,0.0,9.0225,10.1664,10.9171,11.011,10.9403,10.7774,10.5165,10.4002,9.7938,8.4992,7.971,0.0,0.0,0.0,0.0,0.0,0.0,0.0,0.0,0.0,0.0,0.0,0.0,0.0,0.0,0.0,0.0,0.0,0.0,0.0,0.0,0.0,0.0,0.0,0.0,0.0,0.0,0.0,0.0,0.0,0.0,0.0,0.0,0.0,0.0,0.0,0.0,0.0,0.0,0.0,0.0,0.0,0.0,0.0,0.0,0.0,0.0,0.0,0.0,0.0,0.0,0.0,0.0,0.0,0.0,0.0,0.0,0.0,0.0,0.0,0.0,0.0,0.0,0.0,0.0,0.0,0.0,0.0,0.0,0.0,0.0,0.0,0.0,0.0,0.0,0.0,0.0,0.0,0.0,0.0,0.0,0.0,0.0,0.0,0.0,0.0,0.0,0.0,0.0,0.0,0.0,0.0,0.0,0.0,0.0,0.0,0.0,0.0,0.0,0.0,0.0,0.0,8.889,10.0338,10.7492,10.7608,10.7599,10.6387,10.3817,10.3468,9.7938,8.4992,0.0,0.0,0.0,0.0,0.0,0.0,0.0,0.0,0.0,0.0,0.0,0.0,0.0,0.0,0.0,0.0,0.0,0.0,0.0,0.0,0.0,0.0,0.0,0.0,0.0,0.0,0.0,0.0,0.0,0.0,0.0,0.0,0.0,0.0,0.0,0.0,0.0,0.0,0.0,0.0,0.0,0.0,0.0,0.0,0.0,0.0,0.0,0.0,0.0,0.0,0.0,0.0,0.0,0.0,0.0,0.0,0.0,0.0,0.0,0.0,0.0,0.0,0.0,0.0,0.0,0.0,0.0,0.0,0.0,0.0,0.0,0.0,0.0,0.0,0.0,0.0,0.0,0.0,0.0,0.0,0.0,0.0,0.0,0.0,0.0,0.0,0.0,0.0,0.0,0.0,0.0,0.0,0.0,0.0,0.0,0.0,0.0,0.0,0.0,0.0,0.0,0.0,8.7693,9.964,10.7259,10.7259,10.7259,10.6212,10.3642,10.2711,9.581,8.0553,0.0,0.0,0.0,0.0,0.0,0.0,0.0,0.0,0.0,0.0,0.0,0.0,0.0,0.0,0.0,0.0,0.0,0.0,0.0,0.0,0.0,0.0,0.0,0.0,0.0,0.0,0.0,0.0,0.0,0.0,0.0,0.0,0.0,0.0,0.0,0.0,0.0,0.0,0.0,0.0,0.0,0.0,0.0,0.0,0.0,0.0,0.0,0.0,0.0,0.0,0.0,0.0,0.0,0.0,0.0,0.0,0.0,0.0,0.0,0.0,0.0,0.0,0.0,0.0,0.0,0.0,0.0,0.0,0.0,0.0,0.0,0.0,0.0,0.0,0.0,0.0,0.0,0.0,0.0,0.0,0.0,0.0,0.0,0.0,0.0,0.0,0.0,0.0,0.0,0.0,0.0,0.0,0.0,0.0,0.0,0.0,0.0,0.0,0.0,0.0,0.0,0.0,8.7036,9.9291,10.7259,10.7259,10.7259,10.6212,10.3642,10.2199,9.4521,7.8198,0.0,0.0,0.0,0.0,0.0,0.0,0.0,0.0,0.0,0.0,0.0,0.0,0.0,0.0,0.0,0.0,0.0,0.0,0.0,0.0,0.0,0.0,0.0,0.0,0.0,0.0,0.0,0.0,0.0,0.0,0.0,0.0,0.0,0.0,0.0,0.0,0.0,0.0,0.0,0.0,0.0,0.0,0.0,0.0,0.0,0.0,0.0,0.0,0.0,0.0,0.0,0.0,0.0,0.0,0.0,0.0,0.0,0.0,0.0,0.0,0.0,0.0,0.0,0.0,0.0,0.0,0.0,0.0,0.0,0.0,0.0,0.0,0.0,0.0,0.0,0.0,0.0,0.0,0.0,0.0,0.0,0.0,0.0,0.0,0.0,0.0,0.0,0.0,0.0,0.0,0.0,0.0,0.0,0.0,0.0,0.0,0.0,0.0,0.0,0.0,0.0,0.0,8.6898,9.9291,10.7259,10.7259,10.7259,10.6212,10.3642,10.2199,9.4928,0.0,0.0,0.0,0.0,0.0,0.0,0.0,0.0,0.0,0.0,0.0,0.0,0.0,0.0,0.0,0.0,0.0,0.0,0.0,0.0,0.0,0.0,0.0,0.0,0.0,0.0,0.0,0.0,0.0,0.0,0.0,0.0,0.0,0.0,0.0,0.0,0.0,0.0,0.0,0.0,0.0,0.0,0.0,0.0,0.0,0.0,0.0,0.0,0.0,0.0,0.0,0.0,0.0,0.0,0.0,0.0,0.0,0.0,0.0,0.0,0.0,0.0,0.0,0.0,0.0,0.0,0.0,0.0,0.0,0.0,0.0,0.0,0.0,0.0,0.0,0.0,0.0,0.0,0.0,0.0,0.0,0.0,0.0,0.0,0.0,0.0,0.0,0.0,0.0,0.0,0.0,0.0,0.0,0.0,0.0,0.0,0.0,0.0,0.0,0.0,0.0,0.0,0.0,8.3916,9.4361,10.2327,0.0,10.7259,10.6212,10.3642,10.1385,9.3997,7.9456,0.0,0.0,0.0,0.0,0.0,0.0,0.0,0.0,0.0,0.0,0.0,0.0,0.0,0.0,0.0,0.0,0.0,0.0,0.0,0.0,0.0,0.0,0.0,0.0,0.0,0.0,0.0,0.0,0.0,0.0,0.0,0.0,0.0,0.0,0.0,0.0,0.0,0.0,0.0,0.0,0.0,0.0,0.0,0.0,0.0,0.0,0.0,0.0,0.0,0.0,0.0,0.0,0.0,0.0,0.0,0.0,0.0,0.0,0.0,0.0,0.0,0.0,0.0,0.0,0.0,0.0,0.0,0.0,0.0,0.0,0.0,0.0,0.0,0.0,0.0,0.0,0.0,0.0,0.0,0.0,0.0,0.0,0.0,0.0,0.0,0.0,0.0,0.0,0.0,0.0,0.0,0.0,0.0,0.0,0.0,0.0,0.0,0.0,0.0,0.0,0.0,0.0,0.0,9.3315,10.1734,0.0,10.7259,10.6038,10.2944,10.0745,9.3489,7.9456,0.0,0.0,0.0,0.0,0.0,0.0,0.0,0.0,0.0,0.0,0.0,0.0,0.0,0.0,0.0,0.0,0.0,0.0,0.0,0.0,0.0,0.0,0.0,0.0,0.0,0.0,0.0,0.0,0.0,0.0,0.0,0.0,0.0,0.0,0.0,0.0,0.0,0.0,0.0,0.0,0.0,0.0,0.0,0.0,0.0,0.0,0.0,0.0,0.0,0.0,0.0,0.0,0.0,0.0,0.0,0.0,0.0,0.0,0.0,0.0,0.0,0.0,0.0,0.0,0.0,0.0,0.0,0.0,0.0,0.0,0.0,0.0,0.0,0.0,0.0,0.0,0.0,0.0,0.0,0.0,0.0,0.0,0.0,0.0,0.0,0.0,0.0,0.0,0.0,0.0,0.0,0.0,0.0,0.0,0.0,0.0,0.0,0.0,0.0,0.0,0.0,0.0,0.0,9.5044,10.3875,10.6852,10.7143,10.5573,10.1792,10.0105,9.3315,7.9398,7.1229,0.0,0.0,0.0,0.0,0.0,0.0,0.0,0.0,0.0,0.0,0.0,0.0,0.0,0.0,0.0,0.0,0.0,0.0,0.0,0.0,0.0,0.0,0.0,0.0,0.0,0.0,0.0,0.0,0.0,0.0,0.0,0.0,0.0,0.0,0.0,0.0,0.0,0.0,0.0,0.0,0.0,0.0,0.0,0.0,0.0,0.0,0.0,0.0,0.0,0.0,0.0,0.0,0.0,0.0,0.0,0.0,0.0,0.0,0.0,0.0,0.0,0.0,0.0,0.0,0.0,0.0,0.0,0.0,0.0,0.0,0.0,0.0,0.0,0.0,0.0,0.0,0.0,0.0,0.0,0.0,0.0,0.0,0.0,0.0,0.0,0.0,0.0,0.0,0.0,0.0,0.0,0.0,0.0,0.0,0.0,0.0,0.0,0.0,0.0,0.0,0.0,0.0,9.1205,9.8593,10.5107,10.5805,10.4642,10.1734,9.8579,9.1538,7.9281,7.0382,0.0,0.0,0.0,0.0,0.0,0.0,0.0,0.0,0.0,0.0,0.0,0.0,0.0,0.0,0.0,0.0,0.0,0.0,0.0,0.0,0.0,0.0,0.0,0.0,0.0,0.0,0.0,0.0,0.0,0.0,0.0,0.0,0.0,0.0,0.0,0.0,0.0,0.0,0.0,0.0,0.0,0.0,0.0,0.0,0.0,0.0,0.0,0.0,0.0,0.0,0.0,0.0,0.0,0.0,0.0,0.0,0.0,0.0,0.0,0.0,0.0,0.0,0.0,0.0,0.0,0.0,0.0,0.0,0.0,0.0,0.0,0.0,0.0,0.0,0.0,0.0,0.0,0.0,0.0,0.0,0.0,0.0,0.0,0.0,0.0,0.0,0.0,0.0,0.0,0.0,0.0,0.0,0.0,0.0,0.0,0.0,0.0,0.0,0.0,0.0,0.0,0.0,7.8743,8.9231,10.221,10.3595,10.2911,10.1216,9.6763,8.9734,7.9683,6.8612,0.0,0.0,0.0,0.0,0.0,0.0,0.0,0.0,0.0,0.0,0.0,0.0,0.0,0.0,0.0,0.0,0.0,0.0,0.0,0.0,0.0,0.0,0.0,0.0,0.0,0.0,0.0,0.0,0.0,0.0,0.0,0.0,0.0,0.0,0.0,0.0,0.0,0.0,0.0,0.0,0.0,0.0,0.0,0.0,0.0,0.0,0.0,0.0,0.0,0.0,0.0,0.0,0.0,0.0,0.0,0.0,0.0,0.0,0.0,0.0,0.0,0.0,0.0,0.0,0.0,0.0,0.0,0.0,0.0,0.0,0.0,0.0,0.0,0.0,0.0,0.0,0.0,0.0,0.0,0.0,0.0,0.0,0.0,0.0,0.0,0.0,0.0,0.0,0.0,0.0,0.0,0.0,0.0,0.0,0.0,0.0,0.0,0.0,0.0,0.0,0.0,0.0,0.0,7.9675,9.7237,10.0163,10.0424,9.9455,9.4417,8.7515,7.8608,0.0,0.0,0.0,0.0,0.0,0.0,0.0,0.0,0.0,0.0,0.0,0.0,0.0,0.0,0.0,0.0,0.0,0.0,0.0,0.0,0.0,0.0,0.0,0.0,0.0,0.0,0.0,0.0,0.0,0.0,0.0,0.0,0.0,0.0,0.0,0.0,0.0,0.0,0.0,0.0,0.0,0.0,0.0,0.0,0.0,0.0,0.0,0.0,0.0,0.0,0.0,0.0,0.0,0.0,0.0,0.0,0.0,0.0,0.0,0.0,0.0,0.0,0.0,0.0,0.0,0.0,0.0,0.0,0.0,0.0,0.0,0.0,0.0,0.0,0.0,0.0,0.0,0.0,0.0,0.0,0.0,0.0,0.0,0.0,0.0,0.0,0.0,0.0,0.0,0.0,0.0,0.0,0.0,0.0,0.0,0.0,0.0,0.0,0.0,0.0,0.0,0.0,0.0,0.0,7.691,8.7421,9.4303,9.6878,9.3592,9.0423,8.3505,7.139,0.0,0.0,0.0,0.0,0.0,0.0,0.0,0.0,0.0,0.0,0.0,0.0,0.0,0.0]}]]]